<?xml version="1.0" encoding="utf-8"?>
<gpx xmlns:xsi="http://www.w3.org/2001/XMLSchema-instance" xmlns:xsd="http://www.w3.org/2001/XMLSchema" version="1.1" creator="Shapelink.com" xmlns="http://www.topografix.com/GPX/1/1" xmlns:gpxtpx="http://www.garmin.com/xmlschemas/TrackPointExtension/v1">
  <metadata>
    <name>Löpning 5.96 km, 2017-10-30</name>
    <desc></desc>
    <author><name>Bengt-Åke Forslund</name></author> 
    <time>2017-10-30T18:17:20Z</time>
  </metadata>
  <trk>
    <name>Löpning 5.96 km, 2017-10-30</name>
    <trkseg>
      <trkpt lat="62.6310906877" lon="17.971376728783">
        <ele>82.2</ele>
        <time>2017-10-30T18:17:20Z</time>
      </trkpt>
      <trkpt lat="62.631080880877" lon="17.971314283628">
        <ele>82.2</ele>
        <time>2017-10-30T18:17:21Z</time>
      </trkpt>
      <trkpt lat="62.631070068226" lon="17.971257454346">
        <ele>82.2</ele>
        <time>2017-10-30T18:17:22Z</time>
      </trkpt>
      <trkpt lat="62.631058668842" lon="17.97120096034">
        <ele>82</ele>
        <time>2017-10-30T18:17:23Z</time>
      </trkpt>
      <trkpt lat="62.631048694381" lon="17.971137341719">
        <ele>83.2</ele>
        <time>2017-10-30T18:17:24Z</time>
      </trkpt>
      <trkpt lat="62.631040647757" lon="17.971082691731">
        <ele>82.4</ele>
        <time>2017-10-30T18:17:25Z</time>
      </trkpt>
      <trkpt lat="62.631031846762" lon="17.971022593508">
        <ele>82.2</ele>
        <time>2017-10-30T18:17:26Z</time>
      </trkpt>
      <trkpt lat="62.631023213405" lon="17.970964506941">
        <ele>82.2</ele>
        <time>2017-10-30T18:17:27Z</time>
      </trkpt>
      <trkpt lat="62.631015669695" lon="17.97091010841">
        <ele>82</ele>
        <time>2017-10-30T18:17:28Z</time>
      </trkpt>
      <trkpt lat="62.631008964175" lon="17.970853782042">
        <ele>81.8</ele>
        <time>2017-10-30T18:17:29Z</time>
      </trkpt>
      <trkpt lat="62.631001169008" lon="17.970803742099">
        <ele>81.6</ele>
        <time>2017-10-30T18:17:30Z</time>
      </trkpt>
      <trkpt lat="62.63099345766" lon="17.970738028003">
        <ele>81.6</ele>
        <time>2017-10-30T18:17:31Z</time>
      </trkpt>
      <trkpt lat="62.630987255054" lon="17.970682623644">
        <ele>81.4</ele>
        <time>2017-10-30T18:17:32Z</time>
      </trkpt>
      <trkpt lat="62.630979292249" lon="17.97063015295">
        <ele>81.4</ele>
        <time>2017-10-30T18:17:33Z</time>
      </trkpt>
      <trkpt lat="62.630969820702" lon="17.970569300356">
        <ele>81.2</ele>
        <time>2017-10-30T18:17:34Z</time>
      </trkpt>
      <trkpt lat="62.63096160644" lon="17.970515069463">
        <ele>81.4</ele>
        <time>2017-10-30T18:17:35Z</time>
      </trkpt>
      <trkpt lat="62.630953895092" lon="17.970455893249">
        <ele>81.2</ele>
        <time>2017-10-30T18:17:36Z</time>
      </trkpt>
      <trkpt lat="62.630947021934" lon="17.970396968492">
        <ele>81.2</ele>
        <time>2017-10-30T18:17:37Z</time>
      </trkpt>
      <trkpt lat="62.630941741337" lon="17.970343575789">
        <ele>81.2</ele>
        <time>2017-10-30T18:17:38Z</time>
      </trkpt>
      <trkpt lat="62.630937969482" lon="17.970290015448">
        <ele>81</ele>
        <time>2017-10-30T18:17:39Z</time>
      </trkpt>
      <trkpt lat="62.630935790188" lon="17.970247603034">
        <ele>81</ele>
        <time>2017-10-30T18:17:40Z</time>
      </trkpt>
      <trkpt lat="62.630934281446" lon="17.97020435243">
        <ele>80.8</ele>
        <time>2017-10-30T18:17:41Z</time>
      </trkpt>
      <trkpt lat="62.630932353609" lon="17.97017166302">
        <ele>80.8</ele>
        <time>2017-10-30T18:17:42Z</time>
      </trkpt>
      <trkpt lat="62.630929671401" lon="17.970146768777">
        <ele>80.6</ele>
        <time>2017-10-30T18:17:43Z</time>
      </trkpt>
      <trkpt lat="62.630928581754" lon="17.970122964181">
        <ele>80.6</ele>
        <time>2017-10-30T18:17:44Z</time>
      </trkpt>
      <trkpt lat="62.630926989193" lon="17.970097483205">
        <ele>80.4</ele>
        <time>2017-10-30T18:17:45Z</time>
      </trkpt>
      <trkpt lat="62.630926234822" lon="17.970066470175">
        <ele>80.4</ele>
        <time>2017-10-30T18:17:46Z</time>
      </trkpt>
      <trkpt lat="62.630922379148" lon="17.970045180149">
        <ele>80.2</ele>
        <time>2017-10-30T18:17:47Z</time>
      </trkpt>
      <trkpt lat="62.63091802056" lon="17.970031266195">
        <ele>80.2</ele>
        <time>2017-10-30T18:17:48Z</time>
      </trkpt>
      <trkpt lat="62.630917769103" lon="17.970019447716">
        <ele>80.2</ele>
        <time>2017-10-30T18:17:49Z</time>
      </trkpt>
      <trkpt lat="62.630921121863" lon="17.970021878467">
        <ele>80.2</ele>
        <time>2017-10-30T18:17:50Z</time>
      </trkpt>
      <trkpt lat="62.630922965881" lon="17.970029003082">
        <ele>80</ele>
        <time>2017-10-30T18:17:51Z</time>
      </trkpt>
      <trkpt lat="62.630901424398" lon="17.969763296852">
        <ele>80</ele>
        <time>2017-10-30T18:19:49Z</time>
      </trkpt>
      <trkpt lat="62.630893629231" lon="17.969710155606">
        <ele>79.8</ele>
        <time>2017-10-30T18:19:50Z</time>
      </trkpt>
      <trkpt lat="62.630887342806" lon="17.969658187826">
        <ele>79.8</ele>
        <time>2017-10-30T18:19:51Z</time>
      </trkpt>
      <trkpt lat="62.630881391657" lon="17.969607980245">
        <ele>79.6</ele>
        <time>2017-10-30T18:19:52Z</time>
      </trkpt>
      <trkpt lat="62.630875105232" lon="17.969557688845">
        <ele>79.4</ele>
        <time>2017-10-30T18:19:53Z</time>
      </trkpt>
      <trkpt lat="62.630870327549" lon="17.969505972522">
        <ele>79.2</ele>
        <time>2017-10-30T18:19:54Z</time>
      </trkpt>
      <trkpt lat="62.6308643764" lon="17.969453501828">
        <ele>79</ele>
        <time>2017-10-30T18:19:55Z</time>
      </trkpt>
      <trkpt lat="62.630858341432" lon="17.96940136641">
        <ele>78.6</ele>
        <time>2017-10-30T18:19:56Z</time>
      </trkpt>
      <trkpt lat="62.630853396111" lon="17.96935023682">
        <ele>78.4</ele>
        <time>2017-10-30T18:19:57Z</time>
      </trkpt>
      <trkpt lat="62.630847864057" lon="17.969299610144">
        <ele>78.2</ele>
        <time>2017-10-30T18:19:58Z</time>
      </trkpt>
      <trkpt lat="62.630843337831" lon="17.969248480554">
        <ele>78.2</ele>
        <time>2017-10-30T18:19:59Z</time>
      </trkpt>
      <trkpt lat="62.630837386682" lon="17.969188969064">
        <ele>77.6</ele>
        <time>2017-10-30T18:20:00Z</time>
      </trkpt>
      <trkpt lat="62.630831770809" lon="17.969135743999">
        <ele>77.4</ele>
        <time>2017-10-30T18:20:01Z</time>
      </trkpt>
      <trkpt lat="62.630828166592" lon="17.969083105667">
        <ele>77.4</ele>
        <time>2017-10-30T18:20:02Z</time>
      </trkpt>
      <trkpt lat="62.630820371425" lon="17.969029293869">
        <ele>77</ele>
        <time>2017-10-30T18:20:03Z</time>
      </trkpt>
      <trkpt lat="62.630816264294" lon="17.968981014125">
        <ele>76.8</ele>
        <time>2017-10-30T18:20:04Z</time>
      </trkpt>
      <trkpt lat="62.630807044204" lon="17.968924939214">
        <ele>76.4</ele>
        <time>2017-10-30T18:20:05Z</time>
      </trkpt>
      <trkpt lat="62.630797656476" lon="17.968875737461">
        <ele>76.2</ele>
        <time>2017-10-30T18:20:06Z</time>
      </trkpt>
      <trkpt lat="62.630787430558" lon="17.968825948975">
        <ele>75.8</ele>
        <time>2017-10-30T18:20:07Z</time>
      </trkpt>
      <trkpt lat="62.630776869364" lon="17.968776495765">
        <ele>75.4</ele>
        <time>2017-10-30T18:20:08Z</time>
      </trkpt>
      <trkpt lat="62.630768152188" lon="17.968729305668">
        <ele>75.2</ele>
        <time>2017-10-30T18:20:09Z</time>
      </trkpt>
      <trkpt lat="62.630750634017" lon="17.968683121399">
        <ele>74.6</ele>
        <time>2017-10-30T18:20:10Z</time>
      </trkpt>
      <trkpt lat="62.63073361876" lon="17.968643391193">
        <ele>74.2</ele>
        <time>2017-10-30T18:20:11Z</time>
      </trkpt>
      <trkpt lat="62.630715597675" lon="17.968606678471">
        <ele>74</ele>
        <time>2017-10-30T18:20:12Z</time>
      </trkpt>
      <trkpt lat="62.630699169151" lon="17.968571223034">
        <ele>73.8</ele>
        <time>2017-10-30T18:20:13Z</time>
      </trkpt>
      <trkpt lat="62.630685255197" lon="17.968535935235">
        <ele>73.4</ele>
        <time>2017-10-30T18:20:14Z</time>
      </trkpt>
      <trkpt lat="62.630666228284" lon="17.968497378495">
        <ele>73</ele>
        <time>2017-10-30T18:20:15Z</time>
      </trkpt>
      <trkpt lat="62.630650973226" lon="17.968467036017">
        <ele>72.8</ele>
        <time>2017-10-30T18:20:16Z</time>
      </trkpt>
      <trkpt lat="62.630632616865" lon="17.968430574752">
        <ele>72.6</ele>
        <time>2017-10-30T18:20:17Z</time>
      </trkpt>
      <trkpt lat="62.630616355979" lon="17.968397382428">
        <ele>72</ele>
        <time>2017-10-30T18:20:18Z</time>
      </trkpt>
      <trkpt lat="62.630601771473" lon="17.968366788493">
        <ele>72</ele>
        <time>2017-10-30T18:20:19Z</time>
      </trkpt>
      <trkpt lat="62.630585175311" lon="17.968347929218">
        <ele>71.8</ele>
        <time>2017-10-30T18:20:20Z</time>
      </trkpt>
      <trkpt lat="62.630567824778" lon="17.968312306143">
        <ele>71.4</ele>
        <time>2017-10-30T18:20:21Z</time>
      </trkpt>
      <trkpt lat="62.630551060978" lon="17.968278275629">
        <ele>71.2</ele>
        <time>2017-10-30T18:20:22Z</time>
      </trkpt>
      <trkpt lat="62.630536979386" lon="17.968224044736">
        <ele>70.8</ele>
        <time>2017-10-30T18:20:23Z</time>
      </trkpt>
      <trkpt lat="62.630524657993" lon="17.968184230711">
        <ele>70.8</ele>
        <time>2017-10-30T18:20:24Z</time>
      </trkpt>
      <trkpt lat="62.630509319116" lon="17.968134442225">
        <ele>70.6</ele>
        <time>2017-10-30T18:20:25Z</time>
      </trkpt>
      <trkpt lat="62.630497919732" lon="17.968084905196">
        <ele>70.2</ele>
        <time>2017-10-30T18:20:26Z</time>
      </trkpt>
      <trkpt lat="62.630488280547" lon="17.968034949072">
        <ele>70</ele>
        <time>2017-10-30T18:20:27Z</time>
      </trkpt>
      <trkpt lat="62.630479563371" lon="17.967978455066">
        <ele>69.8</ele>
        <time>2017-10-30T18:20:28Z</time>
      </trkpt>
      <trkpt lat="62.630473444584" lon="17.967923888897">
        <ele>69.6</ele>
        <time>2017-10-30T18:20:29Z</time>
      </trkpt>
      <trkpt lat="62.63046623615" lon="17.9678683169">
        <ele>69</ele>
        <time>2017-10-30T18:20:30Z</time>
      </trkpt>
      <trkpt lat="62.630461542286" lon="17.967808973048">
        <ele>68.8</ele>
        <time>2017-10-30T18:20:31Z</time>
      </trkpt>
      <trkpt lat="62.630457267517" lon="17.96775348487">
        <ele>68.4</ele>
        <time>2017-10-30T18:20:32Z</time>
      </trkpt>
      <trkpt lat="62.630454669128" lon="17.967697577597">
        <ele>68</ele>
        <time>2017-10-30T18:20:33Z</time>
      </trkpt>
      <trkpt lat="62.630454166214" lon="17.967641502686">
        <ele>67.8</ele>
        <time>2017-10-30T18:20:34Z</time>
      </trkpt>
      <trkpt lat="62.630454166214" lon="17.96758249411">
        <ele>67.4</ele>
        <time>2017-10-30T18:20:35Z</time>
      </trkpt>
      <trkpt lat="62.630454752947" lon="17.967522898801">
        <ele>67.2</ele>
        <time>2017-10-30T18:20:36Z</time>
      </trkpt>
      <trkpt lat="62.630455758775" lon="17.967464644596">
        <ele>66.8</ele>
        <time>2017-10-30T18:20:37Z</time>
      </trkpt>
      <trkpt lat="62.630457099879" lon="17.967410246065">
        <ele>66.4</ele>
        <time>2017-10-30T18:20:38Z</time>
      </trkpt>
      <trkpt lat="62.630458860078" lon="17.967359703208">
        <ele>66.4</ele>
        <time>2017-10-30T18:20:39Z</time>
      </trkpt>
      <trkpt lat="62.630460787915" lon="17.967294827302">
        <ele>65.8</ele>
        <time>2017-10-30T18:20:40Z</time>
      </trkpt>
      <trkpt lat="62.630462715752" lon="17.967234477622">
        <ele>65.6</ele>
        <time>2017-10-30T18:20:41Z</time>
      </trkpt>
      <trkpt lat="62.63046623615" lon="17.967172200105">
        <ele>65.4</ele>
        <time>2017-10-30T18:20:42Z</time>
      </trkpt>
      <trkpt lat="62.630468918358" lon="17.967115287004">
        <ele>65</ele>
        <time>2017-10-30T18:20:43Z</time>
      </trkpt>
      <trkpt lat="62.630470762376" lon="17.967063067767">
        <ele>65</ele>
        <time>2017-10-30T18:20:44Z</time>
      </trkpt>
      <trkpt lat="62.630474282774" lon="17.966999197689">
        <ele>64.8</ele>
        <time>2017-10-30T18:20:45Z</time>
      </trkpt>
      <trkpt lat="62.630475791516" lon="17.966941697855">
        <ele>64.6</ele>
        <time>2017-10-30T18:20:46Z</time>
      </trkpt>
      <trkpt lat="62.630476378249" lon="17.966881599632">
        <ele>64.2</ele>
        <time>2017-10-30T18:20:47Z</time>
      </trkpt>
      <trkpt lat="62.630478976638" lon="17.966818483925">
        <ele>64</ele>
        <time>2017-10-30T18:20:48Z</time>
      </trkpt>
      <trkpt lat="62.630484592511" lon="17.966759642987">
        <ele>64</ele>
        <time>2017-10-30T18:20:49Z</time>
      </trkpt>
      <trkpt lat="62.630484424873" lon="17.966690240855">
        <ele>63.4</ele>
        <time>2017-10-30T18:20:50Z</time>
      </trkpt>
      <trkpt lat="62.630486185072" lon="17.966626789872">
        <ele>63.2</ele>
        <time>2017-10-30T18:20:51Z</time>
      </trkpt>
      <trkpt lat="62.630488783461" lon="17.966567278382">
        <ele>62.8</ele>
        <time>2017-10-30T18:20:52Z</time>
      </trkpt>
      <trkpt lat="62.630492303859" lon="17.966507766892">
        <ele>62.4</ele>
        <time>2017-10-30T18:20:53Z</time>
      </trkpt>
      <trkpt lat="62.630495321343" lon="17.966453619818">
        <ele>62</ele>
        <time>2017-10-30T18:20:54Z</time>
      </trkpt>
      <trkpt lat="62.630496913904" lon="17.966393689233">
        <ele>61.6</ele>
        <time>2017-10-30T18:20:55Z</time>
      </trkpt>
      <trkpt lat="62.63049892556" lon="17.966334513019">
        <ele>61.2</ele>
        <time>2017-10-30T18:20:56Z</time>
      </trkpt>
      <trkpt lat="62.630500685759" lon="17.966281287954">
        <ele>60.8</ele>
        <time>2017-10-30T18:20:57Z</time>
      </trkpt>
      <trkpt lat="62.630503703243" lon="17.966227559975">
        <ele>60.6</ele>
        <time>2017-10-30T18:20:58Z</time>
      </trkpt>
      <trkpt lat="62.630507978012" lon="17.966172742349">
        <ele>60.2</ele>
        <time>2017-10-30T18:20:59Z</time>
      </trkpt>
      <trkpt lat="62.630505714899" lon="17.966108201719">
        <ele>60</ele>
        <time>2017-10-30T18:21:00Z</time>
      </trkpt>
      <trkpt lat="62.63050814565" lon="17.966046762392">
        <ele>59.8</ele>
        <time>2017-10-30T18:21:01Z</time>
      </trkpt>
      <trkpt lat="62.630510911677" lon="17.965996303354">
        <ele>59.4</ele>
        <time>2017-10-30T18:21:02Z</time>
      </trkpt>
      <trkpt lat="62.63051401298" lon="17.96593964171">
        <ele>59.2</ele>
        <time>2017-10-30T18:21:03Z</time>
      </trkpt>
      <trkpt lat="62.630517198102" lon="17.965882980066">
        <ele>59.2</ele>
        <time>2017-10-30T18:21:04Z</time>
      </trkpt>
      <trkpt lat="62.630518958301" lon="17.965831179924">
        <ele>59</ele>
        <time>2017-10-30T18:21:05Z</time>
      </trkpt>
      <trkpt lat="62.6305207185" lon="17.96577870923">
        <ele>58.6</ele>
        <time>2017-10-30T18:21:06Z</time>
      </trkpt>
      <trkpt lat="62.63052239488" lon="17.965732944056">
        <ele>58.6</ele>
        <time>2017-10-30T18:21:07Z</time>
      </trkpt>
      <trkpt lat="62.630520634681" lon="17.965687178882">
        <ele>58.4</ele>
        <time>2017-10-30T18:21:08Z</time>
      </trkpt>
      <trkpt lat="62.63051736574" lon="17.96564292245">
        <ele>58.2</ele>
        <time>2017-10-30T18:21:09Z</time>
      </trkpt>
      <trkpt lat="62.630515437903" lon="17.965592128136">
        <ele>58</ele>
        <time>2017-10-30T18:21:10Z</time>
      </trkpt>
      <trkpt lat="62.630515773179" lon="17.965546782057">
        <ele>57.8</ele>
        <time>2017-10-30T18:21:11Z</time>
      </trkpt>
      <trkpt lat="62.630517952473" lon="17.965507806222">
        <ele>57.6</ele>
        <time>2017-10-30T18:21:12Z</time>
      </trkpt>
      <trkpt lat="62.630522311061" lon="17.965480565047">
        <ele>57.4</ele>
        <time>2017-10-30T18:21:13Z</time>
      </trkpt>
      <trkpt lat="62.630528346029" lon="17.965452904777">
        <ele>57.2</ele>
        <time>2017-10-30T18:21:14Z</time>
      </trkpt>
      <trkpt lat="62.630536895567" lon="17.965425076869">
        <ele>57</ele>
        <time>2017-10-30T18:21:15Z</time>
      </trkpt>
      <trkpt lat="62.630541170336" lon="17.96540906744">
        <ele>57</ele>
        <time>2017-10-30T18:21:16Z</time>
      </trkpt>
      <trkpt lat="62.630548127313" lon="17.965392638916">
        <ele>57</ele>
        <time>2017-10-30T18:21:17Z</time>
      </trkpt>
      <trkpt lat="62.630556844489" lon="17.965391968364">
        <ele>57</ele>
        <time>2017-10-30T18:21:18Z</time>
      </trkpt>
      <trkpt lat="62.630564052923" lon="17.965403367748">
        <ele>57.2</ele>
        <time>2017-10-30T18:21:19Z</time>
      </trkpt>
      <trkpt lat="62.630561873629" lon="17.9654124202">
        <ele>57</ele>
        <time>2017-10-30T18:21:20Z</time>
      </trkpt>
      <trkpt lat="62.63056011343" lon="17.965419041901">
        <ele>57</ele>
        <time>2017-10-30T18:21:21Z</time>
      </trkpt>
      <trkpt lat="62.63055843705" lon="17.965426334154">
        <ele>57</ele>
        <time>2017-10-30T18:21:22Z</time>
      </trkpt>
      <trkpt lat="62.630562208905" lon="17.965415605322">
        <ele>57</ele>
        <time>2017-10-30T18:21:23Z</time>
      </trkpt>
      <trkpt lat="62.63056849533" lon="17.965848362819">
        <ele>56.8</ele>
        <time>2017-10-30T18:22:07Z</time>
      </trkpt>
      <trkpt lat="62.630567489502" lon="17.96591198144">
        <ele>56.8</ele>
        <time>2017-10-30T18:22:08Z</time>
      </trkpt>
      <trkpt lat="62.630564639656" lon="17.965967553437">
        <ele>57</ele>
        <time>2017-10-30T18:22:09Z</time>
      </trkpt>
      <trkpt lat="62.63056178981" lon="17.966031172058">
        <ele>57.6</ele>
        <time>2017-10-30T18:22:10Z</time>
      </trkpt>
      <trkpt lat="62.630560616344" lon="17.96609386867">
        <ele>57.8</ele>
        <time>2017-10-30T18:22:11Z</time>
      </trkpt>
      <trkpt lat="62.630559191421" lon="17.966153212522">
        <ele>58.2</ele>
        <time>2017-10-30T18:22:12Z</time>
      </trkpt>
      <trkpt lat="62.630558772326" lon="17.966210544718">
        <ele>58.4</ele>
        <time>2017-10-30T18:22:13Z</time>
      </trkpt>
      <trkpt lat="62.630558772326" lon="17.966265278525">
        <ele>58.4</ele>
        <time>2017-10-30T18:22:14Z</time>
      </trkpt>
      <trkpt lat="62.63055508429" lon="17.966322023988">
        <ele>58.4</ele>
        <time>2017-10-30T18:22:15Z</time>
      </trkpt>
      <trkpt lat="62.630554329919" lon="17.96637466232">
        <ele>58.6</ele>
        <time>2017-10-30T18:22:16Z</time>
      </trkpt>
      <trkpt lat="62.630551899168" lon="17.966457224035">
        <ele>58.8</ele>
        <time>2017-10-30T18:22:17Z</time>
      </trkpt>
      <trkpt lat="62.63055089334" lon="17.96652218376">
        <ele>59</ele>
        <time>2017-10-30T18:22:18Z</time>
      </trkpt>
      <trkpt lat="62.630550390426" lon="17.966581359974">
        <ele>59.2</ele>
        <time>2017-10-30T18:22:19Z</time>
      </trkpt>
      <trkpt lat="62.630548211132" lon="17.966646487337">
        <ele>59.4</ele>
        <time>2017-10-30T18:22:20Z</time>
      </trkpt>
      <trkpt lat="62.630546199476" lon="17.96670490918">
        <ele>59.8</ele>
        <time>2017-10-30T18:22:21Z</time>
      </trkpt>
      <trkpt lat="62.630544606915" lon="17.966763498661">
        <ele>60</ele>
        <time>2017-10-30T18:22:22Z</time>
      </trkpt>
      <trkpt lat="62.630542679078" lon="17.966822926332">
        <ele>60.4</ele>
        <time>2017-10-30T18:22:23Z</time>
      </trkpt>
      <trkpt lat="62.630539745413" lon="17.966876905768">
        <ele>60.8</ele>
        <time>2017-10-30T18:22:24Z</time>
      </trkpt>
      <trkpt lat="62.630539074861" lon="17.966935998163">
        <ele>61.2</ele>
        <time>2017-10-30T18:22:25Z</time>
      </trkpt>
      <trkpt lat="62.630537147024" lon="17.966990145237">
        <ele>61.6</ele>
        <time>2017-10-30T18:22:26Z</time>
      </trkpt>
      <trkpt lat="62.630535973558" lon="17.967046723062">
        <ele>62</ele>
        <time>2017-10-30T18:22:27Z</time>
      </trkpt>
      <trkpt lat="62.630534800092" lon="17.967097768833">
        <ele>62.2</ele>
        <time>2017-10-30T18:22:28Z</time>
      </trkpt>
      <trkpt lat="62.63053329135" lon="17.967153257011">
        <ele>62.6</ele>
        <time>2017-10-30T18:22:29Z</time>
      </trkpt>
      <trkpt lat="62.630533626626" lon="17.967214109605">
        <ele>63</ele>
        <time>2017-10-30T18:22:30Z</time>
      </trkpt>
      <trkpt lat="62.630532034065" lon="17.967266915575">
        <ele>63.4</ele>
        <time>2017-10-30T18:22:31Z</time>
      </trkpt>
      <trkpt lat="62.630527340201" lon="17.967319889183">
        <ele>63.4</ele>
        <time>2017-10-30T18:22:32Z</time>
      </trkpt>
      <trkpt lat="62.630527591658" lon="17.967374706809">
        <ele>63.8</ele>
        <time>2017-10-30T18:22:33Z</time>
      </trkpt>
      <trkpt lat="62.630526082916" lon="17.967426674589">
        <ele>64</ele>
        <time>2017-10-30T18:22:34Z</time>
      </trkpt>
      <trkpt lat="62.630528597486" lon="17.967483922966">
        <ele>64.2</ele>
        <time>2017-10-30T18:22:35Z</time>
      </trkpt>
      <trkpt lat="62.63052742402" lon="17.967539997877">
        <ele>64.6</ele>
        <time>2017-10-30T18:22:36Z</time>
      </trkpt>
      <trkpt lat="62.630527004925" lon="17.967592217114">
        <ele>64.8</ele>
        <time>2017-10-30T18:22:37Z</time>
      </trkpt>
      <trkpt lat="62.630526753468" lon="17.967639910125">
        <ele>65</ele>
        <time>2017-10-30T18:22:38Z</time>
      </trkpt>
      <trkpt lat="62.630526837287" lon="17.967686513489">
        <ele>65</ele>
        <time>2017-10-30T18:22:39Z</time>
      </trkpt>
      <trkpt lat="62.630527926934" lon="17.96773923564">
        <ele>65.4</ele>
        <time>2017-10-30T18:22:40Z</time>
      </trkpt>
      <trkpt lat="62.630529687133" lon="17.96779371799">
        <ele>65.6</ele>
        <time>2017-10-30T18:22:41Z</time>
      </trkpt>
      <trkpt lat="62.630533542807" lon="17.967842500648">
        <ele>66</ele>
        <time>2017-10-30T18:22:42Z</time>
      </trkpt>
      <trkpt lat="62.630538739585" lon="17.967891870039">
        <ele>66.2</ele>
        <time>2017-10-30T18:22:43Z</time>
      </trkpt>
      <trkpt lat="62.630542343802" lon="17.967937216118">
        <ele>66.6</ele>
        <time>2017-10-30T18:22:44Z</time>
      </trkpt>
      <trkpt lat="62.630549468417" lon="17.967984909129">
        <ele>67</ele>
        <time>2017-10-30T18:22:45Z</time>
      </trkpt>
      <trkpt lat="62.63055843705" lon="17.968031344855">
        <ele>67.2</ele>
        <time>2017-10-30T18:22:46Z</time>
      </trkpt>
      <trkpt lat="62.630567740959" lon="17.96807870259">
        <ele>67.4</ele>
        <time>2017-10-30T18:22:47Z</time>
      </trkpt>
      <trkpt lat="62.630580146171" lon="17.968125976506">
        <ele>67.8</ele>
        <time>2017-10-30T18:22:48Z</time>
      </trkpt>
      <trkpt lat="62.630593221935" lon="17.968168221282">
        <ele>68</ele>
        <time>2017-10-30T18:22:49Z</time>
      </trkpt>
      <trkpt lat="62.630609818097" lon="17.968212561533">
        <ele>68.4</ele>
        <time>2017-10-30T18:22:50Z</time>
      </trkpt>
      <trkpt lat="62.630623648232" lon="17.968253297567">
        <ele>68.6</ele>
        <time>2017-10-30T18:22:51Z</time>
      </trkpt>
      <trkpt lat="62.630638148919" lon="17.968289339737">
        <ele>69</ele>
        <time>2017-10-30T18:22:52Z</time>
      </trkpt>
      <trkpt lat="62.630654158348" lon="17.968333260893">
        <ele>69.2</ele>
        <time>2017-10-30T18:22:53Z</time>
      </trkpt>
      <trkpt lat="62.630667317931" lon="17.968378104058">
        <ele>69.2</ele>
        <time>2017-10-30T18:22:54Z</time>
      </trkpt>
      <trkpt lat="62.63068416555" lon="17.968409368545">
        <ele>69.6</ele>
        <time>2017-10-30T18:22:55Z</time>
      </trkpt>
      <trkpt lat="62.630700426436" lon="17.968443650516">
        <ele>69.8</ele>
        <time>2017-10-30T18:22:56Z</time>
      </trkpt>
      <trkpt lat="62.630717190236" lon="17.968475501736">
        <ele>70.2</ele>
        <time>2017-10-30T18:22:57Z</time>
      </trkpt>
      <trkpt lat="62.630733367303" lon="17.968507604413">
        <ele>70.4</ele>
        <time>2017-10-30T18:22:58Z</time>
      </trkpt>
      <trkpt lat="62.630749460551" lon="17.968542556936">
        <ele>70.8</ele>
        <time>2017-10-30T18:22:59Z</time>
      </trkpt>
      <trkpt lat="62.630765386161" lon="17.968581868047">
        <ele>70.8</ele>
        <time>2017-10-30T18:23:00Z</time>
      </trkpt>
      <trkpt lat="62.630780976495" lon="17.968619502778">
        <ele>71</ele>
        <time>2017-10-30T18:23:01Z</time>
      </trkpt>
      <trkpt lat="62.630794890449" lon="17.968656802233">
        <ele>71.4</ele>
        <time>2017-10-30T18:23:02Z</time>
      </trkpt>
      <trkpt lat="62.630807630937" lon="17.968696867715">
        <ele>71.6</ele>
        <time>2017-10-30T18:23:03Z</time>
      </trkpt>
      <trkpt lat="62.630819449416" lon="17.968739615405">
        <ele>71.8</ele>
        <time>2017-10-30T18:23:04Z</time>
      </trkpt>
      <trkpt lat="62.630824478556" lon="17.968776998679">
        <ele>72.2</ele>
        <time>2017-10-30T18:23:05Z</time>
      </trkpt>
      <trkpt lat="62.630832106085" lon="17.968819914007">
        <ele>72.6</ele>
        <time>2017-10-30T18:23:06Z</time>
      </trkpt>
      <trkpt lat="62.630841158537" lon="17.968862661697">
        <ele>72.8</ele>
        <time>2017-10-30T18:23:07Z</time>
      </trkpt>
      <trkpt lat="62.630850630084" lon="17.968910019432">
        <ele>73.2</ele>
        <time>2017-10-30T18:23:08Z</time>
      </trkpt>
      <trkpt lat="62.630858760527" lon="17.968959807918">
        <ele>73.6</ele>
        <time>2017-10-30T18:23:09Z</time>
      </trkpt>
      <trkpt lat="62.630864879314" lon="17.968999370486">
        <ele>73.8</ele>
        <time>2017-10-30T18:23:10Z</time>
      </trkpt>
      <trkpt lat="62.630869992273" lon="17.969046560583">
        <ele>74.2</ele>
        <time>2017-10-30T18:23:11Z</time>
      </trkpt>
      <trkpt lat="62.630873261214" lon="17.969090900834">
        <ele>74.4</ele>
        <time>2017-10-30T18:23:12Z</time>
      </trkpt>
      <trkpt lat="62.630875859603" lon="17.969135408723">
        <ele>74.6</ele>
        <time>2017-10-30T18:23:13Z</time>
      </trkpt>
      <trkpt lat="62.630877703621" lon="17.969179832793">
        <ele>74.8</ele>
        <time>2017-10-30T18:23:14Z</time>
      </trkpt>
      <trkpt lat="62.63088030201" lon="17.969227106709">
        <ele>75</ele>
        <time>2017-10-30T18:23:15Z</time>
      </trkpt>
      <trkpt lat="62.630883906227" lon="17.969275973186">
        <ele>75.4</ele>
        <time>2017-10-30T18:23:16Z</time>
      </trkpt>
      <trkpt lat="62.63088700753" lon="17.969324169111">
        <ele>75.6</ele>
        <time>2017-10-30T18:23:17Z</time>
      </trkpt>
      <trkpt lat="62.630890947023" lon="17.96936197148">
        <ele>75.8</ele>
        <time>2017-10-30T18:23:18Z</time>
      </trkpt>
      <trkpt lat="62.630895557068" lon="17.969396672546">
        <ele>76</ele>
        <time>2017-10-30T18:23:19Z</time>
      </trkpt>
      <trkpt lat="62.63089874219" lon="17.969430032508">
        <ele>76.4</ele>
        <time>2017-10-30T18:23:20Z</time>
      </trkpt>
      <trkpt lat="62.630900334751" lon="17.969459033882">
        <ele>76.6</ele>
        <time>2017-10-30T18:23:21Z</time>
      </trkpt>
      <trkpt lat="62.630901592036" lon="17.969487197066">
        <ele>76.8</ele>
        <time>2017-10-30T18:23:22Z</time>
      </trkpt>
      <trkpt lat="62.630904274244" lon="17.969509157644">
        <ele>77</ele>
        <time>2017-10-30T18:23:23Z</time>
      </trkpt>
      <trkpt lat="62.630907459366" lon="17.969524412702">
        <ele>77.2</ele>
        <time>2017-10-30T18:23:24Z</time>
      </trkpt>
      <trkpt lat="62.630903268416" lon="17.969555425732">
        <ele>77.4</ele>
        <time>2017-10-30T18:23:25Z</time>
      </trkpt>
      <trkpt lat="62.630903268416" lon="17.969578308319">
        <ele>77.4</ele>
        <time>2017-10-30T18:23:26Z</time>
      </trkpt>
      <trkpt lat="62.630904358063" lon="17.969602364372">
        <ele>77.6</ele>
        <time>2017-10-30T18:23:27Z</time>
      </trkpt>
      <trkpt lat="62.63090544771" lon="17.969629689366">
        <ele>77.6</ele>
        <time>2017-10-30T18:23:28Z</time>
      </trkpt>
      <trkpt lat="62.630906118262" lon="17.969653913057">
        <ele>77.8</ele>
        <time>2017-10-30T18:23:29Z</time>
      </trkpt>
      <trkpt lat="62.6309062859" lon="17.96967545454">
        <ele>77.8</ele>
        <time>2017-10-30T18:23:30Z</time>
      </trkpt>
      <trkpt lat="62.630905950624" lon="17.969698169489">
        <ele>78</ele>
        <time>2017-10-30T18:23:31Z</time>
      </trkpt>
      <trkpt lat="62.630906453538" lon="17.969725159207">
        <ele>78.2</ele>
        <time>2017-10-30T18:23:32Z</time>
      </trkpt>
      <trkpt lat="62.630907291728" lon="17.969748293251">
        <ele>78.4</ele>
        <time>2017-10-30T18:23:33Z</time>
      </trkpt>
      <trkpt lat="62.630909135746" lon="17.969750556364">
        <ele>78.4</ele>
        <time>2017-10-30T18:23:34Z</time>
      </trkpt>
      <trkpt lat="62.630913494334" lon="17.969763213033">
        <ele>78.6</ele>
        <time>2017-10-30T18:23:35Z</time>
      </trkpt>
      <trkpt lat="62.63091802056" lon="17.969755669323">
        <ele>78.6</ele>
        <time>2017-10-30T18:23:36Z</time>
      </trkpt>
      <trkpt lat="62.630919277845" lon="17.969732367641">
        <ele>78.6</ele>
        <time>2017-10-30T18:23:37Z</time>
      </trkpt>
      <trkpt lat="62.630916260361" lon="17.969705964656">
        <ele>78.8</ele>
        <time>2017-10-30T18:23:38Z</time>
      </trkpt>
      <trkpt lat="62.630912572325" lon="17.969680316042">
        <ele>78.8</ele>
        <time>2017-10-30T18:23:39Z</time>
      </trkpt>
      <trkpt lat="62.630904777158" lon="17.969661540586">
        <ele>78.8</ele>
        <time>2017-10-30T18:23:40Z</time>
      </trkpt>
      <trkpt lat="62.630899999475" lon="17.969633712678">
        <ele>78.6</ele>
        <time>2017-10-30T18:23:41Z</time>
      </trkpt>
      <trkpt lat="62.630895473249" lon="17.969606639141">
        <ele>78.6</ele>
        <time>2017-10-30T18:23:42Z</time>
      </trkpt>
      <trkpt lat="62.6308895221" lon="17.969577553948">
        <ele>78.6</ele>
        <time>2017-10-30T18:23:43Z</time>
      </trkpt>
      <trkpt lat="62.630884073865" lon="17.969543439615">
        <ele>78.6</ele>
        <time>2017-10-30T18:23:44Z</time>
      </trkpt>
      <trkpt lat="62.630879380001" lon="17.969500691925">
        <ele>78.4</ele>
        <time>2017-10-30T18:23:45Z</time>
      </trkpt>
      <trkpt lat="62.630874686137" lon="17.969460542624">
        <ele>78.4</ele>
        <time>2017-10-30T18:23:46Z</time>
      </trkpt>
      <trkpt lat="62.630869154083" lon="17.969418884581">
        <ele>78.2</ele>
        <time>2017-10-30T18:23:47Z</time>
      </trkpt>
      <trkpt lat="62.630865298409" lon="17.969375298701">
        <ele>78</ele>
        <time>2017-10-30T18:23:48Z</time>
      </trkpt>
      <trkpt lat="62.630862029468" lon="17.969332131916">
        <ele>77.6</ele>
        <time>2017-10-30T18:23:49Z</time>
      </trkpt>
      <trkpt lat="62.630860101631" lon="17.969285780009">
        <ele>77.4</ele>
        <time>2017-10-30T18:23:50Z</time>
      </trkpt>
      <trkpt lat="62.630858425251" lon="17.969240936844">
        <ele>77.2</ele>
        <time>2017-10-30T18:23:51Z</time>
      </trkpt>
      <trkpt lat="62.63085515631" lon="17.969194082023">
        <ele>77</ele>
        <time>2017-10-30T18:23:52Z</time>
      </trkpt>
      <trkpt lat="62.630849540437" lon="17.969147227202">
        <ele>76.8</ele>
        <time>2017-10-30T18:23:53Z</time>
      </trkpt>
      <trkpt lat="62.630844343659" lon="17.969104228055">
        <ele>76.6</ele>
        <time>2017-10-30T18:23:54Z</time>
      </trkpt>
      <trkpt lat="62.630837638139" lon="17.969049913343">
        <ele>76.4</ele>
        <time>2017-10-30T18:23:55Z</time>
      </trkpt>
      <trkpt lat="62.630833782465" lon="17.969003812893">
        <ele>76.2</ele>
        <time>2017-10-30T18:23:56Z</time>
      </trkpt>
      <trkpt lat="62.630829926791" lon="17.968959221185">
        <ele>75.8</ele>
        <time>2017-10-30T18:23:57Z</time>
      </trkpt>
      <trkpt lat="62.630824310918" lon="17.968910354708">
        <ele>75.6</ele>
        <time>2017-10-30T18:23:58Z</time>
      </trkpt>
      <trkpt lat="62.630817102484" lon="17.968866182095">
        <ele>75.4</ele>
        <time>2017-10-30T18:23:59Z</time>
      </trkpt>
      <trkpt lat="62.630809474955" lon="17.968824021138">
        <ele>75.2</ele>
        <time>2017-10-30T18:24:00Z</time>
      </trkpt>
      <trkpt lat="62.630800506322" lon="17.968784207113">
        <ele>75</ele>
        <time>2017-10-30T18:24:01Z</time>
      </trkpt>
      <trkpt lat="62.630789526033" lon="17.968740705052">
        <ele>74.6</ele>
        <time>2017-10-30T18:24:02Z</time>
      </trkpt>
      <trkpt lat="62.630778210468" lon="17.968699130828">
        <ele>74.4</ele>
        <time>2017-10-30T18:24:03Z</time>
      </trkpt>
      <trkpt lat="62.630766475808" lon="17.968661915192">
        <ele>74.2</ele>
        <time>2017-10-30T18:24:04Z</time>
      </trkpt>
      <trkpt lat="62.630750466379" lon="17.968623442271">
        <ele>74.2</ele>
        <time>2017-10-30T18:24:05Z</time>
      </trkpt>
      <trkpt lat="62.630735546597" lon="17.968592680698">
        <ele>73.8</ele>
        <time>2017-10-30T18:24:06Z</time>
      </trkpt>
      <trkpt lat="62.630721297367" lon="17.968560242745">
        <ele>73.6</ele>
        <time>2017-10-30T18:24:07Z</time>
      </trkpt>
      <trkpt lat="62.630704617386" lon="17.968529732629">
        <ele>73.2</ele>
        <time>2017-10-30T18:24:08Z</time>
      </trkpt>
      <trkpt lat="62.630686847758" lon="17.968501820902">
        <ele>73</ele>
        <time>2017-10-30T18:24:09Z</time>
      </trkpt>
      <trkpt lat="62.630671089786" lon="17.968463180343">
        <ele>72.6</ele>
        <time>2017-10-30T18:24:10Z</time>
      </trkpt>
      <trkpt lat="62.630653655434" lon="17.968424623603">
        <ele>72.2</ele>
        <time>2017-10-30T18:24:11Z</time>
      </trkpt>
      <trkpt lat="62.630634628521" lon="17.968386737415">
        <ele>72.2</ele>
        <time>2017-10-30T18:24:12Z</time>
      </trkpt>
      <trkpt lat="62.630616523617" lon="17.968348851227">
        <ele>71.8</ele>
        <time>2017-10-30T18:24:13Z</time>
      </trkpt>
      <trkpt lat="62.630601268559" lon="17.968309791573">
        <ele>71.6</ele>
        <time>2017-10-30T18:24:14Z</time>
      </trkpt>
      <trkpt lat="62.630586684053" lon="17.968272240661">
        <ele>71.4</ele>
        <time>2017-10-30T18:24:15Z</time>
      </trkpt>
      <trkpt lat="62.630569920253" lon="17.96823544412">
        <ele>71</ele>
        <time>2017-10-30T18:24:16Z</time>
      </trkpt>
      <trkpt lat="62.630555419566" lon="17.968190433317">
        <ele>70.8</ele>
        <time>2017-10-30T18:24:17Z</time>
      </trkpt>
      <trkpt lat="62.63054418782" lon="17.968143662315">
        <ele>70.4</ele>
        <time>2017-10-30T18:24:18Z</time>
      </trkpt>
      <trkpt lat="62.630532704617" lon="17.968098316236">
        <ele>70</ele>
        <time>2017-10-30T18:24:19Z</time>
      </trkpt>
      <trkpt lat="62.630521389052" lon="17.968047102827">
        <ele>69.6</ele>
        <time>2017-10-30T18:24:20Z</time>
      </trkpt>
      <trkpt lat="62.630511246953" lon="17.967994464495">
        <ele>69.4</ele>
        <time>2017-10-30T18:24:21Z</time>
      </trkpt>
      <trkpt lat="62.630501775406" lon="17.967941909982">
        <ele>69.2</ele>
        <time>2017-10-30T18:24:22Z</time>
      </trkpt>
      <trkpt lat="62.63049305823" lon="17.9678850807">
        <ele>68.8</ele>
        <time>2017-10-30T18:24:23Z</time>
      </trkpt>
      <trkpt lat="62.630487693814" lon="17.967835543671">
        <ele>68.6</ele>
        <time>2017-10-30T18:24:24Z</time>
      </trkpt>
      <trkpt lat="62.630482329398" lon="17.967776116">
        <ele>68.4</ele>
        <time>2017-10-30T18:24:25Z</time>
      </trkpt>
      <trkpt lat="62.630479814828" lon="17.967721801288">
        <ele>68</ele>
        <time>2017-10-30T18:24:26Z</time>
      </trkpt>
      <trkpt lat="62.63047797081" lon="17.967670001146">
        <ele>67.8</ele>
        <time>2017-10-30T18:24:27Z</time>
      </trkpt>
      <trkpt lat="62.630476797344" lon="17.967616776081">
        <ele>67.6</ele>
        <time>2017-10-30T18:24:28Z</time>
      </trkpt>
      <trkpt lat="62.630477048801" lon="17.967562461369">
        <ele>67.4</ele>
        <time>2017-10-30T18:24:29Z</time>
      </trkpt>
      <trkpt lat="62.630478054629" lon="17.967504290983">
        <ele>67.2</ele>
        <time>2017-10-30T18:24:30Z</time>
      </trkpt>
      <trkpt lat="62.630478976638" lon="17.967452490841">
        <ele>67</ele>
        <time>2017-10-30T18:24:31Z</time>
      </trkpt>
      <trkpt lat="62.630478306086" lon="17.96739976869">
        <ele>66.8</ele>
        <time>2017-10-30T18:24:32Z</time>
      </trkpt>
      <trkpt lat="62.630479060457" lon="17.967346040711">
        <ele>66.6</ele>
        <time>2017-10-30T18:24:33Z</time>
      </trkpt>
      <trkpt lat="62.63047964719" lon="17.967294408207">
        <ele>66.2</ele>
        <time>2017-10-30T18:24:34Z</time>
      </trkpt>
      <trkpt lat="62.630481155932" lon="17.96723464526">
        <ele>65.8</ele>
        <time>2017-10-30T18:24:35Z</time>
      </trkpt>
      <trkpt lat="62.63048383814" lon="17.967179995272">
        <ele>65.4</ele>
        <time>2017-10-30T18:24:36Z</time>
      </trkpt>
      <trkpt lat="62.630484257235" lon="17.967127776035">
        <ele>65.2</ele>
        <time>2017-10-30T18:24:37Z</time>
      </trkpt>
      <trkpt lat="62.630485765977" lon="17.967073377504">
        <ele>64.8</ele>
        <time>2017-10-30T18:24:38Z</time>
      </trkpt>
      <trkpt lat="62.630488364366" lon="17.967027193235">
        <ele>64.6</ele>
        <time>2017-10-30T18:24:39Z</time>
      </trkpt>
      <trkpt lat="62.63049222004" lon="17.966967933202">
        <ele>64.4</ele>
        <time>2017-10-30T18:24:40Z</time>
      </trkpt>
      <trkpt lat="62.630494986067" lon="17.966914205223">
        <ele>64</ele>
        <time>2017-10-30T18:24:41Z</time>
      </trkpt>
      <trkpt lat="62.630496997723" lon="17.966859722873">
        <ele>63.8</ele>
        <time>2017-10-30T18:24:42Z</time>
      </trkpt>
      <trkpt lat="62.63049892556" lon="17.966803899419">
        <ele>63.4</ele>
        <time>2017-10-30T18:24:43Z</time>
      </trkpt>
      <trkpt lat="62.630500182845" lon="17.966753105105">
        <ele>63</ele>
        <time>2017-10-30T18:24:44Z</time>
      </trkpt>
      <trkpt lat="62.630502613596" lon="17.9666948509">
        <ele>62.8</ele>
        <time>2017-10-30T18:24:45Z</time>
      </trkpt>
      <trkpt lat="62.630505463442" lon="17.966639949455">
        <ele>62.4</ele>
        <time>2017-10-30T18:24:46Z</time>
      </trkpt>
      <trkpt lat="62.630506050175" lon="17.96658253344">
        <ele>62.2</ele>
        <time>2017-10-30T18:24:47Z</time>
      </trkpt>
      <trkpt lat="62.630508732383" lon="17.966527045262">
        <ele>61.8</ele>
        <time>2017-10-30T18:24:48Z</time>
      </trkpt>
      <trkpt lat="62.630510324944" lon="17.9664769215">
        <ele>61.6</ele>
        <time>2017-10-30T18:24:49Z</time>
      </trkpt>
      <trkpt lat="62.630511749867" lon="17.966420846589">
        <ele>61.4</ele>
        <time>2017-10-30T18:24:50Z</time>
      </trkpt>
      <trkpt lat="62.630514096799" lon="17.966370219913">
        <ele>61.2</ele>
        <time>2017-10-30T18:24:51Z</time>
      </trkpt>
      <trkpt lat="62.630516276093" lon="17.966318922685">
        <ele>60.8</ele>
        <time>2017-10-30T18:24:52Z</time>
      </trkpt>
      <trkpt lat="62.630517030464" lon="17.966266284353">
        <ele>60.6</ele>
        <time>2017-10-30T18:24:53Z</time>
      </trkpt>
      <trkpt lat="62.63051736574" lon="17.966218088428">
        <ele>60.4</ele>
        <time>2017-10-30T18:24:54Z</time>
      </trkpt>
      <trkpt lat="62.630517449559" lon="17.966156313825">
        <ele>60.2</ele>
        <time>2017-10-30T18:24:55Z</time>
      </trkpt>
      <trkpt lat="62.630517281921" lon="17.966101915294">
        <ele>59.8</ele>
        <time>2017-10-30T18:24:56Z</time>
      </trkpt>
      <trkpt lat="62.630517784835" lon="17.966047181487">
        <ele>59.6</ele>
        <time>2017-10-30T18:24:57Z</time>
      </trkpt>
      <trkpt lat="62.630519712672" lon="17.965995716621">
        <ele>59.4</ele>
        <time>2017-10-30T18:24:58Z</time>
      </trkpt>
      <trkpt lat="62.630522813975" lon="17.965953639483">
        <ele>59.2</ele>
        <time>2017-10-30T18:24:59Z</time>
      </trkpt>
      <trkpt lat="62.630526669649" lon="17.965906281748">
        <ele>58.8</ele>
        <time>2017-10-30T18:25:00Z</time>
      </trkpt>
      <trkpt lat="62.630526921106" lon="17.965854397787">
        <ele>58.6</ele>
        <time>2017-10-30T18:25:01Z</time>
      </trkpt>
      <trkpt lat="62.630525915278" lon="17.96579882579">
        <ele>58.4</ele>
        <time>2017-10-30T18:25:02Z</time>
      </trkpt>
      <trkpt lat="62.63052742402" lon="17.965745097811">
        <ele>58.2</ele>
        <time>2017-10-30T18:25:03Z</time>
      </trkpt>
      <trkpt lat="62.630527172563" lon="17.965700422284">
        <ele>58</ele>
        <time>2017-10-30T18:25:04Z</time>
      </trkpt>
      <trkpt lat="62.630529435676" lon="17.965651723445">
        <ele>57.8</ele>
        <time>2017-10-30T18:25:05Z</time>
      </trkpt>
      <trkpt lat="62.630532285522" lon="17.965619620768">
        <ele>57.8</ele>
        <time>2017-10-30T18:25:06Z</time>
      </trkpt>
      <trkpt lat="62.630533123712" lon="17.965588021005">
        <ele>57.6</ele>
        <time>2017-10-30T18:25:07Z</time>
      </trkpt>
      <trkpt lat="62.630533626626" lon="17.96555658888">
        <ele>57.4</ele>
        <time>2017-10-30T18:25:08Z</time>
      </trkpt>
      <trkpt lat="62.630532201703" lon="17.965529682981">
        <ele>57.4</ele>
        <time>2017-10-30T18:25:09Z</time>
      </trkpt>
      <trkpt lat="62.630539577775" lon="17.965505124014">
        <ele>57.2</ele>
        <time>2017-10-30T18:25:10Z</time>
      </trkpt>
      <trkpt lat="62.630544606915" lon="17.965479894495">
        <ele>57</ele>
        <time>2017-10-30T18:25:11Z</time>
      </trkpt>
      <trkpt lat="62.630550138969" lon="17.965460867582">
        <ele>56.8</ele>
        <time>2017-10-30T18:25:12Z</time>
      </trkpt>
      <trkpt lat="62.630556341575" lon="17.965441840669">
        <ele>56.6</ele>
        <time>2017-10-30T18:25:13Z</time>
      </trkpt>
      <trkpt lat="62.630561035439" lon="17.965422981394">
        <ele>56.6</ele>
        <time>2017-10-30T18:25:14Z</time>
      </trkpt>
      <trkpt lat="62.630563214733" lon="17.965395907857">
        <ele>56.4</ele>
        <time>2017-10-30T18:25:15Z</time>
      </trkpt>
      <trkpt lat="62.630562628" lon="17.965372522356">
        <ele>56.4</ele>
        <time>2017-10-30T18:25:16Z</time>
      </trkpt>
      <trkpt lat="62.630560281068" lon="17.965353495443">
        <ele>56.4</ele>
        <time>2017-10-30T18:25:17Z</time>
      </trkpt>
      <trkpt lat="62.630562125086" lon="17.9653369831">
        <ele>56.4</ele>
        <time>2017-10-30T18:25:18Z</time>
      </trkpt>
      <trkpt lat="62.63056849533" lon="17.965329858485">
        <ele>56.2</ele>
        <time>2017-10-30T18:25:19Z</time>
      </trkpt>
      <trkpt lat="62.63056598076" lon="17.965337569833">
        <ele>56.2</ele>
        <time>2017-10-30T18:25:20Z</time>
      </trkpt>
      <trkpt lat="62.6305710099" lon="17.965345532638">
        <ele>56.2</ele>
        <time>2017-10-30T18:25:21Z</time>
      </trkpt>
      <trkpt lat="62.630569082063" lon="17.965356010013">
        <ele>56.4</ele>
        <time>2017-10-30T18:25:22Z</time>
      </trkpt>
      <trkpt lat="62.630564974932" lon="17.965369253415">
        <ele>56.4</ele>
        <time>2017-10-30T18:25:23Z</time>
      </trkpt>
      <trkpt lat="62.630559359059" lon="17.965382915912">
        <ele>56.6</ele>
        <time>2017-10-30T18:25:24Z</time>
      </trkpt>
      <trkpt lat="62.630562544181" lon="17.965381323351">
        <ele>56.6</ele>
        <time>2017-10-30T18:25:25Z</time>
      </trkpt>
      <trkpt lat="62.630849959532" lon="17.965477296106">
        <ele>56</ele>
        <time>2017-10-30T18:27:16Z</time>
      </trkpt>
      <trkpt lat="62.630872423024" lon="17.965490204232">
        <ele>56.4</ele>
        <time>2017-10-30T18:27:17Z</time>
      </trkpt>
      <trkpt lat="62.630906956452" lon="17.965494311363">
        <ele>56.6</ele>
        <time>2017-10-30T18:27:18Z</time>
      </trkpt>
      <trkpt lat="62.630940484052" lon="17.965488863128">
        <ele>57</ele>
        <time>2017-10-30T18:27:19Z</time>
      </trkpt>
      <trkpt lat="62.630970994168" lon="17.965467489283">
        <ele>57.4</ele>
        <time>2017-10-30T18:27:20Z</time>
      </trkpt>
      <trkpt lat="62.631005108501" lon="17.965444522877">
        <ele>57.6</ele>
        <time>2017-10-30T18:27:21Z</time>
      </trkpt>
      <trkpt lat="62.631031595305" lon="17.965417114064">
        <ele>57.8</ele>
        <time>2017-10-30T18:27:22Z</time>
      </trkpt>
      <trkpt lat="62.631060093765" lon="17.965381658627">
        <ele>57.8</ele>
        <time>2017-10-30T18:27:23Z</time>
      </trkpt>
      <trkpt lat="62.631087083483" lon="17.965344442991">
        <ele>57.8</ele>
        <time>2017-10-30T18:27:24Z</time>
      </trkpt>
      <trkpt lat="62.631111139536" lon="17.965317537092">
        <ele>57.6</ele>
        <time>2017-10-30T18:27:25Z</time>
      </trkpt>
      <trkpt lat="62.631146427335" lon="17.965291804659">
        <ele>57.6</ele>
        <time>2017-10-30T18:27:26Z</time>
      </trkpt>
      <trkpt lat="62.631176937451" lon="17.965286607881">
        <ele>57.8</ele>
        <time>2017-10-30T18:27:27Z</time>
      </trkpt>
      <trkpt lat="62.631210045956" lon="17.965305718613">
        <ele>57.8</ele>
        <time>2017-10-30T18:27:28Z</time>
      </trkpt>
      <trkpt lat="62.631236113665" lon="17.965342598973">
        <ele>58</ele>
        <time>2017-10-30T18:27:29Z</time>
      </trkpt>
      <trkpt lat="62.631262684288" lon="17.965375707478">
        <ele>58.2</ele>
        <time>2017-10-30T18:27:30Z</time>
      </trkpt>
      <trkpt lat="62.631288835816" lon="17.965418371349">
        <ele>58.2</ele>
        <time>2017-10-30T18:27:31Z</time>
      </trkpt>
      <trkpt lat="62.63132035176" lon="17.96544510961">
        <ele>58.4</ele>
        <time>2017-10-30T18:27:32Z</time>
      </trkpt>
      <trkpt lat="62.631349520772" lon="17.965479391581">
        <ele>58.6</ele>
        <time>2017-10-30T18:27:33Z</time>
      </trkpt>
      <trkpt lat="62.631374498834" lon="17.965500765426">
        <ele>58.8</ele>
        <time>2017-10-30T18:27:34Z</time>
      </trkpt>
      <trkpt lat="62.631398638706" lon="17.965530940266">
        <ele>59</ele>
        <time>2017-10-30T18:27:35Z</time>
      </trkpt>
      <trkpt lat="62.631426298976" lon="17.965559606364">
        <ele>59.2</ele>
        <time>2017-10-30T18:27:36Z</time>
      </trkpt>
      <trkpt lat="62.6314511094" lon="17.965595899991">
        <ele>59.2</ele>
        <time>2017-10-30T18:27:37Z</time>
      </trkpt>
      <trkpt lat="62.631476338919" lon="17.965619620768">
        <ele>59.4</ele>
        <time>2017-10-30T18:27:38Z</time>
      </trkpt>
      <trkpt lat="62.631500311153" lon="17.965648286866">
        <ele>59.4</ele>
        <time>2017-10-30T18:27:39Z</time>
      </trkpt>
      <trkpt lat="62.631522104093" lon="17.965673348747">
        <ele>59.6</ele>
        <time>2017-10-30T18:27:40Z</time>
      </trkpt>
      <trkpt lat="62.631550937829" lon="17.965703104492">
        <ele>59.6</ele>
        <time>2017-10-30T18:27:41Z</time>
      </trkpt>
      <trkpt lat="62.631578849556" lon="17.965732944056">
        <ele>59.8</ele>
        <time>2017-10-30T18:27:42Z</time>
      </trkpt>
      <trkpt lat="62.631602402695" lon="17.965757503023">
        <ele>59.8</ele>
        <time>2017-10-30T18:27:43Z</time>
      </trkpt>
      <trkpt lat="62.631631068793" lon="17.965786588216">
        <ele>60</ele>
        <time>2017-10-30T18:27:44Z</time>
      </trkpt>
      <trkpt lat="62.631650850077" lon="17.965810811907">
        <ele>60</ele>
        <time>2017-10-30T18:27:45Z</time>
      </trkpt>
      <trkpt lat="62.631685886419" lon="17.965835873788">
        <ele>60.2</ele>
        <time>2017-10-30T18:27:46Z</time>
      </trkpt>
      <trkpt lat="62.631708098454" lon="17.96585749909">
        <ele>60.4</ele>
        <time>2017-10-30T18:27:47Z</time>
      </trkpt>
      <trkpt lat="62.631733495611" lon="17.965883231523">
        <ele>60.8</ele>
        <time>2017-10-30T18:27:48Z</time>
      </trkpt>
      <trkpt lat="62.631761155881" lon="17.965903096626">
        <ele>60.8</ele>
        <time>2017-10-30T18:27:49Z</time>
      </trkpt>
      <trkpt lat="62.63178806178" lon="17.96592203972">
        <ele>61</ele>
        <time>2017-10-30T18:27:50Z</time>
      </trkpt>
      <trkpt lat="62.631816224964" lon="17.965940563719">
        <ele>61.2</ele>
        <time>2017-10-30T18:27:51Z</time>
      </trkpt>
      <trkpt lat="62.631842795587" lon="17.965955902596">
        <ele>61.2</ele>
        <time>2017-10-30T18:27:52Z</time>
      </trkpt>
      <trkpt lat="62.631866935459" lon="17.965974761871">
        <ele>61.4</ele>
        <time>2017-10-30T18:27:53Z</time>
      </trkpt>
      <trkpt lat="62.631894092815" lon="17.9659907713">
        <ele>61.6</ele>
        <time>2017-10-30T18:27:54Z</time>
      </trkpt>
      <trkpt lat="62.631919825248" lon="17.966006613091">
        <ele>61.6</ele>
        <time>2017-10-30T18:27:55Z</time>
      </trkpt>
      <trkpt lat="62.631948658984" lon="17.966028154574">
        <ele>61.8</ele>
        <time>2017-10-30T18:27:56Z</time>
      </trkpt>
      <trkpt lat="62.631974223779" lon="17.966048941686">
        <ele>62</ele>
        <time>2017-10-30T18:27:57Z</time>
      </trkpt>
      <trkpt lat="62.631998950384" lon="17.966064699658">
        <ele>62.2</ele>
        <time>2017-10-30T18:27:58Z</time>
      </trkpt>
      <trkpt lat="62.632024515179" lon="17.966083558933">
        <ele>62.2</ele>
        <time>2017-10-30T18:27:59Z</time>
      </trkpt>
      <trkpt lat="62.632049996155" lon="17.966100071276">
        <ele>62.4</ele>
        <time>2017-10-30T18:28:00Z</time>
      </trkpt>
      <trkpt lat="62.632078829891" lon="17.966116918895">
        <ele>62.6</ele>
        <time>2017-10-30T18:28:01Z</time>
      </trkpt>
      <trkpt lat="62.632105149057" lon="17.966139717663">
        <ele>62.6</ele>
        <time>2017-10-30T18:28:02Z</time>
      </trkpt>
      <trkpt lat="62.632132390232" lon="17.966161007689">
        <ele>62.8</ele>
        <time>2017-10-30T18:28:03Z</time>
      </trkpt>
      <trkpt lat="62.632161978339" lon="17.966175089281">
        <ele>62.8</ele>
        <time>2017-10-30T18:28:04Z</time>
      </trkpt>
      <trkpt lat="62.632185028564" lon="17.966185063742">
        <ele>62.8</ele>
        <time>2017-10-30T18:28:05Z</time>
      </trkpt>
      <trkpt lat="62.632218220888" lon="17.966200654076">
        <ele>63</ele>
        <time>2017-10-30T18:28:06Z</time>
      </trkpt>
      <trkpt lat="62.632246048796" lon="17.9662087007">
        <ele>63</ele>
        <time>2017-10-30T18:28:07Z</time>
      </trkpt>
      <trkpt lat="62.632275804541" lon="17.966222195559">
        <ele>63.2</ele>
        <time>2017-10-30T18:28:08Z</time>
      </trkpt>
      <trkpt lat="62.632305392648" lon="17.966231667106">
        <ele>63.2</ele>
        <time>2017-10-30T18:28:09Z</time>
      </trkpt>
      <trkpt lat="62.632332717642" lon="17.966239043178">
        <ele>63.2</ele>
        <time>2017-10-30T18:28:10Z</time>
      </trkpt>
      <trkpt lat="62.632366077604" lon="17.966243820861">
        <ele>63.2</ele>
        <time>2017-10-30T18:28:11Z</time>
      </trkpt>
      <trkpt lat="62.63239574953" lon="17.966245832517">
        <ele>63.4</ele>
        <time>2017-10-30T18:28:12Z</time>
      </trkpt>
      <trkpt lat="62.632426511103" lon="17.966251532209">
        <ele>63.4</ele>
        <time>2017-10-30T18:28:13Z</time>
      </trkpt>
      <trkpt lat="62.632455512477" lon="17.966252957132">
        <ele>63.6</ele>
        <time>2017-10-30T18:28:14Z</time>
      </trkpt>
      <trkpt lat="62.632483591842" lon="17.966258489186">
        <ele>63.6</ele>
        <time>2017-10-30T18:28:15Z</time>
      </trkpt>
      <trkpt lat="62.632512509397" lon="17.966261590489">
        <ele>63.8</ele>
        <time>2017-10-30T18:28:16Z</time>
      </trkpt>
      <trkpt lat="62.632543690065" lon="17.966264188878">
        <ele>64</ele>
        <time>2017-10-30T18:28:17Z</time>
      </trkpt>
      <trkpt lat="62.632573697267" lon="17.966266619629">
        <ele>64.2</ele>
        <time>2017-10-30T18:28:18Z</time>
      </trkpt>
      <trkpt lat="62.632597501863" lon="17.966270559122">
        <ele>64.2</ele>
        <time>2017-10-30T18:28:19Z</time>
      </trkpt>
      <trkpt lat="62.632634549861" lon="17.966276677909">
        <ele>64.4</ele>
        <time>2017-10-30T18:28:20Z</time>
      </trkpt>
      <trkpt lat="62.632666065805" lon="17.966277851375">
        <ele>64.6</ele>
        <time>2017-10-30T18:28:21Z</time>
      </trkpt>
      <trkpt lat="62.632694480446" lon="17.966284724533">
        <ele>64.8</ele>
        <time>2017-10-30T18:28:22Z</time>
      </trkpt>
      <trkpt lat="62.63272012906" lon="17.966284221619">
        <ele>64.8</ele>
        <time>2017-10-30T18:28:23Z</time>
      </trkpt>
      <trkpt lat="62.6327503039" lon="17.966284724533">
        <ele>65</ele>
        <time>2017-10-30T18:28:24Z</time>
      </trkpt>
      <trkpt lat="62.632773186487" lon="17.966286317094">
        <ele>65</ele>
        <time>2017-10-30T18:28:25Z</time>
      </trkpt>
      <trkpt lat="62.632804199517" lon="17.966286484732">
        <ele>64.8</ele>
        <time>2017-10-30T18:28:26Z</time>
      </trkpt>
      <trkpt lat="62.632833117072" lon="17.966284053981">
        <ele>64.8</ele>
        <time>2017-10-30T18:28:27Z</time>
      </trkpt>
      <trkpt lat="62.632860693523" lon="17.966276007357">
        <ele>64.6</ele>
        <time>2017-10-30T18:28:28Z</time>
      </trkpt>
      <trkpt lat="62.632888353793" lon="17.966278019013">
        <ele>64.6</ele>
        <time>2017-10-30T18:28:29Z</time>
      </trkpt>
      <trkpt lat="62.632916600796" lon="17.966277767556">
        <ele>64.8</ele>
        <time>2017-10-30T18:28:30Z</time>
      </trkpt>
      <trkpt lat="62.632947949102" lon="17.966279611574">
        <ele>64.8</ele>
        <time>2017-10-30T18:28:31Z</time>
      </trkpt>
      <trkpt lat="62.632975525553" lon="17.966274163339">
        <ele>65</ele>
        <time>2017-10-30T18:28:32Z</time>
      </trkpt>
      <trkpt lat="62.633004443108" lon="17.966273911882">
        <ele>65.2</ele>
        <time>2017-10-30T18:28:33Z</time>
      </trkpt>
      <trkpt lat="62.633034534129" lon="17.966276342633">
        <ele>65.4</ele>
        <time>2017-10-30T18:28:34Z</time>
      </trkpt>
      <trkpt lat="62.633057584354" lon="17.966275588262">
        <ele>65.6</ele>
        <time>2017-10-30T18:28:35Z</time>
      </trkpt>
      <trkpt lat="62.633089687031" lon="17.966276258814">
        <ele>65.8</ele>
        <time>2017-10-30T18:28:36Z</time>
      </trkpt>
      <trkpt lat="62.633116090016" lon="17.966273911882">
        <ele>65.8</ele>
        <time>2017-10-30T18:28:37Z</time>
      </trkpt>
      <trkpt lat="62.633148611788" lon="17.966272486959">
        <ele>65.8</ele>
        <time>2017-10-30T18:28:38Z</time>
      </trkpt>
      <trkpt lat="62.633178367533" lon="17.966271900226">
        <ele>66</ele>
        <time>2017-10-30T18:28:39Z</time>
      </trkpt>
      <trkpt lat="62.633204435242" lon="17.966272738416">
        <ele>66.2</ele>
        <time>2017-10-30T18:28:40Z</time>
      </trkpt>
      <trkpt lat="62.633237795204" lon="17.966270810579">
        <ele>66.2</ele>
        <time>2017-10-30T18:28:41Z</time>
      </trkpt>
      <trkpt lat="62.633269646424" lon="17.966266284353">
        <ele>66.2</ele>
        <time>2017-10-30T18:28:42Z</time>
      </trkpt>
      <trkpt lat="62.633299150712" lon="17.966269218018">
        <ele>66.4</ele>
        <time>2017-10-30T18:28:43Z</time>
      </trkpt>
      <trkpt lat="62.633326475706" lon="17.966262680136">
        <ele>66.4</ele>
        <time>2017-10-30T18:28:44Z</time>
      </trkpt>
      <trkpt lat="62.633351789044" lon="17.966258070091">
        <ele>66.4</ele>
        <time>2017-10-30T18:28:45Z</time>
      </trkpt>
      <trkpt lat="62.633379700771" lon="17.966255136426">
        <ele>66.4</ele>
        <time>2017-10-30T18:28:46Z</time>
      </trkpt>
      <trkpt lat="62.633407109584" lon="17.966251783666">
        <ele>66.4</ele>
        <time>2017-10-30T18:28:47Z</time>
      </trkpt>
      <trkpt lat="62.633436446234" lon="17.966251196933">
        <ele>66.6</ele>
        <time>2017-10-30T18:28:48Z</time>
      </trkpt>
      <trkpt lat="62.633461759572" lon="17.966250861657">
        <ele>66.6</ele>
        <time>2017-10-30T18:28:49Z</time>
      </trkpt>
      <trkpt lat="62.633488078738" lon="17.966248347087">
        <ele>66.6</ele>
        <time>2017-10-30T18:28:50Z</time>
      </trkpt>
      <trkpt lat="62.633517918302" lon="17.96624474287">
        <ele>66.6</ele>
        <time>2017-10-30T18:28:51Z</time>
      </trkpt>
      <trkpt lat="62.633546249124" lon="17.966243988499">
        <ele>66.8</ele>
        <time>2017-10-30T18:28:52Z</time>
      </trkpt>
      <trkpt lat="62.633576004869" lon="17.966246251612">
        <ele>66.8</ele>
        <time>2017-10-30T18:28:53Z</time>
      </trkpt>
      <trkpt lat="62.633605676795" lon="17.966248514725">
        <ele>67</ele>
        <time>2017-10-30T18:28:54Z</time>
      </trkpt>
      <trkpt lat="62.633633504703" lon="17.966251783666">
        <ele>67</ele>
        <time>2017-10-30T18:28:55Z</time>
      </trkpt>
      <trkpt lat="62.633663763362" lon="17.966260333204">
        <ele>67</ele>
        <time>2017-10-30T18:28:56Z</time>
      </trkpt>
      <trkpt lat="62.633690920718" lon="17.966276091176">
        <ele>67</ele>
        <time>2017-10-30T18:28:57Z</time>
      </trkpt>
      <trkpt lat="62.63371170783" lon="17.966301572152">
        <ele>67.2</ele>
        <time>2017-10-30T18:28:58Z</time>
      </trkpt>
      <trkpt lat="62.63372595706" lon="17.966343733109">
        <ele>67.2</ele>
        <time>2017-10-30T18:28:59Z</time>
      </trkpt>
      <trkpt lat="62.633728387811" lon="17.96638891155">
        <ele>67.2</ele>
        <time>2017-10-30T18:29:00Z</time>
      </trkpt>
      <trkpt lat="62.633729561277" lon="17.966440292597">
        <ele>67.2</ele>
        <time>2017-10-30T18:29:01Z</time>
      </trkpt>
      <trkpt lat="62.633726879069" lon="17.96649452349">
        <ele>67.4</ele>
        <time>2017-10-30T18:29:02Z</time>
      </trkpt>
      <trkpt lat="62.63372428068" lon="17.966546155994">
        <ele>67.6</ele>
        <time>2017-10-30T18:29:03Z</time>
      </trkpt>
      <trkpt lat="62.633722771938" lon="17.966602314724">
        <ele>67.8</ele>
        <time>2017-10-30T18:29:04Z</time>
      </trkpt>
      <trkpt lat="62.633726627612" lon="17.966653444314">
        <ele>68.2</ele>
        <time>2017-10-30T18:29:05Z</time>
      </trkpt>
      <trkpt lat="62.633719167721" lon="17.966713626356">
        <ele>68.6</ele>
        <time>2017-10-30T18:29:06Z</time>
      </trkpt>
      <trkpt lat="62.633711372554" lon="17.966767270516">
        <ele>68.8</ele>
        <time>2017-10-30T18:29:07Z</time>
      </trkpt>
      <trkpt lat="62.633702403921" lon="17.966818651563">
        <ele>69.2</ele>
        <time>2017-10-30T18:29:08Z</time>
      </trkpt>
      <trkpt lat="62.633693183831" lon="17.966873050094">
        <ele>69.4</ele>
        <time>2017-10-30T18:29:09Z</time>
      </trkpt>
      <trkpt lat="62.633689328157" lon="17.966907332065">
        <ele>69.6</ele>
        <time>2017-10-30T18:29:10Z</time>
      </trkpt>
      <trkpt lat="62.633680024248" lon="17.9669798355">
        <ele>69.6</ele>
        <time>2017-10-30T18:29:11Z</time>
      </trkpt>
      <trkpt lat="62.633671139434" lon="17.967032809108">
        <ele>69.8</ele>
        <time>2017-10-30T18:29:12Z</time>
      </trkpt>
      <trkpt lat="62.633664853009" lon="17.967086117992">
        <ele>69.8</ele>
        <time>2017-10-30T18:29:13Z</time>
      </trkpt>
      <trkpt lat="62.633657309299" lon="17.967141354713">
        <ele>70</ele>
        <time>2017-10-30T18:29:14Z</time>
      </trkpt>
      <trkpt lat="62.633650184684" lon="17.967183934765">
        <ele>70.2</ele>
        <time>2017-10-30T18:29:15Z</time>
      </trkpt>
      <trkpt lat="62.633640126404" lon="17.967241266961">
        <ele>70.2</ele>
        <time>2017-10-30T18:29:16Z</time>
      </trkpt>
      <trkpt lat="62.633633672341" lon="17.967285271936">
        <ele>70.6</ele>
        <time>2017-10-30T18:29:17Z</time>
      </trkpt>
      <trkpt lat="62.633624703708" lon="17.967332629671">
        <ele>70.6</ele>
        <time>2017-10-30T18:29:18Z</time>
      </trkpt>
      <trkpt lat="62.63361783055" lon="17.967383507804">
        <ele>70.8</ele>
        <time>2017-10-30T18:29:19Z</time>
      </trkpt>
      <trkpt lat="62.633613220505" lon="17.967429859711">
        <ele>71</ele>
        <time>2017-10-30T18:29:20Z</time>
      </trkpt>
      <trkpt lat="62.633604754786" lon="17.967485431708">
        <ele>71.4</ele>
        <time>2017-10-30T18:29:21Z</time>
      </trkpt>
      <trkpt lat="62.633601234388" lon="17.967536477479">
        <ele>71.6</ele>
        <time>2017-10-30T18:29:22Z</time>
      </trkpt>
      <trkpt lat="62.633595618515" lon="17.967591965657">
        <ele>71.8</ele>
        <time>2017-10-30T18:29:23Z</time>
      </trkpt>
      <trkpt lat="62.633589248271" lon="17.967646615645">
        <ele>72.2</ele>
        <time>2017-10-30T18:29:24Z</time>
      </trkpt>
      <trkpt lat="62.633586901339" lon="17.967693470466">
        <ele>72.4</ele>
        <time>2017-10-30T18:29:25Z</time>
      </trkpt>
      <trkpt lat="62.633581453104" lon="17.967753652508">
        <ele>72.6</ele>
        <time>2017-10-30T18:29:26Z</time>
      </trkpt>
      <trkpt lat="62.633575837231" lon="17.967798998587">
        <ele>72.8</ele>
        <time>2017-10-30T18:29:27Z</time>
      </trkpt>
      <trkpt lat="62.63356837734" lon="17.967852978023">
        <ele>73</ele>
        <time>2017-10-30T18:29:28Z</time>
      </trkpt>
      <trkpt lat="62.633562845286" lon="17.967905029622">
        <ele>73.2</ele>
        <time>2017-10-30T18:29:29Z</time>
      </trkpt>
      <trkpt lat="62.633556726499" lon="17.967958170868">
        <ele>73.4</ele>
        <time>2017-10-30T18:29:30Z</time>
      </trkpt>
      <trkpt lat="62.633550188617" lon="17.968019526376">
        <ele>73.4</ele>
        <time>2017-10-30T18:29:31Z</time>
      </trkpt>
      <trkpt lat="62.633545913848" lon="17.968070069233">
        <ele>73.6</ele>
        <time>2017-10-30T18:29:32Z</time>
      </trkpt>
      <trkpt lat="62.633537783405" lon="17.968130083637">
        <ele>73.8</ele>
        <time>2017-10-30T18:29:33Z</time>
      </trkpt>
      <trkpt lat="62.63353233517" lon="17.968184146892">
        <ele>74</ele>
        <time>2017-10-30T18:29:34Z</time>
      </trkpt>
      <trkpt lat="62.633525713469" lon="17.968238210147">
        <ele>74</ele>
        <time>2017-10-30T18:29:35Z</time>
      </trkpt>
      <trkpt lat="62.633518337397" lon="17.968294536515">
        <ele>74.2</ele>
        <time>2017-10-30T18:29:36Z</time>
      </trkpt>
      <trkpt lat="62.633512134791" lon="17.968349773236">
        <ele>74.2</ele>
        <time>2017-10-30T18:29:37Z</time>
      </trkpt>
      <trkpt lat="62.633505764547" lon="17.968406351061">
        <ele>74.4</ele>
        <time>2017-10-30T18:29:38Z</time>
      </trkpt>
      <trkpt lat="62.63349964576" lon="17.968462425972">
        <ele>74.6</ele>
        <time>2017-10-30T18:29:39Z</time>
      </trkpt>
      <trkpt lat="62.633492437326" lon="17.968513304105">
        <ele>74.6</ele>
        <time>2017-10-30T18:29:40Z</time>
      </trkpt>
      <trkpt lat="62.633485480349" lon="17.968572145043">
        <ele>75</ele>
        <time>2017-10-30T18:29:41Z</time>
      </trkpt>
      <trkpt lat="62.633478858648" lon="17.968634841655">
        <ele>75.4</ele>
        <time>2017-10-30T18:29:42Z</time>
      </trkpt>
      <trkpt lat="62.633468297454" lon="17.968686222702">
        <ele>75.6</ele>
        <time>2017-10-30T18:29:43Z</time>
      </trkpt>
      <trkpt lat="62.633460418468" lon="17.968740202138">
        <ele>76</ele>
        <time>2017-10-30T18:29:44Z</time>
      </trkpt>
      <trkpt lat="62.633452958577" lon="17.968792086099">
        <ele>76.2</ele>
        <time>2017-10-30T18:29:45Z</time>
      </trkpt>
      <trkpt lat="62.633444660496" lon="17.968846149354">
        <ele>76.4</ele>
        <time>2017-10-30T18:29:46Z</time>
      </trkpt>
      <trkpt lat="62.633436362415" lon="17.96890180517">
        <ele>76.6</ele>
        <time>2017-10-30T18:29:47Z</time>
      </trkpt>
      <trkpt lat="62.63343175237" lon="17.968957460986">
        <ele>76.8</ele>
        <time>2017-10-30T18:29:48Z</time>
      </trkpt>
      <trkpt lat="62.633425549764" lon="17.969012949164">
        <ele>77</ele>
        <time>2017-10-30T18:29:49Z</time>
      </trkpt>
      <trkpt lat="62.633417419321" lon="17.969065000763">
        <ele>77</ele>
        <time>2017-10-30T18:29:50Z</time>
      </trkpt>
      <trkpt lat="62.633411049077" lon="17.969124596072">
        <ele>77.2</ele>
        <time>2017-10-30T18:29:51Z</time>
      </trkpt>
      <trkpt lat="62.633404511195" lon="17.969186203037">
        <ele>77.4</ele>
        <time>2017-10-30T18:29:52Z</time>
      </trkpt>
      <trkpt lat="62.633401074616" lon="17.969238086998">
        <ele>77.4</ele>
        <time>2017-10-30T18:29:53Z</time>
      </trkpt>
      <trkpt lat="62.63339487201" lon="17.969302040895">
        <ele>77.6</ele>
        <time>2017-10-30T18:29:54Z</time>
      </trkpt>
      <trkpt lat="62.633390094327" lon="17.969352332295">
        <ele>77.8</ele>
        <time>2017-10-30T18:29:55Z</time>
      </trkpt>
      <trkpt lat="62.633386657748" lon="17.969414358355">
        <ele>77.8</ele>
        <time>2017-10-30T18:29:56Z</time>
      </trkpt>
      <trkpt lat="62.63338229916" lon="17.969471858189">
        <ele>78</ele>
        <time>2017-10-30T18:29:57Z</time>
      </trkpt>
      <trkpt lat="62.633377521477" lon="17.969523490693">
        <ele>78</ele>
        <time>2017-10-30T18:29:58Z</time>
      </trkpt>
      <trkpt lat="62.633369558672" lon="17.969578475957">
        <ele>78.4</ele>
        <time>2017-10-30T18:29:59Z</time>
      </trkpt>
      <trkpt lat="62.633352543415" lon="17.969619044353">
        <ele>78.6</ele>
        <time>2017-10-30T18:30:00Z</time>
      </trkpt>
      <trkpt lat="62.633327984448" lon="17.969644106234">
        <ele>78.6</ele>
        <time>2017-10-30T18:30:01Z</time>
      </trkpt>
      <trkpt lat="62.633302419653" lon="17.969663971337">
        <ele>79</ele>
        <time>2017-10-30T18:30:02Z</time>
      </trkpt>
      <trkpt lat="62.633278447419" lon="17.969685261363">
        <ele>79.2</ele>
        <time>2017-10-30T18:30:03Z</time>
      </trkpt>
      <trkpt lat="62.633252212072" lon="17.969692050702">
        <ele>79.6</ele>
        <time>2017-10-30T18:30:04Z</time>
      </trkpt>
      <trkpt lat="62.633226982553" lon="17.969694229996">
        <ele>79.6</ele>
        <time>2017-10-30T18:30:05Z</time>
      </trkpt>
      <trkpt lat="62.633198400274" lon="17.96969724748">
        <ele>79.8</ele>
        <time>2017-10-30T18:30:06Z</time>
      </trkpt>
      <trkpt lat="62.633169315081" lon="17.96970143843">
        <ele>79.8</ele>
        <time>2017-10-30T18:30:07Z</time>
      </trkpt>
      <trkpt lat="62.633142660639" lon="17.969702444258">
        <ele>79.6</ele>
        <time>2017-10-30T18:30:08Z</time>
      </trkpt>
      <trkpt lat="62.63311659293" lon="17.969705545561">
        <ele>79.6</ele>
        <time>2017-10-30T18:30:09Z</time>
      </trkpt>
      <trkpt lat="62.633091279592" lon="17.969705713199">
        <ele>79.6</ele>
        <time>2017-10-30T18:30:10Z</time>
      </trkpt>
      <trkpt lat="62.633060601838" lon="17.969702695715">
        <ele>79.4</ele>
        <time>2017-10-30T18:30:11Z</time>
      </trkpt>
      <trkpt lat="62.633029169713" lon="17.969698253308">
        <ele>79.4</ele>
        <time>2017-10-30T18:30:12Z</time>
      </trkpt>
      <trkpt lat="62.633002012357" lon="17.969698001851">
        <ele>79.4</ele>
        <time>2017-10-30T18:30:13Z</time>
      </trkpt>
      <trkpt lat="62.63297493882" lon="17.969696325471">
        <ele>79.4</ele>
        <time>2017-10-30T18:30:14Z</time>
      </trkpt>
      <trkpt lat="62.632948535835" lon="17.969691463969">
        <ele>79.4</ele>
        <time>2017-10-30T18:30:15Z</time>
      </trkpt>
      <trkpt lat="62.63292213285" lon="17.969684506992">
        <ele>79.2</ele>
        <time>2017-10-30T18:30:16Z</time>
      </trkpt>
      <trkpt lat="62.63289363439" lon="17.96968299825">
        <ele>79.2</ele>
        <time>2017-10-30T18:30:17Z</time>
      </trkpt>
      <trkpt lat="62.632861699351" lon="17.969677047101">
        <ele>79.2</ele>
        <time>2017-10-30T18:30:18Z</time>
      </trkpt>
      <trkpt lat="62.632833871443" lon="17.969678555843">
        <ele>79.2</ele>
        <time>2017-10-30T18:30:19Z</time>
      </trkpt>
      <trkpt lat="62.632806965544" lon="17.96967545454">
        <ele>79</ele>
        <time>2017-10-30T18:30:20Z</time>
      </trkpt>
      <trkpt lat="62.632779724369" lon="17.969669922486">
        <ele>79</ele>
        <time>2017-10-30T18:30:21Z</time>
      </trkpt>
      <trkpt lat="62.632749633348" lon="17.969668832839">
        <ele>79</ele>
        <time>2017-10-30T18:30:22Z</time>
      </trkpt>
      <trkpt lat="62.632717782128" lon="17.969663300785">
        <ele>78.8</ele>
        <time>2017-10-30T18:30:23Z</time>
      </trkpt>
      <trkpt lat="62.632687774926" lon="17.96965701436">
        <ele>78.8</ele>
        <time>2017-10-30T18:30:24Z</time>
      </trkpt>
      <trkpt lat="62.632660366113" lon="17.969658271645">
        <ele>78.6</ele>
        <time>2017-10-30T18:30:25Z</time>
      </trkpt>
      <trkpt lat="62.632628933988" lon="17.969656930541">
        <ele>78.6</ele>
        <time>2017-10-30T18:30:26Z</time>
      </trkpt>
      <trkpt lat="62.632599848795" lon="17.96965785255">
        <ele>78.4</ele>
        <time>2017-10-30T18:30:27Z</time>
      </trkpt>
      <trkpt lat="62.632569003403" lon="17.969649805926">
        <ele>78.4</ele>
        <time>2017-10-30T18:30:28Z</time>
      </trkpt>
      <trkpt lat="62.632541846047" lon="17.96964947065">
        <ele>78.2</ele>
        <time>2017-10-30T18:30:29Z</time>
      </trkpt>
      <trkpt lat="62.632511838845" lon="17.969644022415">
        <ele>78.2</ele>
        <time>2017-10-30T18:30:30Z</time>
      </trkpt>
      <trkpt lat="62.632479903806" lon="17.969644944424">
        <ele>78.2</ele>
        <time>2017-10-30T18:30:31Z</time>
      </trkpt>
      <trkpt lat="62.632449728966" lon="17.969643519501">
        <ele>78.2</ele>
        <time>2017-10-30T18:30:32Z</time>
      </trkpt>
      <trkpt lat="62.632416620461" lon="17.969641591664">
        <ele>78.2</ele>
        <time>2017-10-30T18:30:33Z</time>
      </trkpt>
      <trkpt lat="62.632384601603" lon="17.969644609148">
        <ele>78.2</ele>
        <time>2017-10-30T18:30:34Z</time>
      </trkpt>
      <trkpt lat="62.632355097315" lon="17.969644860605">
        <ele>78.2</ele>
        <time>2017-10-30T18:30:35Z</time>
      </trkpt>
      <trkpt lat="62.632324168104" lon="17.969648045727">
        <ele>78.2</ele>
        <time>2017-10-30T18:30:36Z</time>
      </trkpt>
      <trkpt lat="62.632293071255" lon="17.969645866433">
        <ele>78.4</ele>
        <time>2017-10-30T18:30:37Z</time>
      </trkpt>
      <trkpt lat="62.632263483148" lon="17.969645698795">
        <ele>78.2</ele>
        <time>2017-10-30T18:30:38Z</time>
      </trkpt>
      <trkpt lat="62.632235571421" lon="17.969653242505">
        <ele>78.2</ele>
        <time>2017-10-30T18:30:39Z</time>
      </trkpt>
      <trkpt lat="62.632209587531" lon="17.969663887518">
        <ele>78.2</ele>
        <time>2017-10-30T18:30:40Z</time>
      </trkpt>
      <trkpt lat="62.632180837614" lon="17.969665647717">
        <ele>78</ele>
        <time>2017-10-30T18:30:41Z</time>
      </trkpt>
      <trkpt lat="62.632150243679" lon="17.969666821183">
        <ele>78</ele>
        <time>2017-10-30T18:30:42Z</time>
      </trkpt>
      <trkpt lat="62.63211914683" lon="17.969670006305">
        <ele>78.2</ele>
        <time>2017-10-30T18:30:43Z</time>
      </trkpt>
      <trkpt lat="62.632092157112" lon="17.969672269418">
        <ele>78</ele>
        <time>2017-10-30T18:30:44Z</time>
      </trkpt>
      <trkpt lat="62.632060641168" lon="17.969677047101">
        <ele>78.2</ele>
        <time>2017-10-30T18:30:45Z</time>
      </trkpt>
      <trkpt lat="62.632030466328" lon="17.969679896947">
        <ele>78.2</ele>
        <time>2017-10-30T18:30:46Z</time>
      </trkpt>
      <trkpt lat="62.63200012385" lon="17.96968132187">
        <ele>78.2</ele>
        <time>2017-10-30T18:30:47Z</time>
      </trkpt>
      <trkpt lat="62.631968775544" lon="17.969682830612">
        <ele>78.2</ele>
        <time>2017-10-30T18:30:48Z</time>
      </trkpt>
      <trkpt lat="62.631935750858" lon="17.969691128693">
        <ele>78.2</ele>
        <time>2017-10-30T18:30:49Z</time>
      </trkpt>
      <trkpt lat="62.631903648181" lon="17.969693643263">
        <ele>78.2</ele>
        <time>2017-10-30T18:30:50Z</time>
      </trkpt>
      <trkpt lat="62.631869198572" lon="17.969694900548">
        <ele>78</ele>
        <time>2017-10-30T18:30:51Z</time>
      </trkpt>
      <trkpt lat="62.63184002956" lon="17.969692050702">
        <ele>78</ele>
        <time>2017-10-30T18:30:52Z</time>
      </trkpt>
      <trkpt lat="62.631804657942" lon="17.96969976205">
        <ele>78</ele>
        <time>2017-10-30T18:30:53Z</time>
      </trkpt>
      <trkpt lat="62.631775405111" lon="17.969721806447">
        <ele>78</ele>
        <time>2017-10-30T18:30:54Z</time>
      </trkpt>
      <trkpt lat="62.63174866685" lon="17.969754160581">
        <ele>77.8</ele>
        <time>2017-10-30T18:30:55Z</time>
      </trkpt>
      <trkpt lat="62.631719916933" lon="17.969788945466">
        <ele>77.8</ele>
        <time>2017-10-30T18:30:56Z</time>
      </trkpt>
      <trkpt lat="62.631693262491" lon="17.969811408958">
        <ele>77.6</ele>
        <time>2017-10-30T18:30:57Z</time>
      </trkpt>
      <trkpt lat="62.631670882818" lon="17.969832950441">
        <ele>77.6</ele>
        <time>2017-10-30T18:30:58Z</time>
      </trkpt>
      <trkpt lat="62.63164473129" lon="17.969856084485">
        <ele>77.6</ele>
        <time>2017-10-30T18:30:59Z</time>
      </trkpt>
      <trkpt lat="62.631621345789" lon="17.969867567688">
        <ele>77.6</ele>
        <time>2017-10-30T18:31:00Z</time>
      </trkpt>
      <trkpt lat="62.631596032451" lon="17.969883996212">
        <ele>77.6</ele>
        <time>2017-10-30T18:31:01Z</time>
      </trkpt>
      <trkpt lat="62.631571054389" lon="17.96989757489">
        <ele>77.6</ele>
        <time>2017-10-30T18:31:02Z</time>
      </trkpt>
      <trkpt lat="62.631545070499" lon="17.969904699505">
        <ele>77.8</ele>
        <time>2017-10-30T18:31:03Z</time>
      </trkpt>
      <trkpt lat="62.631517410229" lon="17.969912159396">
        <ele>78</ele>
        <time>2017-10-30T18:31:04Z</time>
      </trkpt>
      <trkpt lat="62.631494862918" lon="17.969924564608">
        <ele>78.2</ele>
        <time>2017-10-30T18:31:05Z</time>
      </trkpt>
      <trkpt lat="62.631467705562" lon="17.969940574037">
        <ele>78.2</ele>
        <time>2017-10-30T18:31:06Z</time>
      </trkpt>
      <trkpt lat="62.631440045292" lon="17.969952308697">
        <ele>78.6</ele>
        <time>2017-10-30T18:31:07Z</time>
      </trkpt>
      <trkpt lat="62.631417917076" lon="17.969963708081">
        <ele>78.6</ele>
        <time>2017-10-30T18:31:08Z</time>
      </trkpt>
      <trkpt lat="62.631387155503" lon="17.969972844352">
        <ele>78.6</ele>
        <time>2017-10-30T18:31:09Z</time>
      </trkpt>
      <trkpt lat="62.631364189097" lon="17.969977705854">
        <ele>78.6</ele>
        <time>2017-10-30T18:31:10Z</time>
      </trkpt>
      <trkpt lat="62.631331332049" lon="17.969991116894">
        <ele>78.6</ele>
        <time>2017-10-30T18:31:11Z</time>
      </trkpt>
      <trkpt lat="62.631299983743" lon="17.970005366124">
        <ele>78.6</ele>
        <time>2017-10-30T18:31:12Z</time>
      </trkpt>
      <trkpt lat="62.631275676233" lon="17.970027410521">
        <ele>78.6</ele>
        <time>2017-10-30T18:31:13Z</time>
      </trkpt>
      <trkpt lat="62.631245920488" lon="17.970037804077">
        <ele>78.8</ele>
        <time>2017-10-30T18:31:14Z</time>
      </trkpt>
      <trkpt lat="62.631222367349" lon="17.970049203461">
        <ele>78.8</ele>
        <time>2017-10-30T18:31:15Z</time>
      </trkpt>
      <trkpt lat="62.631195293812" lon="17.970065296709">
        <ele>78.8</ele>
        <time>2017-10-30T18:31:16Z</time>
      </trkpt>
      <trkpt lat="62.63116863937" lon="17.97007778574">
        <ele>79</ele>
        <time>2017-10-30T18:31:17Z</time>
      </trkpt>
      <trkpt lat="62.631136117598" lon="17.970095639187">
        <ele>78.8</ele>
        <time>2017-10-30T18:31:18Z</time>
      </trkpt>
      <trkpt lat="62.631106948586" lon="17.970103099078">
        <ele>79</ele>
        <time>2017-10-30T18:31:19Z</time>
      </trkpt>
      <trkpt lat="62.631057495376" lon="17.97012053343">
        <ele>78.8</ele>
        <time>2017-10-30T18:31:21Z</time>
      </trkpt>
      <trkpt lat="62.631035450979" lon="17.970117432127">
        <ele>79</ele>
        <time>2017-10-30T18:31:22Z</time>
      </trkpt>
      <trkpt lat="62.631019273912" lon="17.970110391331">
        <ele>79.2</ele>
        <time>2017-10-30T18:31:23Z</time>
      </trkpt>
      <trkpt lat="62.631004857044" lon="17.970099997775">
        <ele>79.2</ele>
        <time>2017-10-30T18:31:24Z</time>
      </trkpt>
      <trkpt lat="62.630991194547" lon="17.970084910355">
        <ele>79.4</ele>
        <time>2017-10-30T18:31:25Z</time>
      </trkpt>
      <trkpt lat="62.630978705516" lon="17.970051718031">
        <ele>79.6</ele>
        <time>2017-10-30T18:31:26Z</time>
      </trkpt>
      <trkpt lat="62.630968563417" lon="17.970021040277">
        <ele>79.6</ele>
        <time>2017-10-30T18:31:27Z</time>
      </trkpt>
      <trkpt lat="62.630959762422" lon="17.970001929545">
        <ele>79.8</ele>
        <time>2017-10-30T18:31:28Z</time>
      </trkpt>
      <trkpt lat="62.630954230368" lon="17.969966138832">
        <ele>79.8</ele>
        <time>2017-10-30T18:31:29Z</time>
      </trkpt>
      <trkpt lat="62.630950039418" lon="17.969957170199">
        <ele>79.8</ele>
        <time>2017-10-30T18:31:30Z</time>
      </trkpt>
      <trkpt lat="62.630943669174" lon="17.969929593748">
        <ele>79.6</ele>
        <time>2017-10-30T18:31:31Z</time>
      </trkpt>
      <trkpt lat="62.630935538731" lon="17.969897826347">
        <ele>79.4</ele>
        <time>2017-10-30T18:31:32Z</time>
      </trkpt>
      <trkpt lat="62.630928749392" lon="17.969864466385">
        <ele>79.2</ele>
        <time>2017-10-30T18:31:33Z</time>
      </trkpt>
      <trkpt lat="62.630920786587" lon="17.969835465011">
        <ele>78.8</ele>
        <time>2017-10-30T18:31:34Z</time>
      </trkpt>
      <trkpt lat="62.630917350008" lon="17.969806044542">
        <ele>78.6</ele>
        <time>2017-10-30T18:31:35Z</time>
      </trkpt>
      <trkpt lat="62.630910057755" lon="17.969778300453">
        <ele>78.6</ele>
        <time>2017-10-30T18:31:36Z</time>
      </trkpt>
      <trkpt lat="62.630905615348" lon="17.969752232744">
        <ele>78.4</ele>
        <time>2017-10-30T18:31:37Z</time>
      </trkpt>
      <trkpt lat="62.630894635059" lon="17.969716442031">
        <ele>78.4</ele>
        <time>2017-10-30T18:31:38Z</time>
      </trkpt>
      <trkpt lat="62.630887258987" lon="17.969682411517">
        <ele>78.2</ele>
        <time>2017-10-30T18:31:39Z</time>
      </trkpt>
      <trkpt lat="62.630879212363" lon="17.969656008532">
        <ele>78</ele>
        <time>2017-10-30T18:31:40Z</time>
      </trkpt>
      <trkpt lat="62.630870579006" lon="17.96962181038">
        <ele>78</ele>
        <time>2017-10-30T18:31:41Z</time>
      </trkpt>
      <trkpt lat="62.630862364744" lon="17.96958576821">
        <ele>77.8</ele>
        <time>2017-10-30T18:31:42Z</time>
      </trkpt>
      <trkpt lat="62.630852809378" lon="17.969552743524">
        <ele>77.6</ele>
        <time>2017-10-30T18:31:43Z</time>
      </trkpt>
      <trkpt lat="62.630846606772" lon="17.96951871301">
        <ele>77.4</ele>
        <time>2017-10-30T18:31:44Z</time>
      </trkpt>
      <trkpt lat="62.630840487985" lon="17.96948937636">
        <ele>77.4</ele>
        <time>2017-10-30T18:31:45Z</time>
      </trkpt>
      <trkpt lat="62.630837805777" lon="17.969455262027">
        <ele>77.2</ele>
        <time>2017-10-30T18:31:46Z</time>
      </trkpt>
      <trkpt lat="62.630835207388" lon="17.969425171006">
        <ele>77</ele>
        <time>2017-10-30T18:31:47Z</time>
      </trkpt>
      <trkpt lat="62.630832692818" lon="17.969391140492">
        <ele>76.8</ele>
        <time>2017-10-30T18:31:48Z</time>
      </trkpt>
      <trkpt lat="62.630824897651" lon="17.969366916801">
        <ele>76.6</ele>
        <time>2017-10-30T18:31:49Z</time>
      </trkpt>
      <trkpt lat="62.630821963986" lon="17.969338921255">
        <ele>76.4</ele>
        <time>2017-10-30T18:31:50Z</time>
      </trkpt>
      <trkpt lat="62.630819700873" lon="17.969309081691">
        <ele>76.2</ele>
        <time>2017-10-30T18:31:51Z</time>
      </trkpt>
      <trkpt lat="62.630814001181" lon="17.969281337602">
        <ele>76</ele>
        <time>2017-10-30T18:31:52Z</time>
      </trkpt>
      <trkpt lat="62.630810899878" lon="17.969249570201">
        <ele>75.8</ele>
        <time>2017-10-30T18:31:53Z</time>
      </trkpt>
      <trkpt lat="62.630806457471" lon="17.969220401189">
        <ele>75.8</ele>
        <time>2017-10-30T18:31:54Z</time>
      </trkpt>
      <trkpt lat="62.630803775263" lon="17.969194584937">
        <ele>75.6</ele>
        <time>2017-10-30T18:31:55Z</time>
      </trkpt>
      <trkpt lat="62.63079899758" lon="17.9691591295">
        <ele>75.6</ele>
        <time>2017-10-30T18:31:56Z</time>
      </trkpt>
      <trkpt lat="62.630795561001" lon="17.96913063104">
        <ele>75.4</ele>
        <time>2017-10-30T18:31:57Z</time>
      </trkpt>
      <trkpt lat="62.630791872965" lon="17.969099785648">
        <ele>75.2</ele>
        <time>2017-10-30T18:31:58Z</time>
      </trkpt>
      <trkpt lat="62.630787514377" lon="17.969066509505">
        <ele>75</ele>
        <time>2017-10-30T18:31:59Z</time>
      </trkpt>
      <trkpt lat="62.6307805574" lon="17.96903675376">
        <ele>75</ele>
        <time>2017-10-30T18:32:00Z</time>
      </trkpt>
      <trkpt lat="62.630776785545" lon="17.969004818721">
        <ele>74.8</ele>
        <time>2017-10-30T18:32:01Z</time>
      </trkpt>
      <trkpt lat="62.630770834396" lon="17.968976739356">
        <ele>74.6</ele>
        <time>2017-10-30T18:32:02Z</time>
      </trkpt>
      <trkpt lat="62.6307637936" lon="17.968946061602">
        <ele>74.4</ele>
        <time>2017-10-30T18:32:03Z</time>
      </trkpt>
      <trkpt lat="62.630757507175" lon="17.96891521621">
        <ele>74.4</ele>
        <time>2017-10-30T18:32:04Z</time>
      </trkpt>
      <trkpt lat="62.630753400044" lon="17.968887304483">
        <ele>74.2</ele>
        <time>2017-10-30T18:32:05Z</time>
      </trkpt>
      <trkpt lat="62.630745856334" lon="17.968853525426">
        <ele>74</ele>
        <time>2017-10-30T18:32:06Z</time>
      </trkpt>
      <trkpt lat="62.630740491918" lon="17.96882720626">
        <ele>74</ele>
        <time>2017-10-30T18:32:07Z</time>
      </trkpt>
      <trkpt lat="62.630734037855" lon="17.968800719456">
        <ele>73.8</ele>
        <time>2017-10-30T18:32:08Z</time>
      </trkpt>
      <trkpt lat="62.630726577964" lon="17.968776495765">
        <ele>73.6</ele>
        <time>2017-10-30T18:32:09Z</time>
      </trkpt>
      <trkpt lat="62.630718028426" lon="17.968757720309">
        <ele>73.4</ele>
        <time>2017-10-30T18:32:10Z</time>
      </trkpt>
      <trkpt lat="62.63071182582" lon="17.968738022844">
        <ele>73.2</ele>
        <time>2017-10-30T18:32:11Z</time>
      </trkpt>
      <trkpt lat="62.63070344392" lon="17.968709608203">
        <ele>73</ele>
        <time>2017-10-30T18:32:12Z</time>
      </trkpt>
      <trkpt lat="62.630692715088" lon="17.968684881598">
        <ele>72.6</ele>
        <time>2017-10-30T18:32:13Z</time>
      </trkpt>
      <trkpt lat="62.63068248917" lon="17.968669710359">
        <ele>72.4</ele>
        <time>2017-10-30T18:32:14Z</time>
      </trkpt>
      <trkpt lat="62.630674694003" lon="17.968646241039">
        <ele>72.2</ele>
        <time>2017-10-30T18:32:15Z</time>
      </trkpt>
      <trkpt lat="62.63066656356" lon="17.968621598253">
        <ele>72</ele>
        <time>2017-10-30T18:32:16Z</time>
      </trkpt>
      <trkpt lat="62.630661702058" lon="17.968605505005">
        <ele>72</ele>
        <time>2017-10-30T18:32:17Z</time>
      </trkpt>
      <trkpt lat="62.630653236339" lon="17.96858748392">
        <ele>72</ele>
        <time>2017-10-30T18:32:18Z</time>
      </trkpt>
      <trkpt lat="62.630643010421" lon="17.968568708464">
        <ele>71.8</ele>
        <time>2017-10-30T18:32:19Z</time>
      </trkpt>
      <trkpt lat="62.630635382892" lon="17.968551525569">
        <ele>71.6</ele>
        <time>2017-10-30T18:32:20Z</time>
      </trkpt>
      <trkpt lat="62.630623899689" lon="17.968529062077">
        <ele>71.6</ele>
        <time>2017-10-30T18:32:21Z</time>
      </trkpt>
      <trkpt lat="62.630622474766" lon="17.968500395979">
        <ele>71.4</ele>
        <time>2017-10-30T18:32:22Z</time>
      </trkpt>
      <trkpt lat="62.630609399002" lon="17.968483967455">
        <ele>71.2</ele>
        <time>2017-10-30T18:32:23Z</time>
      </trkpt>
      <trkpt lat="62.630600765645" lon="17.96846259361">
        <ele>71</ele>
        <time>2017-10-30T18:32:24Z</time>
      </trkpt>
      <trkpt lat="62.630592551383" lon="17.968443985792">
        <ele>71</ele>
        <time>2017-10-30T18:32:25Z</time>
      </trkpt>
      <trkpt lat="62.630580649085" lon="17.968418840092">
        <ele>70.8</ele>
        <time>2017-10-30T18:32:26Z</time>
      </trkpt>
      <trkpt lat="62.630569752615" lon="17.968392604745">
        <ele>70.6</ele>
        <time>2017-10-30T18:32:27Z</time>
      </trkpt>
      <trkpt lat="62.630561119258" lon="17.968362597543">
        <ele>70.6</ele>
        <time>2017-10-30T18:32:28Z</time>
      </trkpt>
      <trkpt lat="62.630548714046" lon="17.96832596864">
        <ele>70.4</ele>
        <time>2017-10-30T18:32:29Z</time>
      </trkpt>
      <trkpt lat="62.630538069033" lon="17.968290345565">
        <ele>70.2</ele>
        <time>2017-10-30T18:32:30Z</time>
      </trkpt>
      <trkpt lat="62.630525160907" lon="17.968249525712">
        <ele>70</ele>
        <time>2017-10-30T18:32:31Z</time>
      </trkpt>
      <trkpt lat="62.630512420419" lon="17.968199569588">
        <ele>69.8</ele>
        <time>2017-10-30T18:32:32Z</time>
      </trkpt>
      <trkpt lat="62.630500853397" lon="17.968152798586">
        <ele>69.6</ele>
        <time>2017-10-30T18:32:33Z</time>
      </trkpt>
      <trkpt lat="62.630489454013" lon="17.968111894914">
        <ele>69.4</ele>
        <time>2017-10-30T18:32:34Z</time>
      </trkpt>
      <trkpt lat="62.630481155932" lon="17.968065459188">
        <ele>69.2</ele>
        <time>2017-10-30T18:32:35Z</time>
      </trkpt>
      <trkpt lat="62.630471097652" lon="17.968005444784">
        <ele>69</ele>
        <time>2017-10-30T18:32:36Z</time>
      </trkpt>
      <trkpt lat="62.630463218666" lon="17.96794710676">
        <ele>68.8</ele>
        <time>2017-10-30T18:32:37Z</time>
      </trkpt>
      <trkpt lat="62.63045701606" lon="17.967896396265">
        <ele>68.4</ele>
        <time>2017-10-30T18:32:38Z</time>
      </trkpt>
      <trkpt lat="62.630451819282" lon="17.96784233301">
        <ele>68.4</ele>
        <time>2017-10-30T18:32:39Z</time>
      </trkpt>
      <trkpt lat="62.630447376875" lon="17.967794639999">
        <ele>68.2</ele>
        <time>2017-10-30T18:32:40Z</time>
      </trkpt>
      <trkpt lat="62.630440168441" lon="17.967731356654">
        <ele>68</ele>
        <time>2017-10-30T18:32:41Z</time>
      </trkpt>
      <trkpt lat="62.630436731862" lon="17.967673605363">
        <ele>67.8</ele>
        <time>2017-10-30T18:32:42Z</time>
      </trkpt>
      <trkpt lat="62.630433211464" lon="17.967619039194">
        <ele>67.4</ele>
        <time>2017-10-30T18:32:43Z</time>
      </trkpt>
      <trkpt lat="62.630429271971" lon="17.967563299559">
        <ele>67.2</ele>
        <time>2017-10-30T18:32:44Z</time>
      </trkpt>
      <trkpt lat="62.63043019398" lon="17.967508062838">
        <ele>67</ele>
        <time>2017-10-30T18:32:45Z</time>
      </trkpt>
      <trkpt lat="62.630427511772" lon="17.967460705103">
        <ele>66.6</ele>
        <time>2017-10-30T18:32:46Z</time>
      </trkpt>
      <trkpt lat="62.630430613075" lon="17.9674073124">
        <ele>66.6</ele>
        <time>2017-10-30T18:32:47Z</time>
      </trkpt>
      <trkpt lat="62.630431954179" lon="17.967347465634">
        <ele>66.4</ele>
        <time>2017-10-30T18:32:48Z</time>
      </trkpt>
      <trkpt lat="62.630432205636" lon="17.967293905293">
        <ele>66</ele>
        <time>2017-10-30T18:32:49Z</time>
      </trkpt>
      <trkpt lat="62.630431702722" lon="17.967241853694">
        <ele>66</ele>
        <time>2017-10-30T18:32:50Z</time>
      </trkpt>
      <trkpt lat="62.630433043826" lon="17.967180749643">
        <ele>65.4</ele>
        <time>2017-10-30T18:32:51Z</time>
      </trkpt>
      <trkpt lat="62.63043438493" lon="17.967126686388">
        <ele>65</ele>
        <time>2017-10-30T18:32:52Z</time>
      </trkpt>
      <trkpt lat="62.630437150957" lon="17.967081591766">
        <ele>64.6</ele>
        <time>2017-10-30T18:32:53Z</time>
      </trkpt>
      <trkpt lat="62.630441341907" lon="17.967029204891">
        <ele>64</ele>
        <time>2017-10-30T18:32:54Z</time>
      </trkpt>
      <trkpt lat="62.630444694667" lon="17.966983774993">
        <ele>63.8</ele>
        <time>2017-10-30T18:32:55Z</time>
      </trkpt>
      <trkpt lat="62.630449639988" lon="17.966926023702">
        <ele>63.6</ele>
        <time>2017-10-30T18:32:56Z</time>
      </trkpt>
      <trkpt lat="62.630451903101" lon="17.966876821949">
        <ele>63.2</ele>
        <time>2017-10-30T18:32:57Z</time>
      </trkpt>
      <trkpt lat="62.630455255861" lon="17.966825692359">
        <ele>63</ele>
        <time>2017-10-30T18:32:58Z</time>
      </trkpt>
      <trkpt lat="62.630456764603" lon="17.966773892217">
        <ele>62.6</ele>
        <time>2017-10-30T18:32:59Z</time>
      </trkpt>
      <trkpt lat="62.630459949725" lon="17.966727372672">
        <ele>62.6</ele>
        <time>2017-10-30T18:33:00Z</time>
      </trkpt>
      <trkpt lat="62.630462296657" lon="17.966667106811">
        <ele>62.2</ele>
        <time>2017-10-30T18:33:01Z</time>
      </trkpt>
      <trkpt lat="62.630463973037" lon="17.966618827067">
        <ele>61.8</ele>
        <time>2017-10-30T18:33:02Z</time>
      </trkpt>
      <trkpt lat="62.630468331625" lon="17.966573983902">
        <ele>61.6</ele>
        <time>2017-10-30T18:33:03Z</time>
      </trkpt>
      <trkpt lat="62.630470762376" lon="17.966526123253">
        <ele>61.2</ele>
        <time>2017-10-30T18:33:04Z</time>
      </trkpt>
      <trkpt lat="62.630473947498" lon="17.96647943607">
        <ele>61.2</ele>
        <time>2017-10-30T18:33:05Z</time>
      </trkpt>
      <trkpt lat="62.630476713525" lon="17.966429479946">
        <ele>60.8</ele>
        <time>2017-10-30T18:33:06Z</time>
      </trkpt>
      <trkpt lat="62.630482413217" lon="17.966388743912">
        <ele>60.6</ele>
        <time>2017-10-30T18:33:07Z</time>
      </trkpt>
      <trkpt lat="62.63048467633" lon="17.966336021761">
        <ele>60.4</ele>
        <time>2017-10-30T18:33:08Z</time>
      </trkpt>
      <trkpt lat="62.630486520348" lon="17.966286149456">
        <ele>60.2</ele>
        <time>2017-10-30T18:33:09Z</time>
      </trkpt>
      <trkpt lat="62.630486101253" lon="17.966242563576">
        <ele>60</ele>
        <time>2017-10-30T18:33:10Z</time>
      </trkpt>
      <trkpt lat="62.630488699642" lon="17.966184728466">
        <ele>59.8</ele>
        <time>2017-10-30T18:33:11Z</time>
      </trkpt>
      <trkpt lat="62.63049473461" lon="17.966133682695">
        <ele>59.6</ele>
        <time>2017-10-30T18:33:12Z</time>
      </trkpt>
      <trkpt lat="62.630499512293" lon="17.96608800134">
        <ele>59.4</ele>
        <time>2017-10-30T18:33:13Z</time>
      </trkpt>
      <trkpt lat="62.63050227832" lon="17.966042152347">
        <ele>59.2</ele>
        <time>2017-10-30T18:33:14Z</time>
      </trkpt>
      <trkpt lat="62.630503619424" lon="17.96599747682">
        <ele>59</ele>
        <time>2017-10-30T18:33:15Z</time>
      </trkpt>
      <trkpt lat="62.630503870881" lon="17.965948275067">
        <ele>58.8</ele>
        <time>2017-10-30T18:33:16Z</time>
      </trkpt>
      <trkpt lat="62.630504289976" lon="17.965902845169">
        <ele>58.4</ele>
        <time>2017-10-30T18:33:17Z</time>
      </trkpt>
      <trkpt lat="62.630507391279" lon="17.965851715579">
        <ele>58.2</ele>
        <time>2017-10-30T18:33:18Z</time>
      </trkpt>
      <trkpt lat="62.630509486754" lon="17.965802094731">
        <ele>58</ele>
        <time>2017-10-30T18:33:19Z</time>
      </trkpt>
      <trkpt lat="62.630511163134" lon="17.965756664833">
        <ele>57.8</ele>
        <time>2017-10-30T18:33:20Z</time>
      </trkpt>
      <trkpt lat="62.630509989668" lon="17.965697320981">
        <ele>57.6</ele>
        <time>2017-10-30T18:33:21Z</time>
      </trkpt>
      <trkpt lat="62.630507978012" lon="17.965645688477">
        <ele>57.4</ele>
        <time>2017-10-30T18:33:22Z</time>
      </trkpt>
      <trkpt lat="62.63050982203" lon="17.965596235267">
        <ele>57.4</ele>
        <time>2017-10-30T18:33:23Z</time>
      </trkpt>
      <trkpt lat="62.630510995496" lon="17.965538483976">
        <ele>57.2</ele>
        <time>2017-10-30T18:33:24Z</time>
      </trkpt>
      <trkpt lat="62.63051066022" lon="17.965485258911">
        <ele>57.2</ele>
        <time>2017-10-30T18:33:25Z</time>
      </trkpt>
      <trkpt lat="62.630528848943" lon="17.965465896722">
        <ele>57</ele>
        <time>2017-10-30T18:33:26Z</time>
      </trkpt>
      <trkpt lat="62.630536560291" lon="17.965439829013">
        <ele>56.8</ele>
        <time>2017-10-30T18:33:27Z</time>
      </trkpt>
      <trkpt lat="62.630544020182" lon="17.965425412145">
        <ele>56.6</ele>
        <time>2017-10-30T18:33:28Z</time>
      </trkpt>
      <trkpt lat="62.630551396254" lon="17.965421891747">
        <ele>56.4</ele>
        <time>2017-10-30T18:33:30Z</time>
      </trkpt>
      <trkpt lat="62.630546618571" lon="17.965425998878">
        <ele>56.4</ele>
        <time>2017-10-30T18:33:31Z</time>
      </trkpt>
      <trkpt lat="62.630592216107" lon="17.965423568127">
        <ele>56.4</ele>
        <time>2017-10-30T18:33:33Z</time>
      </trkpt>
      <trkpt lat="62.630622223309" lon="17.965430692742">
        <ele>56.4</ele>
        <time>2017-10-30T18:33:34Z</time>
      </trkpt>
      <trkpt lat="62.630655918547" lon="17.965439912832">
        <ele>56.6</ele>
        <time>2017-10-30T18:33:35Z</time>
      </trkpt>
      <trkpt lat="62.630691206346" lon="17.965448127094">
        <ele>56.6</ele>
        <time>2017-10-30T18:33:36Z</time>
      </trkpt>
      <trkpt lat="62.63072775143" lon="17.965464807075">
        <ele>56.6</ele>
        <time>2017-10-30T18:33:37Z</time>
      </trkpt>
      <trkpt lat="62.63075960265" lon="17.965480984142">
        <ele>56.4</ele>
        <time>2017-10-30T18:33:38Z</time>
      </trkpt>
      <trkpt lat="62.630796985924" lon="17.965499172865">
        <ele>56.4</ele>
        <time>2017-10-30T18:33:39Z</time>
      </trkpt>
      <trkpt lat="62.630822718357" lon="17.965507890041">
        <ele>56.6</ele>
        <time>2017-10-30T18:33:40Z</time>
      </trkpt>
      <trkpt lat="62.630864879314" lon="17.96552222309">
        <ele>56.6</ele>
        <time>2017-10-30T18:33:41Z</time>
      </trkpt>
      <trkpt lat="62.630897484905" lon="17.965520714348">
        <ele>57</ele>
        <time>2017-10-30T18:33:42Z</time>
      </trkpt>
      <trkpt lat="62.630933275618" lon="17.965508057679">
        <ele>57.4</ele>
        <time>2017-10-30T18:33:43Z</time>
      </trkpt>
      <trkpt lat="62.630968228141" lon="17.965487186748">
        <ele>57.8</ele>
        <time>2017-10-30T18:33:44Z</time>
      </trkpt>
      <trkpt lat="62.630993625298" lon="17.96546354979">
        <ele>57.8</ele>
        <time>2017-10-30T18:33:45Z</time>
      </trkpt>
      <trkpt lat="62.631027236717" lon="17.965434883692">
        <ele>57.8</ele>
        <time>2017-10-30T18:33:46Z</time>
      </trkpt>
      <trkpt lat="62.63105548372" lon="17.965403703024">
        <ele>58</ele>
        <time>2017-10-30T18:33:47Z</time>
      </trkpt>
      <trkpt lat="62.631085155646" lon="17.965375875116">
        <ele>58</ele>
        <time>2017-10-30T18:33:48Z</time>
      </trkpt>
      <trkpt lat="62.631135195589" lon="17.965333965616">
        <ele>57.8</ele>
        <time>2017-10-30T18:33:50Z</time>
      </trkpt>
      <trkpt lat="62.631168807008" lon="17.965341090231">
        <ele>58</ele>
        <time>2017-10-30T18:33:51Z</time>
      </trkpt>
      <trkpt lat="62.631196970192" lon="17.965365816836">
        <ele>58.2</ele>
        <time>2017-10-30T18:33:52Z</time>
      </trkpt>
      <trkpt lat="62.631223624634" lon="17.965395907857">
        <ele>58.2</ele>
        <time>2017-10-30T18:33:53Z</time>
      </trkpt>
      <trkpt lat="62.631250614352" lon="17.965424657774">
        <ele>58.2</ele>
        <time>2017-10-30T18:33:54Z</time>
      </trkpt>
      <trkpt lat="62.63127425131" lon="17.965451563673">
        <ele>58.6</ele>
        <time>2017-10-30T18:33:55Z</time>
      </trkpt>
      <trkpt lat="62.631302665951" lon="17.965486097101">
        <ele>58.6</ele>
        <time>2017-10-30T18:33:56Z</time>
      </trkpt>
      <trkpt lat="62.631329236574" lon="17.965514427923">
        <ele>58.8</ele>
        <time>2017-10-30T18:33:57Z</time>
      </trkpt>
      <trkpt lat="62.631354801369" lon="17.965541669098">
        <ele>58.8</ele>
        <time>2017-10-30T18:33:58Z</time>
      </trkpt>
      <trkpt lat="62.631377516318" lon="17.965567988264">
        <ele>59</ele>
        <time>2017-10-30T18:33:59Z</time>
      </trkpt>
      <trkpt lat="62.631403919303" lon="17.965594139792">
        <ele>59.2</ele>
        <time>2017-10-30T18:34:00Z</time>
      </trkpt>
      <trkpt lat="62.631431495754" lon="17.965619285492">
        <ele>59.2</ele>
        <time>2017-10-30T18:34:01Z</time>
      </trkpt>
      <trkpt lat="62.63145781492" lon="17.965636300749">
        <ele>59.4</ele>
        <time>2017-10-30T18:34:02Z</time>
      </trkpt>
      <trkpt lat="62.631483547353" lon="17.965658764241">
        <ele>59.6</ele>
        <time>2017-10-30T18:34:03Z</time>
      </trkpt>
      <trkpt lat="62.631508357777" lon="17.965681143914">
        <ele>59.8</ele>
        <time>2017-10-30T18:34:04Z</time>
      </trkpt>
      <trkpt lat="62.631532162373" lon="17.965703858863">
        <ele>60</ele>
        <time>2017-10-30T18:34:05Z</time>
      </trkpt>
      <trkpt lat="62.631562421032" lon="17.965732692599">
        <ele>60</ele>
        <time>2017-10-30T18:34:06Z</time>
      </trkpt>
      <trkpt lat="62.631588404922" lon="17.965755156091">
        <ele>60.2</ele>
        <time>2017-10-30T18:34:07Z</time>
      </trkpt>
      <trkpt lat="62.63161288007" lon="17.965780553248">
        <ele>60.4</ele>
        <time>2017-10-30T18:34:08Z</time>
      </trkpt>
      <trkpt lat="62.631637355218" lon="17.965808464975">
        <ele>60.4</ele>
        <time>2017-10-30T18:34:09Z</time>
      </trkpt>
      <trkpt lat="62.631659148158" lon="17.965831850476">
        <ele>60.6</ele>
        <time>2017-10-30T18:34:10Z</time>
      </trkpt>
      <trkpt lat="62.6316858026" lon="17.96586001366">
        <ele>60.8</ele>
        <time>2017-10-30T18:34:11Z</time>
      </trkpt>
      <trkpt lat="62.631713630508" lon="17.965882309514">
        <ele>60.8</ele>
        <time>2017-10-30T18:34:12Z</time>
      </trkpt>
      <trkpt lat="62.631739865855" lon="17.965906868481">
        <ele>60.6</ele>
        <time>2017-10-30T18:34:13Z</time>
      </trkpt>
      <trkpt lat="62.631766017383" lon="17.965928912878">
        <ele>60.6</ele>
        <time>2017-10-30T18:34:14Z</time>
      </trkpt>
      <trkpt lat="62.63179057635" lon="17.965947436877">
        <ele>60.8</ele>
        <time>2017-10-30T18:34:15Z</time>
      </trkpt>
      <trkpt lat="62.631817817525" lon="17.965965122686">
        <ele>60.8</ele>
        <time>2017-10-30T18:34:16Z</time>
      </trkpt>
      <trkpt lat="62.631846567442" lon="17.965978282269">
        <ele>61</ele>
        <time>2017-10-30T18:34:17Z</time>
      </trkpt>
      <trkpt lat="62.631875904092" lon="17.965996470992">
        <ele>61</ele>
        <time>2017-10-30T18:34:18Z</time>
      </trkpt>
      <trkpt lat="62.631901133611" lon="17.966016168457">
        <ele>61.4</ele>
        <time>2017-10-30T18:34:19Z</time>
      </trkpt>
      <trkpt lat="62.63192552494" lon="17.966036285017">
        <ele>61.8</ele>
        <time>2017-10-30T18:34:20Z</time>
      </trkpt>
      <trkpt lat="62.631953352848" lon="17.966054306102">
        <ele>62.2</ele>
        <time>2017-10-30T18:34:21Z</time>
      </trkpt>
      <trkpt lat="62.631982354222" lon="17.966065705486">
        <ele>62.4</ele>
        <time>2017-10-30T18:34:22Z</time>
      </trkpt>
      <trkpt lat="62.632006661732" lon="17.966074674119">
        <ele>62.6</ele>
        <time>2017-10-30T18:34:23Z</time>
      </trkpt>
      <trkpt lat="62.632034573459" lon="17.966086576417">
        <ele>63</ele>
        <time>2017-10-30T18:34:24Z</time>
      </trkpt>
      <trkpt lat="62.632056701675" lon="17.966099736">
        <ele>63</ele>
        <time>2017-10-30T18:34:25Z</time>
      </trkpt>
      <trkpt lat="62.632085367773" lon="17.966113482316">
        <ele>63</ele>
        <time>2017-10-30T18:34:26Z</time>
      </trkpt>
      <trkpt lat="62.632113363319" lon="17.966127480089">
        <ele>63.2</ele>
        <time>2017-10-30T18:34:27Z</time>
      </trkpt>
      <trkpt lat="62.632141191227" lon="17.966137203093">
        <ele>63.4</ele>
        <time>2017-10-30T18:34:28Z</time>
      </trkpt>
      <trkpt lat="62.63216776185" lon="17.966149692124">
        <ele>63.4</ele>
        <time>2017-10-30T18:34:29Z</time>
      </trkpt>
      <trkpt lat="62.632196679405" lon="17.96616595301">
        <ele>63.6</ele>
        <time>2017-10-30T18:34:30Z</time>
      </trkpt>
      <trkpt lat="62.632226938064" lon="17.966180788973">
        <ele>63.6</ele>
        <time>2017-10-30T18:34:31Z</time>
      </trkpt>
      <trkpt lat="62.632254765972" lon="17.96619445147">
        <ele>63.6</ele>
        <time>2017-10-30T18:34:32Z</time>
      </trkpt>
      <trkpt lat="62.632282761518" lon="17.96620618613">
        <ele>63.6</ele>
        <time>2017-10-30T18:34:33Z</time>
      </trkpt>
      <trkpt lat="62.632310421788" lon="17.966213646021">
        <ele>63.8</ele>
        <time>2017-10-30T18:34:34Z</time>
      </trkpt>
      <trkpt lat="62.632337746782" lon="17.966221357369">
        <ele>63.8</ele>
        <time>2017-10-30T18:34:35Z</time>
      </trkpt>
      <trkpt lat="62.632342021551" lon="17.966219345713">
        <ele>63.8</ele>
        <time>2017-10-30T18:34:36Z</time>
      </trkpt>
      <trkpt lat="62.632393318779" lon="17.966228314346">
        <ele>64</ele>
        <time>2017-10-30T18:34:37Z</time>
      </trkpt>
      <trkpt lat="62.632419973221" lon="17.966229823088">
        <ele>64.2</ele>
        <time>2017-10-30T18:34:38Z</time>
      </trkpt>
      <trkpt lat="62.632448136405" lon="17.966231667106">
        <ele>64.2</ele>
        <time>2017-10-30T18:34:39Z</time>
      </trkpt>
      <trkpt lat="62.632473198286" lon="17.96623887554">
        <ele>64.2</ele>
        <time>2017-10-30T18:34:40Z</time>
      </trkpt>
      <trkpt lat="62.632499852728" lon="17.966237534436">
        <ele>64.4</ele>
        <time>2017-10-30T18:34:41Z</time>
      </trkpt>
      <trkpt lat="62.632528937921" lon="17.966237869712">
        <ele>64.4</ele>
        <time>2017-10-30T18:34:42Z</time>
      </trkpt>
      <trkpt lat="62.632557604019" lon="17.966238372626">
        <ele>64.4</ele>
        <time>2017-10-30T18:34:43Z</time>
      </trkpt>
      <trkpt lat="62.632588197954" lon="17.966241976843">
        <ele>64.4</ele>
        <time>2017-10-30T18:34:44Z</time>
      </trkpt>
      <trkpt lat="62.632617366966" lon="17.966245748698">
        <ele>64.6</ele>
        <time>2017-10-30T18:34:45Z</time>
      </trkpt>
      <trkpt lat="62.632648463815" lon="17.966253795322">
        <ele>64.8</ele>
        <time>2017-10-30T18:34:46Z</time>
      </trkpt>
      <trkpt lat="62.632677632827" lon="17.966258740643">
        <ele>64.8</ele>
        <time>2017-10-30T18:34:47Z</time>
      </trkpt>
      <trkpt lat="62.632705125459" lon="17.966263350688">
        <ele>65</ele>
        <time>2017-10-30T18:34:48Z</time>
      </trkpt>
      <trkpt lat="62.632730271159" lon="17.966260919937">
        <ele>65.2</ele>
        <time>2017-10-30T18:34:49Z</time>
      </trkpt>
      <trkpt lat="62.632755919773" lon="17.96626569762">
        <ele>65.2</ele>
        <time>2017-10-30T18:34:50Z</time>
      </trkpt>
      <trkpt lat="62.632785088785" lon="17.966267290181">
        <ele>65.2</ele>
        <time>2017-10-30T18:34:51Z</time>
      </trkpt>
      <trkpt lat="62.632811827046" lon="17.966270307665">
        <ele>65.2</ele>
        <time>2017-10-30T18:34:52Z</time>
      </trkpt>
      <trkpt lat="62.632837056565" lon="17.966269134199">
        <ele>65.2</ele>
        <time>2017-10-30T18:34:53Z</time>
      </trkpt>
      <trkpt lat="62.632864884473" lon="17.966266954905">
        <ele>65.2</ele>
        <time>2017-10-30T18:34:54Z</time>
      </trkpt>
      <trkpt lat="62.63288944344" lon="17.966265613801">
        <ele>65.2</ele>
        <time>2017-10-30T18:34:55Z</time>
      </trkpt>
      <trkpt lat="62.632919366823" lon="17.966262428679">
        <ele>65.2</ele>
        <time>2017-10-30T18:34:56Z</time>
      </trkpt>
      <trkpt lat="62.632947362369" lon="17.966260081747">
        <ele>65.2</ele>
        <time>2017-10-30T18:34:57Z</time>
      </trkpt>
      <trkpt lat="62.63297410063" lon="17.966254549693">
        <ele>65.2</ele>
        <time>2017-10-30T18:34:58Z</time>
      </trkpt>
      <trkpt lat="62.633001006529" lon="17.966253879141">
        <ele>65.4</ele>
        <time>2017-10-30T18:34:59Z</time>
      </trkpt>
      <trkpt lat="62.633025733134" lon="17.966255387883">
        <ele>65.6</ele>
        <time>2017-10-30T18:35:00Z</time>
      </trkpt>
      <trkpt lat="62.633053225766" lon="17.966254214417">
        <ele>65.6</ele>
        <time>2017-10-30T18:35:01Z</time>
      </trkpt>
      <trkpt lat="62.633079628751" lon="17.966254214417">
        <ele>65.8</ele>
        <time>2017-10-30T18:35:02Z</time>
      </trkpt>
      <trkpt lat="62.633105109727" lon="17.966251364571">
        <ele>66</ele>
        <time>2017-10-30T18:35:03Z</time>
      </trkpt>
      <trkpt lat="62.633135200748" lon="17.966248347087">
        <ele>66.2</ele>
        <time>2017-10-30T18:35:04Z</time>
      </trkpt>
      <trkpt lat="62.633161017" lon="17.966249688191">
        <ele>66.4</ele>
        <time>2017-10-30T18:35:05Z</time>
      </trkpt>
      <trkpt lat="62.633190940383" lon="17.966250191105">
        <ele>66.6</ele>
        <time>2017-10-30T18:35:06Z</time>
      </trkpt>
      <trkpt lat="62.633218768291" lon="17.966249017639">
        <ele>66.6</ele>
        <time>2017-10-30T18:35:07Z</time>
      </trkpt>
      <trkpt lat="62.633246093285" lon="17.966245078146">
        <ele>66.6</ele>
        <time>2017-10-30T18:35:08Z</time>
      </trkpt>
      <trkpt lat="62.633273669736" lon="17.966247089802">
        <ele>66.4</ele>
        <time>2017-10-30T18:35:09Z</time>
      </trkpt>
      <trkpt lat="62.63329848016" lon="17.966248682363">
        <ele>66.6</ele>
        <time>2017-10-30T18:35:10Z</time>
      </trkpt>
      <trkpt lat="62.633327900629" lon="17.966247676535">
        <ele>66.6</ele>
        <time>2017-10-30T18:35:11Z</time>
      </trkpt>
      <trkpt lat="62.633348603922" lon="17.966250191105">
        <ele>66.6</ele>
        <time>2017-10-30T18:35:12Z</time>
      </trkpt>
      <trkpt lat="62.63338146097" lon="17.966245916336">
        <ele>66.6</ele>
        <time>2017-10-30T18:35:13Z</time>
      </trkpt>
      <trkpt lat="62.633409456516" lon="17.966241809205">
        <ele>66.8</ele>
        <time>2017-10-30T18:35:14Z</time>
      </trkpt>
      <trkpt lat="62.633435188949" lon="17.966241473929">
        <ele>66.8</ele>
        <time>2017-10-30T18:35:15Z</time>
      </trkpt>
      <trkpt lat="62.633462849219" lon="17.966240887196">
        <ele>66.8</ele>
        <time>2017-10-30T18:35:16Z</time>
      </trkpt>
      <trkpt lat="62.633490928584" lon="17.966244994327">
        <ele>66.8</ele>
        <time>2017-10-30T18:35:17Z</time>
      </trkpt>
      <trkpt lat="62.633520181415" lon="17.966244826689">
        <ele>66.8</ele>
        <time>2017-10-30T18:35:18Z</time>
      </trkpt>
      <trkpt lat="62.633550523893" lon="17.966247089802">
        <ele>67</ele>
        <time>2017-10-30T18:35:19Z</time>
      </trkpt>
      <trkpt lat="62.633577178335" lon="17.966250191105">
        <ele>67</ele>
        <time>2017-10-30T18:35:20Z</time>
      </trkpt>
      <trkpt lat="62.633607604632" lon="17.966258824462">
        <ele>67</ele>
        <time>2017-10-30T18:35:21Z</time>
      </trkpt>
      <trkpt lat="62.633635013445" lon="17.966275085348">
        <ele>67</ele>
        <time>2017-10-30T18:35:22Z</time>
      </trkpt>
      <trkpt lat="62.633661248792" lon="17.966292603519">
        <ele>67.2</ele>
        <time>2017-10-30T18:35:23Z</time>
      </trkpt>
      <trkpt lat="62.633688070872" lon="17.966321772531">
        <ele>67.2</ele>
        <time>2017-10-30T18:35:24Z</time>
      </trkpt>
      <trkpt lat="62.633703828844" lon="17.966351612095">
        <ele>67.2</ele>
        <time>2017-10-30T18:35:25Z</time>
      </trkpt>
      <trkpt lat="62.633719502997" lon="17.9664014844">
        <ele>67.4</ele>
        <time>2017-10-30T18:35:26Z</time>
      </trkpt>
      <trkpt lat="62.633724113042" lon="17.966452194895">
        <ele>67.6</ele>
        <time>2017-10-30T18:35:27Z</time>
      </trkpt>
      <trkpt lat="62.633723610128" lon="17.966502570114">
        <ele>68</ele>
        <time>2017-10-30T18:35:28Z</time>
      </trkpt>
      <trkpt lat="62.633720425006" lon="17.966556298093">
        <ele>68.2</ele>
        <time>2017-10-30T18:35:29Z</time>
      </trkpt>
      <trkpt lat="62.633716234056" lon="17.966601727991">
        <ele>68.6</ele>
        <time>2017-10-30T18:35:30Z</time>
      </trkpt>
      <trkpt lat="62.633711037278" lon="17.96666048511">
        <ele>68.8</ele>
        <time>2017-10-30T18:35:31Z</time>
      </trkpt>
      <trkpt lat="62.633705756681" lon="17.966712369071">
        <ele>69.2</ele>
        <time>2017-10-30T18:35:32Z</time>
      </trkpt>
      <trkpt lat="62.633701733369" lon="17.966765426498">
        <ele>69.4</ele>
        <time>2017-10-30T18:35:33Z</time>
      </trkpt>
      <trkpt lat="62.633695698401" lon="17.966819405934">
        <ele>69.6</ele>
        <time>2017-10-30T18:35:34Z</time>
      </trkpt>
      <trkpt lat="62.633688825243" lon="17.96686332709">
        <ele>69.8</ele>
        <time>2017-10-30T18:35:35Z</time>
      </trkpt>
      <trkpt lat="62.633682035904" lon="17.96691864763">
        <ele>70</ele>
        <time>2017-10-30T18:35:36Z</time>
      </trkpt>
      <trkpt lat="62.633676420031" lon="17.966971621238">
        <ele>70.2</ele>
        <time>2017-10-30T18:35:37Z</time>
      </trkpt>
      <trkpt lat="62.633671139434" lon="17.967020487715">
        <ele>70.2</ele>
        <time>2017-10-30T18:35:38Z</time>
      </trkpt>
      <trkpt lat="62.633665691199" lon="17.967077568454">
        <ele>70.4</ele>
        <time>2017-10-30T18:35:39Z</time>
      </trkpt>
      <trkpt lat="62.633659237136" lon="17.967123417447">
        <ele>70.6</ele>
        <time>2017-10-30T18:35:40Z</time>
      </trkpt>
      <trkpt lat="62.633649514132" lon="17.967176642512">
        <ele>70.8</ele>
        <time>2017-10-30T18:35:41Z</time>
      </trkpt>
      <trkpt lat="62.633641132232" lon="17.967229113206">
        <ele>71</ele>
        <time>2017-10-30T18:35:42Z</time>
      </trkpt>
      <trkpt lat="62.633637779472" lon="17.967278314959">
        <ele>71</ele>
        <time>2017-10-30T18:35:43Z</time>
      </trkpt>
      <trkpt lat="62.633634259074" lon="17.967333300223">
        <ele>71.2</ele>
        <time>2017-10-30T18:35:44Z</time>
      </trkpt>
      <trkpt lat="62.633629900486" lon="17.967386106193">
        <ele>71.6</ele>
        <time>2017-10-30T18:35:45Z</time>
      </trkpt>
      <trkpt lat="62.633623194966" lon="17.96744167819">
        <ele>71.8</ele>
        <time>2017-10-30T18:35:46Z</time>
      </trkpt>
      <trkpt lat="62.633617411455" lon="17.96749280778">
        <ele>72.2</ele>
        <time>2017-10-30T18:35:47Z</time>
      </trkpt>
      <trkpt lat="62.633613304324" lon="17.967545529931">
        <ele>72.4</ele>
        <time>2017-10-30T18:35:48Z</time>
      </trkpt>
      <trkpt lat="62.633607436994" lon="17.967598335901">
        <ele>72.6</ele>
        <time>2017-10-30T18:35:49Z</time>
      </trkpt>
      <trkpt lat="62.633598468361" lon="17.967644771627">
        <ele>72.8</ele>
        <time>2017-10-30T18:35:50Z</time>
      </trkpt>
      <trkpt lat="62.633591679022" lon="17.967696068855">
        <ele>72.8</ele>
        <time>2017-10-30T18:35:51Z</time>
      </trkpt>
      <trkpt lat="62.633586230787" lon="17.967749880653">
        <ele>73.2</ele>
        <time>2017-10-30T18:35:52Z</time>
      </trkpt>
      <trkpt lat="62.633582039837" lon="17.967801094062">
        <ele>73.4</ele>
        <time>2017-10-30T18:35:53Z</time>
      </trkpt>
      <trkpt lat="62.633576340145" lon="17.96785490586">
        <ele>73.4</ele>
        <time>2017-10-30T18:35:54Z</time>
      </trkpt>
      <trkpt lat="62.633573155023" lon="17.96790268269">
        <ele>73.4</ele>
        <time>2017-10-30T18:35:55Z</time>
      </trkpt>
      <trkpt lat="62.633568628797" lon="17.967964373474">
        <ele>73.6</ele>
        <time>2017-10-30T18:35:56Z</time>
      </trkpt>
      <trkpt lat="62.633563767295" lon="17.968018185272">
        <ele>73.8</ele>
        <time>2017-10-30T18:35:57Z</time>
      </trkpt>
      <trkpt lat="62.633556391223" lon="17.96806864431">
        <ele>74</ele>
        <time>2017-10-30T18:35:58Z</time>
      </trkpt>
      <trkpt lat="62.633551529721" lon="17.968116337321">
        <ele>74</ele>
        <time>2017-10-30T18:35:59Z</time>
      </trkpt>
      <trkpt lat="62.633546081486" lon="17.968169730024">
        <ele>74.2</ele>
        <time>2017-10-30T18:36:00Z</time>
      </trkpt>
      <trkpt lat="62.633539711242" lon="17.968225804935">
        <ele>74.4</ele>
        <time>2017-10-30T18:36:01Z</time>
      </trkpt>
      <trkpt lat="62.633532586627" lon="17.968275174326">
        <ele>74.6</ele>
        <time>2017-10-30T18:36:02Z</time>
      </trkpt>
      <trkpt lat="62.633525378193" lon="17.968336194558">
        <ele>74.6</ele>
        <time>2017-10-30T18:36:03Z</time>
      </trkpt>
      <trkpt lat="62.633520684329" lon="17.968388749071">
        <ele>74.8</ele>
        <time>2017-10-30T18:36:04Z</time>
      </trkpt>
      <trkpt lat="62.633516493379" lon="17.968437112634">
        <ele>75</ele>
        <time>2017-10-30T18:36:05Z</time>
      </trkpt>
      <trkpt lat="62.633510961325" lon="17.968497462314">
        <ele>75.4</ele>
        <time>2017-10-30T18:36:06Z</time>
      </trkpt>
      <trkpt lat="62.633505010176" lon="17.968550100646">
        <ele>75.6</ele>
        <time>2017-10-30T18:36:07Z</time>
      </trkpt>
      <trkpt lat="62.633496963552" lon="17.968606007919">
        <ele>75.8</ele>
        <time>2017-10-30T18:36:08Z</time>
      </trkpt>
      <trkpt lat="62.633490928584" lon="17.968660154993">
        <ele>76.2</ele>
        <time>2017-10-30T18:36:09Z</time>
      </trkpt>
      <trkpt lat="62.633486318539" lon="17.968706339262">
        <ele>76.2</ele>
        <time>2017-10-30T18:36:10Z</time>
      </trkpt>
      <trkpt lat="62.633478188096" lon="17.968764928743">
        <ele>76.6</ele>
        <time>2017-10-30T18:36:11Z</time>
      </trkpt>
      <trkpt lat="62.633472488404" lon="17.968817231799">
        <ele>76.8</ele>
        <time>2017-10-30T18:36:12Z</time>
      </trkpt>
      <trkpt lat="62.633466704893" lon="17.968872552339">
        <ele>77</ele>
        <time>2017-10-30T18:36:13Z</time>
      </trkpt>
      <trkpt lat="62.633460669925" lon="17.968924520119">
        <ele>77.2</ele>
        <time>2017-10-30T18:36:14Z</time>
      </trkpt>
      <trkpt lat="62.633454886414" lon="17.96897053675">
        <ele>77.4</ele>
        <time>2017-10-30T18:36:15Z</time>
      </trkpt>
      <trkpt lat="62.633449186722" lon="17.969027701308">
        <ele>77.4</ele>
        <time>2017-10-30T18:36:16Z</time>
      </trkpt>
      <trkpt lat="62.633444660496" lon="17.96907950145">
        <ele>77.4</ele>
        <time>2017-10-30T18:36:17Z</time>
      </trkpt>
      <trkpt lat="62.633441223917" lon="17.96913566018">
        <ele>77.6</ele>
        <time>2017-10-30T18:36:18Z</time>
      </trkpt>
      <trkpt lat="62.633437535881" lon="17.969191902729">
        <ele>77.6</ele>
        <time>2017-10-30T18:36:19Z</time>
      </trkpt>
      <trkpt lat="62.633435691863" lon="17.969243619052">
        <ele>77.8</ele>
        <time>2017-10-30T18:36:20Z</time>
      </trkpt>
      <trkpt lat="62.633430578904" lon="17.969307824406">
        <ele>77.8</ele>
        <time>2017-10-30T18:36:21Z</time>
      </trkpt>
      <trkpt lat="62.63342672323" lon="17.969359959824">
        <ele>78</ele>
        <time>2017-10-30T18:36:22Z</time>
      </trkpt>
      <trkpt lat="62.633420269167" lon="17.969413603984">
        <ele>78.2</ele>
        <time>2017-10-30T18:36:23Z</time>
      </trkpt>
      <trkpt lat="62.633414904751" lon="17.969476300596">
        <ele>78.4</ele>
        <time>2017-10-30T18:36:24Z</time>
      </trkpt>
      <trkpt lat="62.633409456516" lon="17.96952625672">
        <ele>78.6</ele>
        <time>2017-10-30T18:36:25Z</time>
      </trkpt>
      <trkpt lat="62.633395039648" lon="17.969584510925">
        <ele>78.8</ele>
        <time>2017-10-30T18:36:26Z</time>
      </trkpt>
      <trkpt lat="62.633374084898" lon="17.969613596118">
        <ele>79</ele>
        <time>2017-10-30T18:36:27Z</time>
      </trkpt>
      <trkpt lat="62.633349023017" lon="17.969631784841">
        <ele>79.2</ele>
        <time>2017-10-30T18:36:28Z</time>
      </trkpt>
      <trkpt lat="62.633325050783" lon="17.969640418198">
        <ele>79.6</ele>
        <time>2017-10-30T18:36:29Z</time>
      </trkpt>
      <trkpt lat="62.633298312522" lon="17.969658271645">
        <ele>79.8</ele>
        <time>2017-10-30T18:36:30Z</time>
      </trkpt>
      <trkpt lat="62.633271741899" lon="17.969662630233">
        <ele>80</ele>
        <time>2017-10-30T18:36:31Z</time>
      </trkpt>
      <trkpt lat="62.633245506552" lon="17.969668665201">
        <ele>80</ele>
        <time>2017-10-30T18:36:32Z</time>
      </trkpt>
      <trkpt lat="62.633221618137" lon="17.969671179771">
        <ele>80.2</ele>
        <time>2017-10-30T18:36:33Z</time>
      </trkpt>
      <trkpt lat="62.633194963695" lon="17.969672185599">
        <ele>80.2</ele>
        <time>2017-10-30T18:36:34Z</time>
      </trkpt>
      <trkpt lat="62.633168895986" lon="17.969671598866">
        <ele>80</ele>
        <time>2017-10-30T18:36:35Z</time>
      </trkpt>
      <trkpt lat="62.633139391698" lon="17.969668665201">
        <ele>80.2</ele>
        <time>2017-10-30T18:36:36Z</time>
      </trkpt>
      <trkpt lat="62.633111312333" lon="17.969669168115">
        <ele>80.2</ele>
        <time>2017-10-30T18:36:37Z</time>
      </trkpt>
      <trkpt lat="62.633084490253" lon="17.969666905002">
        <ele>80</ele>
        <time>2017-10-30T18:36:38Z</time>
      </trkpt>
      <trkpt lat="62.633059344553" lon="17.969664138975">
        <ele>80</ele>
        <time>2017-10-30T18:36:39Z</time>
      </trkpt>
      <trkpt lat="62.6330352885" lon="17.969663133147">
        <ele>80</ele>
        <time>2017-10-30T18:36:40Z</time>
      </trkpt>
      <trkpt lat="62.633004946022" lon="17.969660283301">
        <ele>80</ele>
        <time>2017-10-30T18:36:41Z</time>
      </trkpt>
      <trkpt lat="62.632974855001" lon="17.969654667428">
        <ele>80</ele>
        <time>2017-10-30T18:36:42Z</time>
      </trkpt>
      <trkpt lat="62.632946859455" lon="17.969647458994">
        <ele>79.8</ele>
        <time>2017-10-30T18:36:43Z</time>
      </trkpt>
      <trkpt lat="62.632920540289" lon="17.969643268044">
        <ele>79.8</ele>
        <time>2017-10-30T18:36:44Z</time>
      </trkpt>
      <trkpt lat="62.632893969666" lon="17.96964108875">
        <ele>79.8</ele>
        <time>2017-10-30T18:36:45Z</time>
      </trkpt>
      <trkpt lat="62.632862118446" lon="17.969639915284">
        <ele>79.6</ele>
        <time>2017-10-30T18:36:46Z</time>
      </trkpt>
      <trkpt lat="62.632834458176" lon="17.969641759302">
        <ele>79.6</ele>
        <time>2017-10-30T18:36:47Z</time>
      </trkpt>
      <trkpt lat="62.632805121526" lon="17.969641004931">
        <ele>79.4</ele>
        <time>2017-10-30T18:36:48Z</time>
      </trkpt>
      <trkpt lat="62.632778131808" lon="17.969634886144">
        <ele>79.2</ele>
        <time>2017-10-30T18:36:49Z</time>
      </trkpt>
      <trkpt lat="62.632752064099" lon="17.969628264443">
        <ele>79.2</ele>
        <time>2017-10-30T18:36:50Z</time>
      </trkpt>
      <trkpt lat="62.632722475992" lon="17.969619463448">
        <ele>79.2</ele>
        <time>2017-10-30T18:36:51Z</time>
      </trkpt>
      <trkpt lat="62.63269749793" lon="17.969610327177">
        <ele>79</ele>
        <time>2017-10-30T18:36:52Z</time>
      </trkpt>
      <trkpt lat="62.632669586203" lon="17.969603705476">
        <ele>79</ele>
        <time>2017-10-30T18:36:53Z</time>
      </trkpt>
      <trkpt lat="62.632637902621" lon="17.969601023268">
        <ele>79</ele>
        <time>2017-10-30T18:36:54Z</time>
      </trkpt>
      <trkpt lat="62.632613846568" lon="17.969601610001">
        <ele>79</ele>
        <time>2017-10-30T18:36:55Z</time>
      </trkpt>
      <trkpt lat="62.632580821882" lon="17.969596999956">
        <ele>78.8</ele>
        <time>2017-10-30T18:36:56Z</time>
      </trkpt>
      <trkpt lat="62.632552323422" lon="17.969596999956">
        <ele>78.8</ele>
        <time>2017-10-30T18:36:57Z</time>
      </trkpt>
      <trkpt lat="62.632524160238" lon="17.969599849802">
        <ele>78.8</ele>
        <time>2017-10-30T18:36:58Z</time>
      </trkpt>
      <trkpt lat="62.632495577959" lon="17.969604711304">
        <ele>78.8</ele>
        <time>2017-10-30T18:36:59Z</time>
      </trkpt>
      <trkpt lat="62.632469426431" lon="17.969609405168">
        <ele>78.6</ele>
        <time>2017-10-30T18:37:00Z</time>
      </trkpt>
      <trkpt lat="62.632437742849" lon="17.969618792896">
        <ele>78.6</ele>
        <time>2017-10-30T18:37:01Z</time>
      </trkpt>
      <trkpt lat="62.632409076751" lon="17.969619798724">
        <ele>78.8</ele>
        <time>2017-10-30T18:37:02Z</time>
      </trkpt>
      <trkpt lat="62.632380159196" lon="17.969625833692">
        <ele>78.8</ele>
        <time>2017-10-30T18:37:03Z</time>
      </trkpt>
      <trkpt lat="62.63234964908" lon="17.969636143429">
        <ele>78.8</ele>
        <time>2017-10-30T18:37:04Z</time>
      </trkpt>
      <trkpt lat="62.632318468412" lon="17.969644609148">
        <ele>78.6</ele>
        <time>2017-10-30T18:37:05Z</time>
      </trkpt>
      <trkpt lat="62.632314528919" lon="17.969644944424">
        <ele>78.8</ele>
        <time>2017-10-30T18:37:06Z</time>
      </trkpt>
      <trkpt lat="62.632253676325" lon="17.969647961908">
        <ele>78.6</ele>
        <time>2017-10-30T18:37:07Z</time>
      </trkpt>
      <trkpt lat="62.632222579476" lon="17.969653577781">
        <ele>78.6</ele>
        <time>2017-10-30T18:37:08Z</time>
      </trkpt>
      <trkpt lat="62.632191734084" lon="17.969654835066">
        <ele>78.6</ele>
        <time>2017-10-30T18:37:09Z</time>
      </trkpt>
      <trkpt lat="62.632162984167" lon="17.969656930541">
        <ele>78.4</ele>
        <time>2017-10-30T18:37:10Z</time>
      </trkpt>
      <trkpt lat="62.632127947825" lon="17.969663049328">
        <ele>78.6</ele>
        <time>2017-10-30T18:37:11Z</time>
      </trkpt>
      <trkpt lat="62.632093414397" lon="17.969671598866">
        <ele>78.6</ele>
        <time>2017-10-30T18:37:12Z</time>
      </trkpt>
      <trkpt lat="62.632060976444" lon="17.969676376549">
        <ele>78.6</ele>
        <time>2017-10-30T18:37:13Z</time>
      </trkpt>
      <trkpt lat="62.632028706129" lon="17.969676460368">
        <ele>78.6</ele>
        <time>2017-10-30T18:37:14Z</time>
      </trkpt>
      <trkpt lat="62.631997860737" lon="17.969676795644">
        <ele>78.8</ele>
        <time>2017-10-30T18:37:15Z</time>
      </trkpt>
      <trkpt lat="62.631965255146" lon="17.969679394033">
        <ele>78.8</ele>
        <time>2017-10-30T18:37:16Z</time>
      </trkpt>
      <trkpt lat="62.631933487745" lon="17.969677801472">
        <ele>78.8</ele>
        <time>2017-10-30T18:37:17Z</time>
      </trkpt>
      <trkpt lat="62.63190205562" lon="17.969675370721">
        <ele>78.6</ele>
        <time>2017-10-30T18:37:18Z</time>
      </trkpt>
      <trkpt lat="62.631873221884" lon="17.969678891119">
        <ele>78.6</ele>
        <time>2017-10-30T18:37:19Z</time>
      </trkpt>
      <trkpt lat="62.63184338232" lon="17.969689619951">
        <ele>78.6</ele>
        <time>2017-10-30T18:37:20Z</time>
      </trkpt>
      <trkpt lat="62.631813458937" lon="17.969717028764">
        <ele>78.4</ele>
        <time>2017-10-30T18:37:21Z</time>
      </trkpt>
      <trkpt lat="62.631787391228" lon="17.969755417866">
        <ele>78.4</ele>
        <time>2017-10-30T18:37:22Z</time>
      </trkpt>
      <trkpt lat="62.631761742614" lon="17.969789029285">
        <ele>78.2</ele>
        <time>2017-10-30T18:37:23Z</time>
      </trkpt>
      <trkpt lat="62.631735842543" lon="17.969818030659">
        <ele>78.2</ele>
        <time>2017-10-30T18:37:24Z</time>
      </trkpt>
      <trkpt lat="62.63171011011" lon="17.969841583798">
        <ele>78</ele>
        <time>2017-10-30T18:37:25Z</time>
      </trkpt>
      <trkpt lat="62.631674487035" lon="17.969864801661">
        <ele>78</ele>
        <time>2017-10-30T18:37:26Z</time>
      </trkpt>
      <trkpt lat="62.631644982747" lon="17.969884331488">
        <ele>78</ele>
        <time>2017-10-30T18:37:27Z</time>
      </trkpt>
      <trkpt lat="62.631616484287" lon="17.969905872971">
        <ele>78.2</ele>
        <time>2017-10-30T18:37:28Z</time>
      </trkpt>
      <trkpt lat="62.631589326931" lon="17.96991936783">
        <ele>78.2</ele>
        <time>2017-10-30T18:37:29Z</time>
      </trkpt>
      <trkpt lat="62.631559571186" lon="17.969935796354">
        <ele>78.4</ele>
        <time>2017-10-30T18:37:30Z</time>
      </trkpt>
      <trkpt lat="62.631532916744" lon="17.969949710308">
        <ele>78.6</ele>
        <time>2017-10-30T18:37:31Z</time>
      </trkpt>
      <trkpt lat="62.631503244818" lon="17.969967647574">
        <ele>78.8</ele>
        <time>2017-10-30T18:37:32Z</time>
      </trkpt>
      <trkpt lat="62.631473321435" lon="17.969978124949">
        <ele>78.8</ele>
        <time>2017-10-30T18:37:33Z</time>
      </trkpt>
      <trkpt lat="62.631444236242" lon="17.969991619808">
        <ele>78.8</ele>
        <time>2017-10-30T18:37:34Z</time>
      </trkpt>
      <trkpt lat="62.631415151049" lon="17.97000402502">
        <ele>79</ele>
        <time>2017-10-30T18:37:35Z</time>
      </trkpt>
      <trkpt lat="62.631382964553" lon="17.970012909834">
        <ele>79</ele>
        <time>2017-10-30T18:37:36Z</time>
      </trkpt>
      <trkpt lat="62.631355052826" lon="17.970023135752">
        <ele>79</ele>
        <time>2017-10-30T18:37:37Z</time>
      </trkpt>
      <trkpt lat="62.631325548538" lon="17.970038977543">
        <ele>79</ele>
        <time>2017-10-30T18:37:38Z</time>
      </trkpt>
      <trkpt lat="62.631295876612" lon="17.970056914809">
        <ele>79</ele>
        <time>2017-10-30T18:37:39Z</time>
      </trkpt>
      <trkpt lat="62.631269557446" lon="17.97007024203">
        <ele>79</ele>
        <time>2017-10-30T18:37:40Z</time>
      </trkpt>
      <trkpt lat="62.631236784217" lon="17.970085664726">
        <ele>79.2</ele>
        <time>2017-10-30T18:37:41Z</time>
      </trkpt>
      <trkpt lat="62.631203340436" lon="17.970098908128">
        <ele>79.2</ele>
        <time>2017-10-30T18:37:42Z</time>
      </trkpt>
      <trkpt lat="62.631169729017" lon="17.970108128218">
        <ele>79.2</ele>
        <time>2017-10-30T18:37:43Z</time>
      </trkpt>
      <trkpt lat="62.631139637996" lon="17.970118689412">
        <ele>79.2</ele>
        <time>2017-10-30T18:37:44Z</time>
      </trkpt>
      <trkpt lat="62.631112815916" lon="17.970125730208">
        <ele>79.2</ele>
        <time>2017-10-30T18:37:45Z</time>
      </trkpt>
      <trkpt lat="62.631073588624" lon="17.970130926986">
        <ele>79.4</ele>
        <time>2017-10-30T18:37:46Z</time>
      </trkpt>
      <trkpt lat="62.631021704663" lon="17.970140566171">
        <ele>79.4</ele>
        <time>2017-10-30T18:37:48Z</time>
      </trkpt>
      <trkpt lat="62.631001504284" lon="17.970140817628">
        <ele>79.6</ele>
        <time>2017-10-30T18:37:49Z</time>
      </trkpt>
      <trkpt lat="62.630986165407" lon="17.97013310628">
        <ele>79.8</ele>
        <time>2017-10-30T18:37:50Z</time>
      </trkpt>
      <trkpt lat="62.630966970856" lon="17.970115169014">
        <ele>80</ele>
        <time>2017-10-30T18:37:51Z</time>
      </trkpt>
      <trkpt lat="62.630952889264" lon="17.970092705522">
        <ele>80.2</ele>
        <time>2017-10-30T18:37:52Z</time>
      </trkpt>
      <trkpt lat="62.630943250079" lon="17.970059764655">
        <ele>80.2</ele>
        <time>2017-10-30T18:37:53Z</time>
      </trkpt>
      <trkpt lat="62.630935454912" lon="17.970029338358">
        <ele>80.2</ele>
        <time>2017-10-30T18:37:54Z</time>
      </trkpt>
      <trkpt lat="62.630929084668" lon="17.970007461599">
        <ele>80</ele>
        <time>2017-10-30T18:37:55Z</time>
      </trkpt>
      <trkpt lat="62.630918523474" lon="17.969979549872">
        <ele>80</ele>
        <time>2017-10-30T18:37:56Z</time>
      </trkpt>
      <trkpt lat="62.630906369719" lon="17.969950716136">
        <ele>79.8</ele>
        <time>2017-10-30T18:37:57Z</time>
      </trkpt>
      <trkpt lat="62.630900167113" lon="17.969927582092">
        <ele>79.6</ele>
        <time>2017-10-30T18:37:58Z</time>
      </trkpt>
      <trkpt lat="62.630899915656" lon="17.969892964845">
        <ele>79.6</ele>
        <time>2017-10-30T18:37:59Z</time>
      </trkpt>
      <trkpt lat="62.630897736362" lon="17.969852731725">
        <ele>79.6</ele>
        <time>2017-10-30T18:38:00Z</time>
      </trkpt>
      <trkpt lat="62.630896646715" lon="17.969813839709">
        <ele>79.6</ele>
        <time>2017-10-30T18:38:01Z</time>
      </trkpt>
      <trkpt lat="62.630897652543" lon="17.969775534426">
        <ele>79.4</ele>
        <time>2017-10-30T18:38:02Z</time>
      </trkpt>
      <trkpt lat="62.630898826009" lon="17.969743767025">
        <ele>79.4</ele>
        <time>2017-10-30T18:38:03Z</time>
      </trkpt>
      <trkpt lat="62.63089874219" lon="17.969714262737">
        <ele>79.2</ele>
        <time>2017-10-30T18:38:04Z</time>
      </trkpt>
      <trkpt lat="62.63089706581" lon="17.969686267191">
        <ele>79.2</ele>
        <time>2017-10-30T18:38:05Z</time>
      </trkpt>
      <trkpt lat="62.63089287486" lon="17.96966874902">
        <ele>79</ele>
        <time>2017-10-30T18:38:06Z</time>
      </trkpt>
      <trkpt lat="62.630889857376" lon="17.969651398487">
        <ele>78.8</ele>
        <time>2017-10-30T18:38:07Z</time>
      </trkpt>
      <trkpt lat="62.630888600091" lon="17.969628934995">
        <ele>78.6</ele>
        <time>2017-10-30T18:38:08Z</time>
      </trkpt>
      <trkpt lat="62.630886085521" lon="17.969605130399">
        <ele>78.4</ele>
        <time>2017-10-30T18:38:09Z</time>
      </trkpt>
      <trkpt lat="62.630882732761" lon="17.969580487613">
        <ele>78.2</ele>
        <time>2017-10-30T18:38:10Z</time>
      </trkpt>
      <trkpt lat="62.630877703621" lon="17.969546876194">
        <ele>78.2</ele>
        <time>2017-10-30T18:38:11Z</time>
      </trkpt>
      <trkpt lat="62.630875105232" lon="17.969513013318">
        <ele>78</ele>
        <time>2017-10-30T18:38:12Z</time>
      </trkpt>
      <trkpt lat="62.630869992273" lon="17.969490801283">
        <ele>78</ele>
        <time>2017-10-30T18:38:13Z</time>
      </trkpt>
      <trkpt lat="62.630866723332" lon="17.969465487945">
        <ele>77.8</ele>
        <time>2017-10-30T18:38:14Z</time>
      </trkpt>
      <trkpt lat="62.630865549866" lon="17.969436821847">
        <ele>77.6</ele>
        <time>2017-10-30T18:38:15Z</time>
      </trkpt>
      <trkpt lat="62.630865046952" lon="17.969404300075">
        <ele>77.4</ele>
        <time>2017-10-30T18:38:16Z</time>
      </trkpt>
      <trkpt lat="62.630862364744" lon="17.969384434972">
        <ele>77.2</ele>
        <time>2017-10-30T18:38:17Z</time>
      </trkpt>
      <trkpt lat="62.630858257613" lon="17.969357193797">
        <ele>76.8</ele>
        <time>2017-10-30T18:38:18Z</time>
      </trkpt>
      <trkpt lat="62.630856162138" lon="17.969331712821">
        <ele>76.8</ele>
        <time>2017-10-30T18:38:19Z</time>
      </trkpt>
      <trkpt lat="62.630853396111" lon="17.969310590433">
        <ele>76.6</ele>
        <time>2017-10-30T18:38:20Z</time>
      </trkpt>
      <trkpt lat="62.630850210989" lon="17.969283349258">
        <ele>76.4</ele>
        <time>2017-10-30T18:38:21Z</time>
      </trkpt>
      <trkpt lat="62.630846942048" lon="17.969253174418">
        <ele>76.2</ele>
        <time>2017-10-30T18:38:22Z</time>
      </trkpt>
      <trkpt lat="62.630843086374" lon="17.969226519976">
        <ele>76.2</ele>
        <time>2017-10-30T18:38:23Z</time>
      </trkpt>
      <trkpt lat="62.630839817433" lon="17.969198692068">
        <ele>76</ele>
        <time>2017-10-30T18:38:24Z</time>
      </trkpt>
      <trkpt lat="62.630837302863" lon="17.969160973518">
        <ele>75.8</ele>
        <time>2017-10-30T18:38:25Z</time>
      </trkpt>
      <trkpt lat="62.630835375026" lon="17.969127613556">
        <ele>75.8</ele>
        <time>2017-10-30T18:38:26Z</time>
      </trkpt>
      <trkpt lat="62.630830429705" lon="17.969094924146">
        <ele>75.6</ele>
        <time>2017-10-30T18:38:27Z</time>
      </trkpt>
      <trkpt lat="62.630824813832" lon="17.969063408202">
        <ele>75.6</ele>
        <time>2017-10-30T18:38:28Z</time>
      </trkpt>
      <trkpt lat="62.630818611226" lon="17.969029461507">
        <ele>75.6</ele>
        <time>2017-10-30T18:38:29Z</time>
      </trkpt>
      <trkpt lat="62.630810313145" lon="17.969001382142">
        <ele>75.4</ele>
        <time>2017-10-30T18:38:30Z</time>
      </trkpt>
      <trkpt lat="62.630802937073" lon="17.968963495954">
        <ele>75.4</ele>
        <time>2017-10-30T18:38:31Z</time>
      </trkpt>
      <trkpt lat="62.630797488838" lon="17.968926531775">
        <ele>75.2</ele>
        <time>2017-10-30T18:38:32Z</time>
      </trkpt>
      <trkpt lat="62.63079396844" lon="17.968884789913">
        <ele>75</ele>
        <time>2017-10-30T18:38:33Z</time>
      </trkpt>
      <trkpt lat="62.630789861309" lon="17.968844975888">
        <ele>74.8</ele>
        <time>2017-10-30T18:38:34Z</time>
      </trkpt>
      <trkpt lat="62.630780138305" lon="17.968799965085">
        <ele>74.6</ele>
        <time>2017-10-30T18:38:35Z</time>
      </trkpt>
      <trkpt lat="62.630763206867" lon="17.968751517703">
        <ele>74.4</ele>
        <time>2017-10-30T18:38:36Z</time>
      </trkpt>
      <trkpt lat="62.630745604877" lon="17.968714134429">
        <ele>74.2</ele>
        <time>2017-10-30T18:38:37Z</time>
      </trkpt>
      <trkpt lat="62.63072942781" lon="17.968676583517">
        <ele>74</ele>
        <time>2017-10-30T18:38:38Z</time>
      </trkpt>
      <trkpt lat="62.630714256571" lon="17.968638781148">
        <ele>73.8</ele>
        <time>2017-10-30T18:38:39Z</time>
      </trkpt>
      <trkpt lat="62.630697157495" lon="17.968607432842">
        <ele>73.6</ele>
        <time>2017-10-30T18:38:40Z</time>
      </trkpt>
      <trkpt lat="62.630677124754" lon="17.968566193894">
        <ele>73.2</ele>
        <time>2017-10-30T18:38:41Z</time>
      </trkpt>
      <trkpt lat="62.630656840556" lon="17.968528726801">
        <ele>73</ele>
        <time>2017-10-30T18:38:42Z</time>
      </trkpt>
      <trkpt lat="62.630641250222" lon="17.96849193026">
        <ele>72.8</ele>
        <time>2017-10-30T18:38:43Z</time>
      </trkpt>
      <trkpt lat="62.630625408431" lon="17.968459911402">
        <ele>72.4</ele>
        <time>2017-10-30T18:38:44Z</time>
      </trkpt>
      <trkpt lat="62.630608393174" lon="17.96842738963">
        <ele>72.4</ele>
        <time>2017-10-30T18:38:45Z</time>
      </trkpt>
      <trkpt lat="62.630587019329" lon="17.968391766555">
        <ele>72</ele>
        <time>2017-10-30T18:38:46Z</time>
      </trkpt>
      <trkpt lat="62.630573189194" lon="17.968355053833">
        <ele>71.8</ele>
        <time>2017-10-30T18:38:47Z</time>
      </trkpt>
      <trkpt lat="62.630557347403" lon="17.968309959211">
        <ele>71.6</ele>
        <time>2017-10-30T18:38:48Z</time>
      </trkpt>
      <trkpt lat="62.63054418782" lon="17.968271402471">
        <ele>71</ele>
        <time>2017-10-30T18:38:49Z</time>
      </trkpt>
      <trkpt lat="62.630531028237" lon="17.968235863215">
        <ele>70.8</ele>
        <time>2017-10-30T18:38:50Z</time>
      </trkpt>
      <trkpt lat="62.630516695188" lon="17.968192109697">
        <ele>70.6</ele>
        <time>2017-10-30T18:38:51Z</time>
      </trkpt>
      <trkpt lat="62.63050563108" lon="17.968145003419">
        <ele>70.4</ele>
        <time>2017-10-30T18:38:52Z</time>
      </trkpt>
      <trkpt lat="62.630495069886" lon="17.968100998444">
        <ele>70.2</ele>
        <time>2017-10-30T18:38:53Z</time>
      </trkpt>
      <trkpt lat="62.630483670502" lon="17.968045091171">
        <ele>70</ele>
        <time>2017-10-30T18:38:54Z</time>
      </trkpt>
      <trkpt lat="62.630475037145" lon="17.967994967409">
        <ele>69.6</ele>
        <time>2017-10-30T18:38:55Z</time>
      </trkpt>
      <trkpt lat="62.63046875072" lon="17.967941071792">
        <ele>69.2</ele>
        <time>2017-10-30T18:38:56Z</time>
      </trkpt>
      <trkpt lat="62.630463973037" lon="17.967886421804">
        <ele>68.8</ele>
        <time>2017-10-30T18:38:57Z</time>
      </trkpt>
      <trkpt lat="62.630461374648" lon="17.967827664685">
        <ele>68.4</ele>
        <time>2017-10-30T18:38:58Z</time>
      </trkpt>
      <trkpt lat="62.63045869244" lon="17.967771841231">
        <ele>68.2</ele>
        <time>2017-10-30T18:38:59Z</time>
      </trkpt>
      <trkpt lat="62.630456261689" lon="17.967714257578">
        <ele>68</ele>
        <time>2017-10-30T18:39:00Z</time>
      </trkpt>
      <trkpt lat="62.630455507318" lon="17.967647956749">
        <ele>67.6</ele>
        <time>2017-10-30T18:39:01Z</time>
      </trkpt>
      <trkpt lat="62.630453328024" lon="17.967596156607">
        <ele>67.4</ele>
        <time>2017-10-30T18:39:02Z</time>
      </trkpt>
      <trkpt lat="62.630454417671" lon="17.967533292357">
        <ele>67</ele>
        <time>2017-10-30T18:39:03Z</time>
      </trkpt>
      <trkpt lat="62.630457099879" lon="17.967477804179">
        <ele>66.6</ele>
        <time>2017-10-30T18:39:04Z</time>
      </trkpt>
      <trkpt lat="62.630460117363" lon="17.967426758408">
        <ele>66.4</ele>
        <time>2017-10-30T18:39:05Z</time>
      </trkpt>
      <trkpt lat="62.630461961381" lon="17.967367498375">
        <ele>66.2</ele>
        <time>2017-10-30T18:39:06Z</time>
      </trkpt>
      <trkpt lat="62.630464811227" lon="17.967308489799">
        <ele>66</ele>
        <time>2017-10-30T18:39:07Z</time>
      </trkpt>
      <trkpt lat="62.630466739064" lon="17.967254929458">
        <ele>65.8</ele>
        <time>2017-10-30T18:39:08Z</time>
      </trkpt>
      <trkpt lat="62.630468331625" lon="17.967200195651">
        <ele>65.6</ele>
        <time>2017-10-30T18:39:09Z</time>
      </trkpt>
      <trkpt lat="62.630471684385" lon="17.967144288378">
        <ele>65.4</ele>
        <time>2017-10-30T18:39:10Z</time>
      </trkpt>
      <trkpt lat="62.630474031317" lon="17.967087710553">
        <ele>65</ele>
        <time>2017-10-30T18:39:11Z</time>
      </trkpt>
      <trkpt lat="62.630474869507" lon="17.967034234031">
        <ele>64.8</ele>
        <time>2017-10-30T18:39:12Z</time>
      </trkpt>
      <trkpt lat="62.630477803172" lon="17.966979081129">
        <ele>64.6</ele>
        <time>2017-10-30T18:39:13Z</time>
      </trkpt>
      <trkpt lat="62.630479814828" lon="17.966922754761">
        <ele>64.2</ele>
        <time>2017-10-30T18:39:14Z</time>
      </trkpt>
      <trkpt lat="62.630482077941" lon="17.966868104773">
        <ele>64</ele>
        <time>2017-10-30T18:39:15Z</time>
      </trkpt>
      <trkpt lat="62.630487274719" lon="17.966806246351">
        <ele>63.6</ele>
        <time>2017-10-30T18:39:16Z</time>
      </trkpt>
      <trkpt lat="62.630492555316" lon="17.966757128417">
        <ele>63.2</ele>
        <time>2017-10-30T18:39:17Z</time>
      </trkpt>
      <trkpt lat="62.630498003551" lon="17.966700550592">
        <ele>62.8</ele>
        <time>2017-10-30T18:39:18Z</time>
      </trkpt>
      <trkpt lat="62.630503870881" lon="17.966645481509">
        <ele>62.6</ele>
        <time>2017-10-30T18:39:19Z</time>
      </trkpt>
      <trkpt lat="62.630506301632" lon="17.966594351919">
        <ele>62.2</ele>
        <time>2017-10-30T18:39:20Z</time>
      </trkpt>
      <trkpt lat="62.630507139822" lon="17.966538863741">
        <ele>61.8</ele>
        <time>2017-10-30T18:39:21Z</time>
      </trkpt>
      <trkpt lat="62.630508816202" lon="17.966487315056">
        <ele>61.6</ele>
        <time>2017-10-30T18:39:22Z</time>
      </trkpt>
      <trkpt lat="62.630512671876" lon="17.966438532398">
        <ele>61.2</ele>
        <time>2017-10-30T18:39:23Z</time>
      </trkpt>
      <trkpt lat="62.630513929161" lon="17.966386480799">
        <ele>61</ele>
        <time>2017-10-30T18:39:24Z</time>
      </trkpt>
      <trkpt lat="62.630518623025" lon="17.966341386177">
        <ele>60.8</ele>
        <time>2017-10-30T18:39:25Z</time>
      </trkpt>
      <trkpt lat="62.630524406536" lon="17.966285897999">
        <ele>60.4</ele>
        <time>2017-10-30T18:39:26Z</time>
      </trkpt>
      <trkpt lat="62.630529016581" lon="17.966235606599">
        <ele>60.2</ele>
        <time>2017-10-30T18:39:27Z</time>
      </trkpt>
      <trkpt lat="62.630530190047" lon="17.966185650475">
        <ele>60</ele>
        <time>2017-10-30T18:39:28Z</time>
      </trkpt>
      <trkpt lat="62.630534213359" lon="17.966133682695">
        <ele>60</ele>
        <time>2017-10-30T18:39:29Z</time>
      </trkpt>
      <trkpt lat="62.630535554463" lon="17.966083475114">
        <ele>59.8</ele>
        <time>2017-10-30T18:39:30Z</time>
      </trkpt>
      <trkpt lat="62.630538739585" lon="17.966026729651">
        <ele>59.8</ele>
        <time>2017-10-30T18:39:31Z</time>
      </trkpt>
      <trkpt lat="62.630541086517" lon="17.965976857346">
        <ele>59.6</ele>
        <time>2017-10-30T18:39:32Z</time>
      </trkpt>
      <trkpt lat="62.630543684906" lon="17.965922123539">
        <ele>59.4</ele>
        <time>2017-10-30T18:39:33Z</time>
      </trkpt>
      <trkpt lat="62.630545277467" lon="17.965873592338">
        <ele>59.4</ele>
        <time>2017-10-30T18:39:34Z</time>
      </trkpt>
      <trkpt lat="62.630546786209" lon="17.96582648606">
        <ele>59.2</ele>
        <time>2017-10-30T18:39:35Z</time>
      </trkpt>
      <trkpt lat="62.630548630227" lon="17.965773093357">
        <ele>59</ele>
        <time>2017-10-30T18:39:36Z</time>
      </trkpt>
      <trkpt lat="62.630548043494" lon="17.965725400346">
        <ele>58.8</ele>
        <time>2017-10-30T18:39:37Z</time>
      </trkpt>
      <trkpt lat="62.630545528924" lon="17.965671840005">
        <ele>58.4</ele>
        <time>2017-10-30T18:39:38Z</time>
      </trkpt>
      <trkpt lat="62.630542679078" lon="17.965614759266">
        <ele>58.2</ele>
        <time>2017-10-30T18:39:39Z</time>
      </trkpt>
      <trkpt lat="62.630541254155" lon="17.965562791486">
        <ele>58</ele>
        <time>2017-10-30T18:39:40Z</time>
      </trkpt>
      <trkpt lat="62.630544858372" lon="17.965504285824">
        <ele>57.8</ele>
        <time>2017-10-30T18:39:41Z</time>
      </trkpt>
      <trkpt lat="62.630551144797" lon="17.965456425175">
        <ele>57.4</ele>
        <time>2017-10-30T18:39:42Z</time>
      </trkpt>
      <trkpt lat="62.630568411511" lon="17.96539481821">
        <ele>57.2</ele>
        <time>2017-10-30T18:39:43Z</time>
      </trkpt>
      <trkpt lat="62.630577799239" lon="17.965369337234">
        <ele>57</ele>
        <time>2017-10-30T18:39:44Z</time>
      </trkpt>
      <trkpt lat="62.63058609732" lon="17.965365649198">
        <ele>57</ele>
        <time>2017-10-30T18:39:45Z</time>
      </trkpt>
      <trkpt lat="62.630588528071" lon="17.965368415225">
        <ele>57</ele>
        <time>2017-10-30T18:39:46Z</time>
      </trkpt>
      <trkpt lat="62.630587941338" lon="17.965369756329">
        <ele>57</ele>
        <time>2017-10-30T18:39:47Z</time>
      </trkpt>
      <trkpt lat="62.630635718168" lon="17.965384676111">
        <ele>57.2</ele>
        <time>2017-10-30T18:39:51Z</time>
      </trkpt>
      <trkpt lat="62.630666228284" lon="17.965389369975">
        <ele>57.2</ele>
        <time>2017-10-30T18:39:52Z</time>
      </trkpt>
      <trkpt lat="62.630699588246" lon="17.965398422427">
        <ele>57.2</ele>
        <time>2017-10-30T18:39:53Z</time>
      </trkpt>
      <trkpt lat="62.630732026199" lon="17.965407223422">
        <ele>57</ele>
        <time>2017-10-30T18:39:54Z</time>
      </trkpt>
      <trkpt lat="62.630761698125" lon="17.96541912572">
        <ele>57.2</ele>
        <time>2017-10-30T18:39:55Z</time>
      </trkpt>
      <trkpt lat="62.63079229206" lon="17.965437817357">
        <ele>57</ele>
        <time>2017-10-30T18:39:56Z</time>
      </trkpt>
      <trkpt lat="62.630823388909" lon="17.965453826786">
        <ele>57.2</ele>
        <time>2017-10-30T18:39:57Z</time>
      </trkpt>
      <trkpt lat="62.630854569577" lon="17.965471177319">
        <ele>57.2</ele>
        <time>2017-10-30T18:39:58Z</time>
      </trkpt>
      <trkpt lat="62.630881726933" lon="17.96547276988">
        <ele>57.4</ele>
        <time>2017-10-30T18:39:59Z</time>
      </trkpt>
      <trkpt lat="62.630918774931" lon="17.965467573102">
        <ele>58</ele>
        <time>2017-10-30T18:40:00Z</time>
      </trkpt>
      <trkpt lat="62.630952973083" lon="17.965451731311">
        <ele>58</ele>
        <time>2017-10-30T18:40:01Z</time>
      </trkpt>
      <trkpt lat="62.630983315561" lon="17.965432117665">
        <ele>58.4</ele>
        <time>2017-10-30T18:40:02Z</time>
      </trkpt>
      <trkpt lat="62.631015334419" lon="17.965403870662">
        <ele>58.4</ele>
        <time>2017-10-30T18:40:03Z</time>
      </trkpt>
      <trkpt lat="62.631042491775" lon="17.965378473505">
        <ele>58.6</ele>
        <time>2017-10-30T18:40:04Z</time>
      </trkpt>
      <trkpt lat="62.63106973295" lon="17.965357770212">
        <ele>58.6</ele>
        <time>2017-10-30T18:40:05Z</time>
      </trkpt>
      <trkpt lat="62.631092531718" lon="17.965337737471">
        <ele>58.6</ele>
        <time>2017-10-30T18:40:06Z</time>
      </trkpt>
      <trkpt lat="62.631127065146" lon="17.965310412477">
        <ele>58.4</ele>
        <time>2017-10-30T18:40:07Z</time>
      </trkpt>
      <trkpt lat="62.631154725416" lon="17.965300354197">
        <ele>58.4</ele>
        <time>2017-10-30T18:40:08Z</time>
      </trkpt>
      <trkpt lat="62.631182301867" lon="17.965305886251">
        <ele>58.4</ele>
        <time>2017-10-30T18:40:09Z</time>
      </trkpt>
      <trkpt lat="62.631207447567" lon="17.965325751354">
        <ele>58.4</ele>
        <time>2017-10-30T18:40:10Z</time>
      </trkpt>
      <trkpt lat="62.631236113665" lon="17.96535039414">
        <ele>58.6</ele>
        <time>2017-10-30T18:40:11Z</time>
      </trkpt>
      <trkpt lat="62.631262851926" lon="17.965376629487">
        <ele>58.8</ele>
        <time>2017-10-30T18:40:12Z</time>
      </trkpt>
      <trkpt lat="62.631287410893" lon="17.965400350264">
        <ele>59</ele>
        <time>2017-10-30T18:40:13Z</time>
      </trkpt>
      <trkpt lat="62.631313730059" lon="17.965424406317">
        <ele>59.2</ele>
        <time>2017-10-30T18:40:14Z</time>
      </trkpt>
      <trkpt lat="62.631338959578" lon="17.965447037447">
        <ele>59.2</ele>
        <time>2017-10-30T18:40:15Z</time>
      </trkpt>
      <trkpt lat="62.631367122762" lon="17.965467656921">
        <ele>59.2</ele>
        <time>2017-10-30T18:40:16Z</time>
      </trkpt>
      <trkpt lat="62.631391346453" lon="17.965491796793">
        <ele>59.2</ele>
        <time>2017-10-30T18:40:17Z</time>
      </trkpt>
      <trkpt lat="62.631419593456" lon="17.965516774855">
        <ele>59.4</ele>
        <time>2017-10-30T18:40:18Z</time>
      </trkpt>
      <trkpt lat="62.631444236242" lon="17.965535298854">
        <ele>59.6</ele>
        <time>2017-10-30T18:40:19Z</time>
      </trkpt>
      <trkpt lat="62.631469717218" lon="17.965555080138">
        <ele>59.6</ele>
        <time>2017-10-30T18:40:20Z</time>
      </trkpt>
      <trkpt lat="62.631496539298" lon="17.965577292173">
        <ele>60</ele>
        <time>2017-10-30T18:40:21Z</time>
      </trkpt>
      <trkpt lat="62.631520343894" lon="17.965597324914">
        <ele>60.2</ele>
        <time>2017-10-30T18:40:22Z</time>
      </trkpt>
      <trkpt lat="62.631545154318" lon="17.965618531121">
        <ele>60.4</ele>
        <time>2017-10-30T18:40:23Z</time>
      </trkpt>
      <trkpt lat="62.631569629466" lon="17.965642838631">
        <ele>60.6</ele>
        <time>2017-10-30T18:40:24Z</time>
      </trkpt>
      <trkpt lat="62.631594858985" lon="17.965666475589">
        <ele>60.8</ele>
        <time>2017-10-30T18:40:25Z</time>
      </trkpt>
      <trkpt lat="62.631620591418" lon="17.965690028728">
        <ele>60.8</ele>
        <time>2017-10-30T18:40:26Z</time>
      </trkpt>
      <trkpt lat="62.631643976919" lon="17.96571333041">
        <ele>61</ele>
        <time>2017-10-30T18:40:27Z</time>
      </trkpt>
      <trkpt lat="62.631667446239" lon="17.965739398119">
        <ele>61.2</ele>
        <time>2017-10-30T18:40:28Z</time>
      </trkpt>
      <trkpt lat="62.631690915559" lon="17.965757838299">
        <ele>61.2</ele>
        <time>2017-10-30T18:40:29Z</time>
      </trkpt>
      <trkpt lat="62.631713379051" lon="17.965782229628">
        <ele>61.4</ele>
        <time>2017-10-30T18:40:30Z</time>
      </trkpt>
      <trkpt lat="62.631737183647" lon="17.9658063695">
        <ele>61.4</ele>
        <time>2017-10-30T18:40:31Z</time>
      </trkpt>
      <trkpt lat="62.631757384026" lon="17.965825396413">
        <ele>61.6</ele>
        <time>2017-10-30T18:40:32Z</time>
      </trkpt>
      <trkpt lat="62.631783535554" lon="17.965849033371">
        <ele>61.8</ele>
        <time>2017-10-30T18:40:33Z</time>
      </trkpt>
      <trkpt lat="62.631809184168" lon="17.965868982293">
        <ele>61.8</ele>
        <time>2017-10-30T18:40:34Z</time>
      </trkpt>
      <trkpt lat="62.631833743135" lon="17.965890942871">
        <ele>61.8</ele>
        <time>2017-10-30T18:40:35Z</time>
      </trkpt>
      <trkpt lat="62.631861906319" lon="17.965913490182">
        <ele>62</ele>
        <time>2017-10-30T18:40:36Z</time>
      </trkpt>
      <trkpt lat="62.631890404779" lon="17.96592790705">
        <ele>62</ele>
        <time>2017-10-30T18:40:37Z</time>
      </trkpt>
      <trkpt lat="62.631917562135" lon="17.965947772153">
        <ele>62.2</ele>
        <time>2017-10-30T18:40:38Z</time>
      </trkpt>
      <trkpt lat="62.631941366731" lon="17.965963865401">
        <ele>62.2</ele>
        <time>2017-10-30T18:40:39Z</time>
      </trkpt>
      <trkpt lat="62.631963746404" lon="17.965981299753">
        <ele>62.2</ele>
        <time>2017-10-30T18:40:40Z</time>
      </trkpt>
      <trkpt lat="62.631990568484" lon="17.965995716621">
        <ele>62.6</ele>
        <time>2017-10-30T18:40:41Z</time>
      </trkpt>
      <trkpt lat="62.632015462727" lon="17.966008792385">
        <ele>62.6</ele>
        <time>2017-10-30T18:40:42Z</time>
      </trkpt>
      <trkpt lat="62.632041698074" lon="17.966025304728">
        <ele>63</ele>
        <time>2017-10-30T18:40:43Z</time>
      </trkpt>
      <trkpt lat="62.632067095231" lon="17.966038464311">
        <ele>63.2</ele>
        <time>2017-10-30T18:40:44Z</time>
      </trkpt>
      <trkpt lat="62.632091989474" lon="17.966052881179">
        <ele>63.2</ele>
        <time>2017-10-30T18:40:45Z</time>
      </trkpt>
      <trkpt lat="62.632119063011" lon="17.9660662084">
        <ele>63.4</ele>
        <time>2017-10-30T18:40:46Z</time>
      </trkpt>
      <trkpt lat="62.632142867607" lon="17.966077523965">
        <ele>63.6</ele>
        <time>2017-10-30T18:40:47Z</time>
      </trkpt>
      <trkpt lat="62.632171366067" lon="17.966090432091">
        <ele>63.6</ele>
        <time>2017-10-30T18:40:48Z</time>
      </trkpt>
      <trkpt lat="62.632196427948" lon="17.966100825647">
        <ele>63.8</ele>
        <time>2017-10-30T18:40:49Z</time>
      </trkpt>
      <trkpt lat="62.632220903096" lon="17.966115242515">
        <ele>64</ele>
        <time>2017-10-30T18:40:50Z</time>
      </trkpt>
      <trkpt lat="62.632248479547" lon="17.966129994659">
        <ele>64</ele>
        <time>2017-10-30T18:40:51Z</time>
      </trkpt>
      <trkpt lat="62.632275217808" lon="17.966137706007">
        <ele>64</ele>
        <time>2017-10-30T18:40:52Z</time>
      </trkpt>
      <trkpt lat="62.632302794259" lon="17.966150111219">
        <ele>64</ele>
        <time>2017-10-30T18:40:53Z</time>
      </trkpt>
      <trkpt lat="62.632330538348" lon="17.966164108992">
        <ele>64</ele>
        <time>2017-10-30T18:40:54Z</time>
      </trkpt>
      <trkpt lat="62.63235300184" lon="17.96617349672">
        <ele>64.2</ele>
        <time>2017-10-30T18:40:55Z</time>
      </trkpt>
      <trkpt lat="62.632382087033" lon="17.966186823941">
        <ele>64</ele>
        <time>2017-10-30T18:40:56Z</time>
      </trkpt>
      <trkpt lat="62.632405472534" lon="17.966196882221">
        <ele>64.2</ele>
        <time>2017-10-30T18:40:57Z</time>
      </trkpt>
      <trkpt lat="62.632431121148" lon="17.966203503922">
        <ele>64.4</ele>
        <time>2017-10-30T18:40:58Z</time>
      </trkpt>
      <trkpt lat="62.632456685943" lon="17.966211550546">
        <ele>64.4</ele>
        <time>2017-10-30T18:40:59Z</time>
      </trkpt>
      <trkpt lat="62.632480909634" lon="17.966211802003">
        <ele>64.4</ele>
        <time>2017-10-30T18:41:00Z</time>
      </trkpt>
      <trkpt lat="62.632510665379" lon="17.966221022093">
        <ele>64.4</ele>
        <time>2017-10-30T18:41:01Z</time>
      </trkpt>
      <trkpt lat="62.632534553794" lon="17.966228733441">
        <ele>64.6</ele>
        <time>2017-10-30T18:41:02Z</time>
      </trkpt>
      <trkpt lat="62.632562716978" lon="17.966235355142">
        <ele>64.8</ele>
        <time>2017-10-30T18:41:03Z</time>
      </trkpt>
      <trkpt lat="62.63258937142" lon="17.966239965187">
        <ele>65</ele>
        <time>2017-10-30T18:41:04Z</time>
      </trkpt>
      <trkpt lat="62.632615020034" lon="17.966244826689">
        <ele>65</ele>
        <time>2017-10-30T18:41:05Z</time>
      </trkpt>
      <trkpt lat="62.632644859598" lon="17.966251867485">
        <ele>65.2</ele>
        <time>2017-10-30T18:41:06Z</time>
      </trkpt>
      <trkpt lat="62.632671849316" lon="17.966259578833">
        <ele>65.2</ele>
        <time>2017-10-30T18:41:07Z</time>
      </trkpt>
      <trkpt lat="62.632697581749" lon="17.966264943249">
        <ele>65.2</ele>
        <time>2017-10-30T18:41:08Z</time>
      </trkpt>
      <trkpt lat="62.632722224535" lon="17.966269469475">
        <ele>65.2</ele>
        <time>2017-10-30T18:41:09Z</time>
      </trkpt>
      <trkpt lat="62.632744185113" lon="17.966272654597">
        <ele>65.4</ele>
        <time>2017-10-30T18:41:10Z</time>
      </trkpt>
      <trkpt lat="62.632771007193" lon="17.966273408968">
        <ele>65.4</ele>
        <time>2017-10-30T18:41:11Z</time>
      </trkpt>
      <trkpt lat="62.632801182033" lon="17.966273828063">
        <ele>65.4</ele>
        <time>2017-10-30T18:41:12Z</time>
      </trkpt>
      <trkpt lat="62.632826663009" lon="17.966275839719">
        <ele>65.6</ele>
        <time>2017-10-30T18:41:13Z</time>
      </trkpt>
      <trkpt lat="62.632854490917" lon="17.966276845547">
        <ele>65.6</ele>
        <time>2017-10-30T18:41:14Z</time>
      </trkpt>
      <trkpt lat="62.632880810083" lon="17.966277516099">
        <ele>65.6</ele>
        <time>2017-10-30T18:41:15Z</time>
      </trkpt>
      <trkpt lat="62.632906542516" lon="17.96627827047">
        <ele>65.6</ele>
        <time>2017-10-30T18:41:16Z</time>
      </trkpt>
      <trkpt lat="62.632930850026" lon="17.966278605746">
        <ele>65.6</ele>
        <time>2017-10-30T18:41:17Z</time>
      </trkpt>
      <trkpt lat="62.632959432305" lon="17.966273911882">
        <ele>65.8</ele>
        <time>2017-10-30T18:41:18Z</time>
      </trkpt>
      <trkpt lat="62.632986505842" lon="17.966272989873">
        <ele>65.8</ele>
        <time>2017-10-30T18:41:19Z</time>
      </trkpt>
      <trkpt lat="62.633013327922" lon="17.966276426452">
        <ele>66</ele>
        <time>2017-10-30T18:41:20Z</time>
      </trkpt>
      <trkpt lat="62.633041323468" lon="17.966279443936">
        <ele>66</ele>
        <time>2017-10-30T18:41:21Z</time>
      </trkpt>
      <trkpt lat="62.633068397005" lon="17.966284221619">
        <ele>66</ele>
        <time>2017-10-30T18:41:22Z</time>
      </trkpt>
      <trkpt lat="62.633095386723" lon="17.966284389257">
        <ele>66.2</ele>
        <time>2017-10-30T18:41:23Z</time>
      </trkpt>
      <trkpt lat="62.633122544079" lon="17.966282209963">
        <ele>66.2</ele>
        <time>2017-10-30T18:41:24Z</time>
      </trkpt>
      <trkpt lat="62.633146851589" lon="17.966284808352">
        <ele>66.4</ele>
        <time>2017-10-30T18:41:25Z</time>
      </trkpt>
      <trkpt lat="62.633174595678" lon="17.966284892171">
        <ele>66.4</ele>
        <time>2017-10-30T18:41:26Z</time>
      </trkpt>
      <trkpt lat="62.633201417758" lon="17.966284724533">
        <ele>66.6</ele>
        <time>2017-10-30T18:41:27Z</time>
      </trkpt>
      <trkpt lat="62.633230419132" lon="17.966285646542">
        <ele>66.6</ele>
        <time>2017-10-30T18:41:28Z</time>
      </trkpt>
      <trkpt lat="62.633259420506" lon="17.966282880515">
        <ele>66.8</ele>
        <time>2017-10-30T18:41:29Z</time>
      </trkpt>
      <trkpt lat="62.633287164595" lon="17.966282880515">
        <ele>66.8</ele>
        <time>2017-10-30T18:41:30Z</time>
      </trkpt>
      <trkpt lat="62.633317674711" lon="17.966280198307">
        <ele>67</ele>
        <time>2017-10-30T18:41:31Z</time>
      </trkpt>
      <trkpt lat="62.633343323325" lon="17.966275085348">
        <ele>67</ele>
        <time>2017-10-30T18:41:32Z</time>
      </trkpt>
      <trkpt lat="62.633371905604" lon="17.966270307665">
        <ele>67.2</ele>
        <time>2017-10-30T18:41:33Z</time>
      </trkpt>
      <trkpt lat="62.633397051304" lon="17.966268798923">
        <ele>67</ele>
        <time>2017-10-30T18:41:34Z</time>
      </trkpt>
      <trkpt lat="62.633423035194" lon="17.966268379828">
        <ele>67</ele>
        <time>2017-10-30T18:41:35Z</time>
      </trkpt>
      <trkpt lat="62.633453210034" lon="17.966264440335">
        <ele>67.2</ele>
        <time>2017-10-30T18:41:36Z</time>
      </trkpt>
      <trkpt lat="62.633480535028" lon="17.966259578833">
        <ele>67.2</ele>
        <time>2017-10-30T18:41:37Z</time>
      </trkpt>
      <trkpt lat="62.633508614393" lon="17.966258573005">
        <ele>67.2</ele>
        <time>2017-10-30T18:41:38Z</time>
      </trkpt>
      <trkpt lat="62.633536693758" lon="17.966261171394">
        <ele>67.2</ele>
        <time>2017-10-30T18:41:39Z</time>
      </trkpt>
      <trkpt lat="62.6335633482" lon="17.96627156495">
        <ele>67.4</ele>
        <time>2017-10-30T18:41:40Z</time>
      </trkpt>
      <trkpt lat="62.633595283239" lon="17.966285646542">
        <ele>67.4</ele>
        <time>2017-10-30T18:41:41Z</time>
      </trkpt>
      <trkpt lat="62.633622272957" lon="17.9662925197">
        <ele>67.4</ele>
        <time>2017-10-30T18:41:42Z</time>
      </trkpt>
      <trkpt lat="62.633651693426" lon="17.966298303211">
        <ele>67.4</ele>
        <time>2017-10-30T18:41:43Z</time>
      </trkpt>
      <trkpt lat="62.633679269877" lon="17.966309199681">
        <ele>67.4</ele>
        <time>2017-10-30T18:41:44Z</time>
      </trkpt>
      <trkpt lat="62.633699805532" lon="17.966332082268">
        <ele>67.6</ele>
        <time>2017-10-30T18:41:45Z</time>
      </trkpt>
      <trkpt lat="62.633715395866" lon="17.966374913777">
        <ele>67.6</ele>
        <time>2017-10-30T18:41:46Z</time>
      </trkpt>
      <trkpt lat="62.633721514653" lon="17.966415901268">
        <ele>67.6</ele>
        <time>2017-10-30T18:41:47Z</time>
      </trkpt>
      <trkpt lat="62.633722771938" lon="17.966465270659">
        <ele>67.6</ele>
        <time>2017-10-30T18:41:48Z</time>
      </trkpt>
      <trkpt lat="62.633720508825" lon="17.966511371109">
        <ele>67.6</ele>
        <time>2017-10-30T18:41:49Z</time>
      </trkpt>
      <trkpt lat="62.633717407522" lon="17.966557220102">
        <ele>67.8</ele>
        <time>2017-10-30T18:41:50Z</time>
      </trkpt>
      <trkpt lat="62.633713887124" lon="17.966616731592">
        <ele>68.2</ele>
        <time>2017-10-30T18:41:51Z</time>
      </trkpt>
      <trkpt lat="62.633709779993" lon="17.966667777363">
        <ele>68.6</ele>
        <time>2017-10-30T18:41:52Z</time>
      </trkpt>
      <trkpt lat="62.633705924319" lon="17.966713374899">
        <ele>69.2</ele>
        <time>2017-10-30T18:41:53Z</time>
      </trkpt>
      <trkpt lat="62.633699554075" lon="17.966762828109">
        <ele>69.6</ele>
        <time>2017-10-30T18:41:54Z</time>
      </trkpt>
      <trkpt lat="62.633695279306" lon="17.966802055401">
        <ele>69.8</ele>
        <time>2017-10-30T18:41:55Z</time>
      </trkpt>
      <trkpt lat="62.633688825243" lon="17.966856956846">
        <ele>70</ele>
        <time>2017-10-30T18:41:56Z</time>
      </trkpt>
      <trkpt lat="62.633681616809" lon="17.966908337893">
        <ele>70.2</ele>
        <time>2017-10-30T18:41:57Z</time>
      </trkpt>
      <trkpt lat="62.633677425859" lon="17.966958629293">
        <ele>70.2</ele>
        <time>2017-10-30T18:41:58Z</time>
      </trkpt>
      <trkpt lat="62.633671558529" lon="17.967007244313">
        <ele>70.4</ele>
        <time>2017-10-30T18:41:59Z</time>
      </trkpt>
      <trkpt lat="62.633665020647" lon="17.967056194609">
        <ele>70.4</ele>
        <time>2017-10-30T18:42:00Z</time>
      </trkpt>
      <trkpt lat="62.633657393118" lon="17.967105647819">
        <ele>70.6</ele>
        <time>2017-10-30T18:42:01Z</time>
      </trkpt>
      <trkpt lat="62.633650184684" lon="17.967158286151">
        <ele>70.8</ele>
        <time>2017-10-30T18:42:02Z</time>
      </trkpt>
      <trkpt lat="62.633642221879" lon="17.96721117594">
        <ele>71</ele>
        <time>2017-10-30T18:42:03Z</time>
      </trkpt>
      <trkpt lat="62.63363627073" lon="17.967257779304">
        <ele>71</ele>
        <time>2017-10-30T18:42:04Z</time>
      </trkpt>
      <trkpt lat="62.633629984305" lon="17.967304131211">
        <ele>71.2</ele>
        <time>2017-10-30T18:42:05Z</time>
      </trkpt>
      <trkpt lat="62.633624703708" lon="17.967357607733">
        <ele>71.4</ele>
        <time>2017-10-30T18:42:06Z</time>
      </trkpt>
      <trkpt lat="62.633617662912" lon="17.967406390391">
        <ele>71.6</ele>
        <time>2017-10-30T18:42:07Z</time>
      </trkpt>
      <trkpt lat="62.633610705935" lon="17.967457184705">
        <ele>72</ele>
        <time>2017-10-30T18:42:08Z</time>
      </trkpt>
      <trkpt lat="62.633606514985" lon="17.967511667055">
        <ele>72.2</ele>
        <time>2017-10-30T18:42:09Z</time>
      </trkpt>
      <trkpt lat="62.633601988759" lon="17.967562880464">
        <ele>72.6</ele>
        <time>2017-10-30T18:42:10Z</time>
      </trkpt>
      <trkpt lat="62.633597043438" lon="17.967614596787">
        <ele>72.8</ele>
        <time>2017-10-30T18:42:11Z</time>
      </trkpt>
      <trkpt lat="62.633592517212" lon="17.967661116332">
        <ele>73</ele>
        <time>2017-10-30T18:42:12Z</time>
      </trkpt>
      <trkpt lat="62.633587404253" lon="17.967713754664">
        <ele>73.4</ele>
        <time>2017-10-30T18:42:13Z</time>
      </trkpt>
      <trkpt lat="62.633583632398" lon="17.96776941048">
        <ele>73.6</ele>
        <time>2017-10-30T18:42:14Z</time>
      </trkpt>
      <trkpt lat="62.633578854715" lon="17.967814505102">
        <ele>73.8</ele>
        <time>2017-10-30T18:42:15Z</time>
      </trkpt>
      <trkpt lat="62.633571227186" lon="17.967864712683">
        <ele>74.2</ele>
        <time>2017-10-30T18:42:16Z</time>
      </trkpt>
      <trkpt lat="62.633564773123" lon="17.967902598871">
        <ele>74.2</ele>
        <time>2017-10-30T18:42:17Z</time>
      </trkpt>
      <trkpt lat="62.633556223585" lon="17.967955153384">
        <ele>74.4</ele>
        <time>2017-10-30T18:42:18Z</time>
      </trkpt>
      <trkpt lat="62.63354742259" lon="17.968008378449">
        <ele>74.6</ele>
        <time>2017-10-30T18:42:19Z</time>
      </trkpt>
      <trkpt lat="62.633542561088" lon="17.968057412564">
        <ele>74.8</ele>
        <time>2017-10-30T18:42:20Z</time>
      </trkpt>
      <trkpt lat="62.63353484974" lon="17.968108793611">
        <ele>75</ele>
        <time>2017-10-30T18:42:21Z</time>
      </trkpt>
      <trkpt lat="62.633529652962" lon="17.968158749735">
        <ele>75.2</ele>
        <time>2017-10-30T18:42:22Z</time>
      </trkpt>
      <trkpt lat="62.633524623822" lon="17.96820610747">
        <ele>75.4</ele>
        <time>2017-10-30T18:42:23Z</time>
      </trkpt>
      <trkpt lat="62.633517918302" lon="17.968261847105">
        <ele>75.4</ele>
        <time>2017-10-30T18:42:24Z</time>
      </trkpt>
      <trkpt lat="62.633513392076" lon="17.968305600623">
        <ele>75.6</ele>
        <time>2017-10-30T18:42:25Z</time>
      </trkpt>
      <trkpt lat="62.633507440927" lon="17.968357987498">
        <ele>75.8</ele>
        <time>2017-10-30T18:42:26Z</time>
      </trkpt>
      <trkpt lat="62.633499478122" lon="17.968413559495">
        <ele>75.8</ele>
        <time>2017-10-30T18:42:27Z</time>
      </trkpt>
      <trkpt lat="62.633493359335" lon="17.968466197827">
        <ele>76.2</ele>
        <time>2017-10-30T18:42:28Z</time>
      </trkpt>
      <trkpt lat="62.633487492005" lon="17.968512298277">
        <ele>76.4</ele>
        <time>2017-10-30T18:42:29Z</time>
      </trkpt>
      <trkpt lat="62.633480115933" lon="17.968572228862">
        <ele>76.6</ele>
        <time>2017-10-30T18:42:30Z</time>
      </trkpt>
      <trkpt lat="62.633474751517" lon="17.968628136135">
        <ele>76.8</ele>
        <time>2017-10-30T18:42:31Z</time>
      </trkpt>
      <trkpt lat="62.633467710721" lon="17.968681277381">
        <ele>77</ele>
        <time>2017-10-30T18:42:32Z</time>
      </trkpt>
      <trkpt lat="62.633461256658" lon="17.968736430283">
        <ele>77</ele>
        <time>2017-10-30T18:42:33Z</time>
      </trkpt>
      <trkpt lat="62.633456143699" lon="17.968787224597">
        <ele>77.2</ele>
        <time>2017-10-30T18:42:34Z</time>
      </trkpt>
      <trkpt lat="62.633449773455" lon="17.968839276196">
        <ele>77.4</ele>
        <time>2017-10-30T18:42:35Z</time>
      </trkpt>
      <trkpt lat="62.633440804822" lon="17.968897362763">
        <ele>77.4</ele>
        <time>2017-10-30T18:42:36Z</time>
      </trkpt>
      <trkpt lat="62.633433261112" lon="17.96895042019">
        <ele>77.6</ele>
        <time>2017-10-30T18:42:37Z</time>
      </trkpt>
      <trkpt lat="62.633426304135" lon="17.969004986359">
        <ele>77.6</ele>
        <time>2017-10-30T18:42:38Z</time>
      </trkpt>
      <trkpt lat="62.633421777909" lon="17.969053266103">
        <ele>77.8</ele>
        <time>2017-10-30T18:42:39Z</time>
      </trkpt>
      <trkpt lat="62.633416413493" lon="17.969103976598">
        <ele>78</ele>
        <time>2017-10-30T18:42:40Z</time>
      </trkpt>
      <trkpt lat="62.633408953602" lon="17.96916080588">
        <ele>78</ele>
        <time>2017-10-30T18:42:41Z</time>
      </trkpt>
      <trkpt lat="62.63340576848" lon="17.969215455868">
        <ele>78.2</ele>
        <time>2017-10-30T18:42:42Z</time>
      </trkpt>
      <trkpt lat="62.633400236426" lon="17.96927228515">
        <ele>78.2</ele>
        <time>2017-10-30T18:42:43Z</time>
      </trkpt>
      <trkpt lat="62.633393447087" lon="17.969325174939">
        <ele>78.4</ele>
        <time>2017-10-30T18:42:44Z</time>
      </trkpt>
      <trkpt lat="62.63338900468" lon="17.96937202976">
        <ele>78.6</ele>
        <time>2017-10-30T18:42:45Z</time>
      </trkpt>
      <trkpt lat="62.633383556445" lon="17.969432463259">
        <ele>78.6</ele>
        <time>2017-10-30T18:42:46Z</time>
      </trkpt>
      <trkpt lat="62.633380203685" lon="17.969481581193">
        <ele>78.8</ele>
        <time>2017-10-30T18:42:47Z</time>
      </trkpt>
      <trkpt lat="62.633371989423" lon="17.969532459326">
        <ele>78.8</ele>
        <time>2017-10-30T18:42:48Z</time>
      </trkpt>
      <trkpt lat="62.633350364121" lon="17.969570429333">
        <ele>79</ele>
        <time>2017-10-30T18:42:49Z</time>
      </trkpt>
      <trkpt lat="62.633325972792" lon="17.969586019667">
        <ele>79.4</ele>
        <time>2017-10-30T18:42:50Z</time>
      </trkpt>
      <trkpt lat="62.633298228703" lon="17.969595658852">
        <ele>79.6</ele>
        <time>2017-10-30T18:42:51Z</time>
      </trkpt>
      <trkpt lat="62.633270568433" lon="17.969602448191">
        <ele>79.8</ele>
        <time>2017-10-30T18:42:52Z</time>
      </trkpt>
      <trkpt lat="62.633243662534" lon="17.969614518127">
        <ele>80</ele>
        <time>2017-10-30T18:42:53Z</time>
      </trkpt>
      <trkpt lat="62.633214074427" lon="17.969622229475">
        <ele>80.2</ele>
        <time>2017-10-30T18:42:54Z</time>
      </trkpt>
      <trkpt lat="62.6331861627" lon="17.96963019228">
        <ele>80.2</ele>
        <time>2017-10-30T18:42:55Z</time>
      </trkpt>
      <trkpt lat="62.633156574593" lon="17.969636394886">
        <ele>80.2</ele>
        <time>2017-10-30T18:42:56Z</time>
      </trkpt>
      <trkpt lat="62.633129333418" lon="17.969636143429">
        <ele>80.2</ele>
        <time>2017-10-30T18:42:57Z</time>
      </trkpt>
      <trkpt lat="62.63310150551" lon="17.969637149257">
        <ele>80.2</ele>
        <time>2017-10-30T18:42:58Z</time>
      </trkpt>
      <trkpt lat="62.633075605439" lon="17.969641759302">
        <ele>80.2</ele>
        <time>2017-10-30T18:42:59Z</time>
      </trkpt>
      <trkpt lat="62.633047358436" lon="17.969644022415">
        <ele>80.2</ele>
        <time>2017-10-30T18:43:00Z</time>
      </trkpt>
      <trkpt lat="62.633014501388" lon="17.969642848949">
        <ele>80</ele>
        <time>2017-10-30T18:43:01Z</time>
      </trkpt>
      <trkpt lat="62.632987260213" lon="17.969644190053">
        <ele>80.2</ele>
        <time>2017-10-30T18:43:02Z</time>
      </trkpt>
      <trkpt lat="62.63295566045" lon="17.969641340207">
        <ele>80.2</ele>
        <time>2017-10-30T18:43:03Z</time>
      </trkpt>
      <trkpt lat="62.632927664904" lon="17.969636143429">
        <ele>80.2</ele>
        <time>2017-10-30T18:43:04Z</time>
      </trkpt>
      <trkpt lat="62.632902100109" lon="17.96963605961">
        <ele>80.2</ele>
        <time>2017-10-30T18:43:05Z</time>
      </trkpt>
      <trkpt lat="62.6328760324" lon="17.969631701022">
        <ele>80.2</ele>
        <time>2017-10-30T18:43:06Z</time>
      </trkpt>
      <trkpt lat="62.632840493144" lon="17.969619128172">
        <ele>80.2</ele>
        <time>2017-10-30T18:43:07Z</time>
      </trkpt>
      <trkpt lat="62.632813000512" lon="17.96960923753">
        <ele>80</ele>
        <time>2017-10-30T18:43:08Z</time>
      </trkpt>
      <trkpt lat="62.632782574215" lon="17.969601107087">
        <ele>80</ele>
        <time>2017-10-30T18:43:09Z</time>
      </trkpt>
      <trkpt lat="62.632755165402" lon="17.969592809006">
        <ele>79.8</ele>
        <time>2017-10-30T18:43:10Z</time>
      </trkpt>
      <trkpt lat="62.632723984734" lon="17.969588198961">
        <ele>79.6</ele>
        <time>2017-10-30T18:43:11Z</time>
      </trkpt>
      <trkpt lat="62.632690121858" lon="17.969584259468">
        <ele>79.4</ele>
        <time>2017-10-30T18:43:12Z</time>
      </trkpt>
      <trkpt lat="62.632656594258" lon="17.969576631939">
        <ele>79.2</ele>
        <time>2017-10-30T18:43:13Z</time>
      </trkpt>
      <trkpt lat="62.632626000323" lon="17.969572943903">
        <ele>79.2</ele>
        <time>2017-10-30T18:43:14Z</time>
      </trkpt>
      <trkpt lat="62.632596496035" lon="17.969569674962">
        <ele>79.2</ele>
        <time>2017-10-30T18:43:15Z</time>
      </trkpt>
      <trkpt lat="62.632565818281" lon="17.969566238383">
        <ele>79.2</ele>
        <time>2017-10-30T18:43:16Z</time>
      </trkpt>
      <trkpt lat="62.632537068364" lon="17.969564645822">
        <ele>79.2</ele>
        <time>2017-10-30T18:43:17Z</time>
      </trkpt>
      <trkpt lat="62.632503624583" lon="17.969561879795">
        <ele>79.2</ele>
        <time>2017-10-30T18:43:18Z</time>
      </trkpt>
      <trkpt lat="62.63247537758" lon="17.969556934474">
        <ele>79.2</ele>
        <time>2017-10-30T18:43:19Z</time>
      </trkpt>
      <trkpt lat="62.632447214396" lon="17.969555761008">
        <ele>79.2</ele>
        <time>2017-10-30T18:43:20Z</time>
      </trkpt>
      <trkpt lat="62.632417291013" lon="17.969551989153">
        <ele>79</ele>
        <time>2017-10-30T18:43:21Z</time>
      </trkpt>
      <trkpt lat="62.632387535268" lon="17.969549642221">
        <ele>79</ele>
        <time>2017-10-30T18:43:22Z</time>
      </trkpt>
      <trkpt lat="62.632359623541" lon="17.969554838999">
        <ele>79</ele>
        <time>2017-10-30T18:43:23Z</time>
      </trkpt>
      <trkpt lat="62.632329951615" lon="17.969562801804">
        <ele>78.8</ele>
        <time>2017-10-30T18:43:24Z</time>
      </trkpt>
      <trkpt lat="62.632303045716" lon="17.969567830944">
        <ele>79</ele>
        <time>2017-10-30T18:43:25Z</time>
      </trkpt>
      <trkpt lat="62.632270523944" lon="17.969579481785">
        <ele>78.8</ele>
        <time>2017-10-30T18:43:26Z</time>
      </trkpt>
      <trkpt lat="62.632243366588" lon="17.969584175649">
        <ele>78.8</ele>
        <time>2017-10-30T18:43:27Z</time>
      </trkpt>
      <trkpt lat="62.632215371042" lon="17.969581074346">
        <ele>78.8</ele>
        <time>2017-10-30T18:43:28Z</time>
      </trkpt>
      <trkpt lat="62.632187794591" lon="17.969579146509">
        <ele>78.8</ele>
        <time>2017-10-30T18:43:29Z</time>
      </trkpt>
      <trkpt lat="62.632157871208" lon="17.969584762382">
        <ele>78.8</ele>
        <time>2017-10-30T18:43:30Z</time>
      </trkpt>
      <trkpt lat="62.632123756875" lon="17.969596077947">
        <ele>78.8</ele>
        <time>2017-10-30T18:43:31Z</time>
      </trkpt>
      <trkpt lat="62.632093833492" lon="17.969606303865">
        <ele>78.8</ele>
        <time>2017-10-30T18:43:32Z</time>
      </trkpt>
      <trkpt lat="62.632062820462" lon="17.969610662453">
        <ele>79</ele>
        <time>2017-10-30T18:43:33Z</time>
      </trkpt>
      <trkpt lat="62.63203365145" lon="17.969610746272">
        <ele>79</ele>
        <time>2017-10-30T18:43:34Z</time>
      </trkpt>
      <trkpt lat="62.632006745551" lon="17.969617367973">
        <ele>79</ele>
        <time>2017-10-30T18:43:35Z</time>
      </trkpt>
      <trkpt lat="62.631974642874" lon="17.96962683952">
        <ele>79</ele>
        <time>2017-10-30T18:43:36Z</time>
      </trkpt>
      <trkpt lat="62.631941282912" lon="17.969632203936">
        <ele>79</ele>
        <time>2017-10-30T18:43:37Z</time>
      </trkpt>
      <trkpt lat="62.631911359529" lon="17.969636394886">
        <ele>79</ele>
        <time>2017-10-30T18:43:38Z</time>
      </trkpt>
      <trkpt lat="62.631882609612" lon="17.969632539212">
        <ele>78.8</ele>
        <time>2017-10-30T18:43:39Z</time>
      </trkpt>
      <trkpt lat="62.631853021505" lon="17.969624911683">
        <ele>78.6</ele>
        <time>2017-10-30T18:43:40Z</time>
      </trkpt>
      <trkpt lat="62.631820499733" lon="17.969625666054">
        <ele>78.6</ele>
        <time>2017-10-30T18:43:41Z</time>
      </trkpt>
      <trkpt lat="62.631788397056" lon="17.969644357691">
        <ele>78.4</ele>
        <time>2017-10-30T18:43:42Z</time>
      </trkpt>
      <trkpt lat="62.631762496985" lon="17.969674029617">
        <ele>78.4</ele>
        <time>2017-10-30T18:43:43Z</time>
      </trkpt>
      <trkpt lat="62.631739111484" lon="17.969699678231">
        <ele>78.2</ele>
        <time>2017-10-30T18:43:44Z</time>
      </trkpt>
      <trkpt lat="62.631713881965" lon="17.969726667949">
        <ele>78.2</ele>
        <time>2017-10-30T18:43:45Z</time>
      </trkpt>
      <trkpt lat="62.631685970238" lon="17.969754747314">
        <ele>78.2</ele>
        <time>2017-10-30T18:43:46Z</time>
      </trkpt>
      <trkpt lat="62.631666943325" lon="17.969773606589">
        <ele>78.2</ele>
        <time>2017-10-30T18:43:47Z</time>
      </trkpt>
      <trkpt lat="62.631638361046" lon="17.969792884959">
        <ele>78</ele>
        <time>2017-10-30T18:43:48Z</time>
      </trkpt>
      <trkpt lat="62.631612460975" lon="17.969804871076">
        <ele>78</ele>
        <time>2017-10-30T18:43:49Z</time>
      </trkpt>
      <trkpt lat="62.631587650551" lon="17.969821467238">
        <ele>78.2</ele>
        <time>2017-10-30T18:43:50Z</time>
      </trkpt>
      <trkpt lat="62.631557140435" lon="17.96984141616">
        <ele>78.2</ele>
        <time>2017-10-30T18:43:51Z</time>
      </trkpt>
      <trkpt lat="62.631530988907" lon="17.969852815544">
        <ele>78.4</ele>
        <time>2017-10-30T18:43:52Z</time>
      </trkpt>
      <trkpt lat="62.631501736076" lon="17.969869830801">
        <ele>78.6</ele>
        <time>2017-10-30T18:43:53Z</time>
      </trkpt>
      <trkpt lat="62.631469801037" lon="17.969889779723">
        <ele>78.8</ele>
        <time>2017-10-30T18:43:54Z</time>
      </trkpt>
      <trkpt lat="62.631445325889" lon="17.969901346745">
        <ele>79</ele>
        <time>2017-10-30T18:43:55Z</time>
      </trkpt>
      <trkpt lat="62.631415486325" lon="17.96991769145">
        <ele>79</ele>
        <time>2017-10-30T18:43:56Z</time>
      </trkpt>
      <trkpt lat="62.631386484951" lon="17.969933281784">
        <ele>79</ele>
        <time>2017-10-30T18:43:57Z</time>
      </trkpt>
      <trkpt lat="62.631359914328" lon="17.969950716136">
        <ele>79</ele>
        <time>2017-10-30T18:43:58Z</time>
      </trkpt>
      <trkpt lat="62.631330745316" lon="17.969972257619">
        <ele>79</ele>
        <time>2017-10-30T18:43:59Z</time>
      </trkpt>
      <trkpt lat="62.631303168865" lon="17.969995726939">
        <ele>79</ele>
        <time>2017-10-30T18:44:00Z</time>
      </trkpt>
      <trkpt lat="62.631274586586" lon="17.970018358069">
        <ele>79.2</ele>
        <time>2017-10-30T18:44:01Z</time>
      </trkpt>
      <trkpt lat="62.631246507221" lon="17.970034618955">
        <ele>79.2</ele>
        <time>2017-10-30T18:44:02Z</time>
      </trkpt>
      <trkpt lat="62.631217086752" lon="17.970049957832">
        <ele>79.2</ele>
        <time>2017-10-30T18:44:03Z</time>
      </trkpt>
      <trkpt lat="62.631189426482" lon="17.970061776311">
        <ele>79.2</ele>
        <time>2017-10-30T18:44:04Z</time>
      </trkpt>
      <trkpt lat="62.631162185307" lon="17.970073259514">
        <ele>79.4</ele>
        <time>2017-10-30T18:44:05Z</time>
      </trkpt>
      <trkpt lat="62.631131675191" lon="17.970079629758">
        <ele>79.4</ele>
        <time>2017-10-30T18:44:06Z</time>
      </trkpt>
      <trkpt lat="62.631102338541" lon="17.970096142101">
        <ele>79.4</ele>
        <time>2017-10-30T18:44:07Z</time>
      </trkpt>
      <trkpt lat="62.631072079882" lon="17.970108631132">
        <ele>79.2</ele>
        <time>2017-10-30T18:44:08Z</time>
      </trkpt>
      <trkpt lat="62.631041066852" lon="17.970118186498">
        <ele>79.4</ele>
        <time>2017-10-30T18:44:09Z</time>
      </trkpt>
      <trkpt lat="62.630993709117" lon="17.97011801886">
        <ele>79.4</ele>
        <time>2017-10-30T18:44:11Z</time>
      </trkpt>
      <trkpt lat="62.630971161806" lon="17.970097986119">
        <ele>79.4</ele>
        <time>2017-10-30T18:44:12Z</time>
      </trkpt>
      <trkpt lat="62.630956661119" lon="17.970064709976">
        <ele>79.6</ele>
        <time>2017-10-30T18:44:13Z</time>
      </trkpt>
      <trkpt lat="62.630947943943" lon="17.970036295335">
        <ele>79.8</ele>
        <time>2017-10-30T18:44:14Z</time>
      </trkpt>
      <trkpt lat="62.630939478224" lon="17.970008886522">
        <ele>80</ele>
        <time>2017-10-30T18:44:15Z</time>
      </trkpt>
      <trkpt lat="62.630932185971" lon="17.969982902632">
        <ele>80.2</ele>
        <time>2017-10-30T18:44:16Z</time>
      </trkpt>
      <trkpt lat="62.630925145175" lon="17.969964881547">
        <ele>80.2</ele>
        <time>2017-10-30T18:44:17Z</time>
      </trkpt>
      <trkpt lat="62.630915841266" lon="17.969941663684">
        <ele>80</ele>
        <time>2017-10-30T18:44:18Z</time>
      </trkpt>
      <trkpt lat="62.630904944796" lon="17.969918110545">
        <ele>80</ele>
        <time>2017-10-30T18:44:19Z</time>
      </trkpt>
      <trkpt lat="62.630896395258" lon="17.96989254575">
        <ele>79.6</ele>
        <time>2017-10-30T18:44:20Z</time>
      </trkpt>
      <trkpt lat="62.630893210136" lon="17.969860862168">
        <ele>79.6</ele>
        <time>2017-10-30T18:44:21Z</time>
      </trkpt>
      <trkpt lat="62.630892204308" lon="17.969819120306">
        <ele>79.4</ele>
        <time>2017-10-30T18:44:22Z</time>
      </trkpt>
      <trkpt lat="62.630888348634" lon="17.969788358733">
        <ele>79.4</ele>
        <time>2017-10-30T18:44:23Z</time>
      </trkpt>
      <trkpt lat="62.630888180996" lon="17.969755334047">
        <ele>79.2</ele>
        <time>2017-10-30T18:44:24Z</time>
      </trkpt>
      <trkpt lat="62.630890779385" lon="17.969726081216">
        <ele>79</ele>
        <time>2017-10-30T18:44:25Z</time>
      </trkpt>
      <trkpt lat="62.630887594263" lon="17.969688530304">
        <ele>78.8</ele>
        <time>2017-10-30T18:44:26Z</time>
      </trkpt>
      <trkpt lat="62.630886253159" lon="17.96965869074">
        <ele>78.8</ele>
        <time>2017-10-30T18:44:27Z</time>
      </trkpt>
      <trkpt lat="62.630884995874" lon="17.969624157312">
        <ele>78.6</ele>
        <time>2017-10-30T18:44:28Z</time>
      </trkpt>
      <trkpt lat="62.6308811402" lon="17.969591886997">
        <ele>78.6</ele>
        <time>2017-10-30T18:44:29Z</time>
      </trkpt>
      <trkpt lat="62.630878290354" lon="17.969563891451">
        <ele>78.6</ele>
        <time>2017-10-30T18:44:30Z</time>
      </trkpt>
      <trkpt lat="62.630873931766" lon="17.969529777118">
        <ele>78.6</ele>
        <time>2017-10-30T18:44:31Z</time>
      </trkpt>
      <trkpt lat="62.630870746644" lon="17.969495578966">
        <ele>78.6</ele>
        <time>2017-10-30T18:44:32Z</time>
      </trkpt>
      <trkpt lat="62.630866220418" lon="17.969461799909">
        <ele>78.4</ele>
        <time>2017-10-30T18:44:33Z</time>
      </trkpt>
      <trkpt lat="62.630859850174" lon="17.969431289793">
        <ele>78.4</ele>
        <time>2017-10-30T18:44:34Z</time>
      </trkpt>
      <trkpt lat="62.630853899025" lon="17.96940471917">
        <ele>78</ele>
        <time>2017-10-30T18:44:35Z</time>
      </trkpt>
      <trkpt lat="62.63084677441" lon="17.969365994792">
        <ele>77.6</ele>
        <time>2017-10-30T18:44:36Z</time>
      </trkpt>
      <trkpt lat="62.630841829089" lon="17.969345542956">
        <ele>77.4</ele>
        <time>2017-10-30T18:44:37Z</time>
      </trkpt>
      <trkpt lat="62.630838643967" lon="17.969316876858">
        <ele>77</ele>
        <time>2017-10-30T18:44:38Z</time>
      </trkpt>
      <trkpt lat="62.63083420156" lon="17.969284103629">
        <ele>76.8</ele>
        <time>2017-10-30T18:44:39Z</time>
      </trkpt>
      <trkpt lat="62.63083168699" lon="17.969256862454">
        <ele>76.6</ele>
        <time>2017-10-30T18:44:40Z</time>
      </trkpt>
      <trkpt lat="62.630830429705" lon="17.969220485008">
        <ele>76.4</ele>
        <time>2017-10-30T18:44:41Z</time>
      </trkpt>
      <trkpt lat="62.630829423877" lon="17.969186203037">
        <ele>76.2</ele>
        <time>2017-10-30T18:44:42Z</time>
      </trkpt>
      <trkpt lat="62.630830345886" lon="17.969155441464">
        <ele>76</ele>
        <time>2017-10-30T18:44:43Z</time>
      </trkpt>
      <trkpt lat="62.630829759153" lon="17.969123338787">
        <ele>75.8</ele>
        <time>2017-10-30T18:44:44Z</time>
      </trkpt>
      <trkpt lat="62.630827076945" lon="17.969085536418">
        <ele>75.8</ele>
        <time>2017-10-30T18:44:45Z</time>
      </trkpt>
      <trkpt lat="62.630823053633" lon="17.969038849235">
        <ele>75.6</ele>
        <time>2017-10-30T18:44:46Z</time>
      </trkpt>
      <trkpt lat="62.630821293434" lon="17.969004231988">
        <ele>75.4</ele>
        <time>2017-10-30T18:44:47Z</time>
      </trkpt>
      <trkpt lat="62.63081659957" lon="17.968954275864">
        <ele>75.4</ele>
        <time>2017-10-30T18:44:48Z</time>
      </trkpt>
      <trkpt lat="62.630812827715" lon="17.968913791287">
        <ele>75.2</ele>
        <time>2017-10-30T18:44:49Z</time>
      </trkpt>
      <trkpt lat="62.630810816059" lon="17.968880766601">
        <ele>75.2</ele>
        <time>2017-10-30T18:44:50Z</time>
      </trkpt>
      <trkpt lat="62.630805451643" lon="17.968836174893">
        <ele>75</ele>
        <time>2017-10-30T18:44:51Z</time>
      </trkpt>
      <trkpt lat="62.630800422503" lon="17.968793930117">
        <ele>74.8</ele>
        <time>2017-10-30T18:44:52Z</time>
      </trkpt>
      <trkpt lat="62.63079396844" lon="17.968759396689">
        <ele>74.6</ele>
        <time>2017-10-30T18:44:53Z</time>
      </trkpt>
      <trkpt lat="62.630785083626" lon="17.968726036727">
        <ele>74.6</ele>
        <time>2017-10-30T18:44:54Z</time>
      </trkpt>
      <trkpt lat="62.630777288459" lon="17.968700974846">
        <ele>74.4</ele>
        <time>2017-10-30T18:44:55Z</time>
      </trkpt>
      <trkpt lat="62.630766643446" lon="17.96866795016">
        <ele>74.2</ele>
        <time>2017-10-30T18:44:56Z</time>
      </trkpt>
      <trkpt lat="62.630753232406" lon="17.968645570487">
        <ele>73.8</ele>
        <time>2017-10-30T18:44:57Z</time>
      </trkpt>
      <trkpt lat="62.630739737547" lon="17.968617994036">
        <ele>73.6</ele>
        <time>2017-10-30T18:44:58Z</time>
      </trkpt>
      <trkpt lat="62.630725991231" lon="17.96858999849">
        <ele>73.2</ele>
        <time>2017-10-30T18:44:59Z</time>
      </trkpt>
      <trkpt lat="62.63071014944" lon="17.968560242745">
        <ele>73</ele>
        <time>2017-10-30T18:45:00Z</time>
      </trkpt>
      <trkpt lat="62.630695229658" lon="17.968527469516">
        <ele>72.6</ele>
        <time>2017-10-30T18:45:01Z</time>
      </trkpt>
      <trkpt lat="62.630677711487" lon="17.968495618296">
        <ele>72.6</ele>
        <time>2017-10-30T18:45:02Z</time>
      </trkpt>
      <trkpt lat="62.630662204972" lon="17.968465443456">
        <ele>72.2</ele>
        <time>2017-10-30T18:45:03Z</time>
      </trkpt>
      <trkpt lat="62.630649715941" lon="17.968438621376">
        <ele>72</ele>
        <time>2017-10-30T18:45:04Z</time>
      </trkpt>
      <trkpt lat="62.630639490023" lon="17.968413056581">
        <ele>72</ele>
        <time>2017-10-30T18:45:05Z</time>
      </trkpt>
      <trkpt lat="62.63062549225" lon="17.968376008583">
        <ele>71.8</ele>
        <time>2017-10-30T18:45:06Z</time>
      </trkpt>
      <trkpt lat="62.6306129194" lon="17.968350779064">
        <ele>71.6</ele>
        <time>2017-10-30T18:45:07Z</time>
      </trkpt>
      <trkpt lat="62.630603866948" lon="17.968320604224">
        <ele>71.4</ele>
        <time>2017-10-30T18:45:08Z</time>
      </trkpt>
      <trkpt lat="62.630589952994" lon="17.968280119647">
        <ele>71</ele>
        <time>2017-10-30T18:45:09Z</time>
      </trkpt>
      <trkpt lat="62.630575955221" lon="17.968241395269">
        <ele>70.8</ele>
        <time>2017-10-30T18:45:10Z</time>
      </trkpt>
      <trkpt lat="62.630560867801" lon="17.968197893208">
        <ele>70.6</ele>
        <time>2017-10-30T18:45:11Z</time>
      </trkpt>
      <trkpt lat="62.630543181992" lon="17.968144835781">
        <ele>70.6</ele>
        <time>2017-10-30T18:45:12Z</time>
      </trkpt>
      <trkpt lat="62.630530944418" lon="17.968106614317">
        <ele>70.2</ele>
        <time>2017-10-30T18:45:13Z</time>
      </trkpt>
      <trkpt lat="62.630520467043" lon="17.968060681505">
        <ele>70</ele>
        <time>2017-10-30T18:45:14Z</time>
      </trkpt>
      <trkpt lat="62.630513593885" lon="17.96802338205">
        <ele>69.6</ele>
        <time>2017-10-30T18:45:15Z</time>
      </trkpt>
      <trkpt lat="62.630503870881" lon="17.96797057608">
        <ele>69.6</ele>
        <time>2017-10-30T18:45:16Z</time>
      </trkpt>
      <trkpt lat="62.630497165361" lon="17.967926235829">
        <ele>69.4</ele>
        <time>2017-10-30T18:45:17Z</time>
      </trkpt>
      <trkpt lat="62.630487023262" lon="17.96786747871">
        <ele>69</ele>
        <time>2017-10-30T18:45:18Z</time>
      </trkpt>
      <trkpt lat="62.630480401561" lon="17.967814505102">
        <ele>68.8</ele>
        <time>2017-10-30T18:45:19Z</time>
      </trkpt>
      <trkpt lat="62.630474282774" lon="17.967768991385">
        <ele>68.4</ele>
        <time>2017-10-30T18:45:20Z</time>
      </trkpt>
      <trkpt lat="62.630468583082" lon="17.967712748836">
        <ele>68.2</ele>
        <time>2017-10-30T18:45:21Z</time>
      </trkpt>
      <trkpt lat="62.630463134847" lon="17.967656841563">
        <ele>67.8</ele>
        <time>2017-10-30T18:45:22Z</time>
      </trkpt>
      <trkpt lat="62.630459195354" lon="17.967607220715">
        <ele>67.4</ele>
        <time>2017-10-30T18:45:23Z</time>
      </trkpt>
      <trkpt lat="62.630454836766" lon="17.967554498564">
        <ele>67</ele>
        <time>2017-10-30T18:45:24Z</time>
      </trkpt>
      <trkpt lat="62.630450645816" lon="17.967507979019">
        <ele>66.8</ele>
        <time>2017-10-30T18:45:25Z</time>
      </trkpt>
      <trkpt lat="62.630450226721" lon="17.967445617683">
        <ele>66.6</ele>
        <time>2017-10-30T18:45:26Z</time>
      </trkpt>
      <trkpt lat="62.63044947235" lon="17.967389458953">
        <ele>66.2</ele>
        <time>2017-10-30T18:45:27Z</time>
      </trkpt>
      <trkpt lat="62.630446706323" lon="17.967335647155">
        <ele>66</ele>
        <time>2017-10-30T18:45:28Z</time>
      </trkpt>
      <trkpt lat="62.630446287228" lon="17.96727906933">
        <ele>65.6</ele>
        <time>2017-10-30T18:45:29Z</time>
      </trkpt>
      <trkpt lat="62.630448801798" lon="17.96722710155">
        <ele>65.4</ele>
        <time>2017-10-30T18:45:30Z</time>
      </trkpt>
      <trkpt lat="62.630448801798" lon="17.967174463218">
        <ele>65.2</ele>
        <time>2017-10-30T18:45:31Z</time>
      </trkpt>
      <trkpt lat="62.630449304712" lon="17.967132888994">
        <ele>65</ele>
        <time>2017-10-30T18:45:32Z</time>
      </trkpt>
      <trkpt lat="62.63045114873" lon="17.967068013088">
        <ele>64.8</ele>
        <time>2017-10-30T18:45:33Z</time>
      </trkpt>
      <trkpt lat="62.630452657472" lon="17.967017218774">
        <ele>64.4</ele>
        <time>2017-10-30T18:45:34Z</time>
      </trkpt>
      <trkpt lat="62.630454669128" lon="17.966975896007">
        <ele>64.2</ele>
        <time>2017-10-30T18:45:35Z</time>
      </trkpt>
      <trkpt lat="62.630459195354" lon="17.966918815268">
        <ele>64</ele>
        <time>2017-10-30T18:45:36Z</time>
      </trkpt>
      <trkpt lat="62.630464056856" lon="17.966871289895">
        <ele>63.8</ele>
        <time>2017-10-30T18:45:37Z</time>
      </trkpt>
      <trkpt lat="62.630465733236" lon="17.966821333771">
        <ele>63.6</ele>
        <time>2017-10-30T18:45:38Z</time>
      </trkpt>
      <trkpt lat="62.630464895046" lon="17.966763331023">
        <ele>63.4</ele>
        <time>2017-10-30T18:45:39Z</time>
      </trkpt>
      <trkpt lat="62.630465817055" lon="17.966720248057">
        <ele>63</ele>
        <time>2017-10-30T18:45:40Z</time>
      </trkpt>
      <trkpt lat="62.630469169815" lon="17.966663754051">
        <ele>62.6</ele>
        <time>2017-10-30T18:45:41Z</time>
      </trkpt>
      <trkpt lat="62.630469421272" lon="17.966610948081">
        <ele>62.4</ele>
        <time>2017-10-30T18:45:42Z</time>
      </trkpt>
      <trkpt lat="62.630473863679" lon="17.966559650853">
        <ele>62</ele>
        <time>2017-10-30T18:45:43Z</time>
      </trkpt>
      <trkpt lat="62.630478809" lon="17.966514220955">
        <ele>61.6</ele>
        <time>2017-10-30T18:45:44Z</time>
      </trkpt>
      <trkpt lat="62.630480569199" lon="17.966469126333">
        <ele>61.4</ele>
        <time>2017-10-30T18:45:45Z</time>
      </trkpt>
      <trkpt lat="62.630480988294" lon="17.966406681178">
        <ele>61.2</ele>
        <time>2017-10-30T18:45:46Z</time>
      </trkpt>
      <trkpt lat="62.630478976638" lon="17.966358652891">
        <ele>60.8</ele>
        <time>2017-10-30T18:45:47Z</time>
      </trkpt>
      <trkpt lat="62.630481491208" lon="17.966302075066">
        <ele>60.8</ele>
        <time>2017-10-30T18:45:48Z</time>
      </trkpt>
      <trkpt lat="62.630484089597" lon="17.966253292408">
        <ele>60.4</ele>
        <time>2017-10-30T18:45:49Z</time>
      </trkpt>
      <trkpt lat="62.630486687986" lon="17.966205180302">
        <ele>60.4</ele>
        <time>2017-10-30T18:45:50Z</time>
      </trkpt>
      <trkpt lat="62.630489286375" lon="17.966149608305">
        <ele>60.2</ele>
        <time>2017-10-30T18:45:51Z</time>
      </trkpt>
      <trkpt lat="62.630491130393" lon="17.966106944434">
        <ele>60</ele>
        <time>2017-10-30T18:45:52Z</time>
      </trkpt>
      <trkpt lat="62.630494483153" lon="17.966054809016">
        <ele>59.8</ele>
        <time>2017-10-30T18:45:53Z</time>
      </trkpt>
      <trkpt lat="62.630496578628" lon="17.966000661942">
        <ele>59.4</ele>
        <time>2017-10-30T18:45:54Z</time>
      </trkpt>
      <trkpt lat="62.630496997723" lon="17.965956824605">
        <ele>59.4</ele>
        <time>2017-10-30T18:45:55Z</time>
      </trkpt>
      <trkpt lat="62.63049808737" lon="17.96589521764">
        <ele>59</ele>
        <time>2017-10-30T18:45:56Z</time>
      </trkpt>
      <trkpt lat="62.630499428474" lon="17.965841322023">
        <ele>58.8</ele>
        <time>2017-10-30T18:45:57Z</time>
      </trkpt>
      <trkpt lat="62.630499009379" lon="17.965784911836">
        <ele>58.6</ele>
        <time>2017-10-30T18:45:58Z</time>
      </trkpt>
      <trkpt lat="62.630502529777" lon="17.9657309324">
        <ele>58.4</ele>
        <time>2017-10-30T18:45:59Z</time>
      </trkpt>
      <trkpt lat="62.630506888365" lon="17.965675695679">
        <ele>58.2</ele>
        <time>2017-10-30T18:46:00Z</time>
      </trkpt>
      <trkpt lat="62.630511246953" lon="17.96562112951">
        <ele>57.8</ele>
        <time>2017-10-30T18:46:01Z</time>
      </trkpt>
      <trkpt lat="62.630516862826" lon="17.965572346852">
        <ele>57.6</ele>
        <time>2017-10-30T18:46:02Z</time>
      </trkpt>
      <trkpt lat="62.630525412364" lon="17.965524067108">
        <ele>57.4</ele>
        <time>2017-10-30T18:46:03Z</time>
      </trkpt>
      <trkpt lat="62.63053329135" lon="17.965492383526">
        <ele>57.2</ele>
        <time>2017-10-30T18:46:04Z</time>
      </trkpt>
      <trkpt lat="62.63053915868" lon="17.965474613898">
        <ele>57</ele>
        <time>2017-10-30T18:46:05Z</time>
      </trkpt>
      <trkpt lat="62.63054754058" lon="17.965463382152">
        <ele>57</ele>
        <time>2017-10-30T18:46:06Z</time>
      </trkpt>
      <trkpt lat="62.630556173937" lon="17.965458269193">
        <ele>57</ele>
        <time>2017-10-30T18:46:07Z</time>
      </trkpt>
      <trkpt lat="62.630556173937" lon="17.96545349151">
        <ele>56.8</ele>
        <time>2017-10-30T18:46:08Z</time>
      </trkpt>
      <trkpt lat="62.630554832833" lon="17.965464052704">
        <ele>56.8</ele>
        <time>2017-10-30T18:46:09Z</time>
      </trkpt>
      <trkpt lat="62.630613254676" lon="17.965449635836">
        <ele>57</ele>
        <time>2017-10-30T18:46:13Z</time>
      </trkpt>
      <trkpt lat="62.63064393243" lon="17.965448797646">
        <ele>57</ele>
        <time>2017-10-30T18:46:14Z</time>
      </trkpt>
      <trkpt lat="62.630675280736" lon="17.96544930056">
        <ele>57</ele>
        <time>2017-10-30T18:46:15Z</time>
      </trkpt>
      <trkpt lat="62.630709478888" lon="17.965456341356">
        <ele>57.2</ele>
        <time>2017-10-30T18:46:16Z</time>
      </trkpt>
      <trkpt lat="62.630739905185" lon="17.965468411292">
        <ele>57</ele>
        <time>2017-10-30T18:46:17Z</time>
      </trkpt>
      <trkpt lat="62.63077133731" lon="17.965484420721">
        <ele>57</ele>
        <time>2017-10-30T18:46:18Z</time>
      </trkpt>
      <trkpt lat="62.630800171046" lon="17.965504788738">
        <ele>57</ele>
        <time>2017-10-30T18:46:19Z</time>
      </trkpt>
      <trkpt lat="62.630827412221" lon="17.965517277769">
        <ele>57</ele>
        <time>2017-10-30T18:46:20Z</time>
      </trkpt>
      <trkpt lat="62.630860017812" lon="17.965524821479">
        <ele>57.2</ele>
        <time>2017-10-30T18:46:21Z</time>
      </trkpt>
      <trkpt lat="62.630886756073" lon="17.965517864502">
        <ele>57.4</ele>
        <time>2017-10-30T18:46:22Z</time>
      </trkpt>
      <trkpt lat="62.630922965881" lon="17.965499927236">
        <ele>57.6</ele>
        <time>2017-10-30T18:46:23Z</time>
      </trkpt>
      <trkpt lat="62.630954649463" lon="17.96547779902">
        <ele>58</ele>
        <time>2017-10-30T18:46:24Z</time>
      </trkpt>
      <trkpt lat="62.630979124611" lon="17.965457431003">
        <ele>58.2</ele>
        <time>2017-10-30T18:46:25Z</time>
      </trkpt>
      <trkpt lat="62.631017429894" lon="17.96542666943">
        <ele>58.4</ele>
        <time>2017-10-30T18:46:26Z</time>
      </trkpt>
      <trkpt lat="62.631046347449" lon="17.965393896201">
        <ele>58.4</ele>
        <time>2017-10-30T18:46:27Z</time>
      </trkpt>
      <trkpt lat="62.631074678271" lon="17.965362212619">
        <ele>58.6</ele>
        <time>2017-10-30T18:46:28Z</time>
      </trkpt>
      <trkpt lat="62.631104350197" lon="17.965337402195">
        <ele>58.8</ele>
        <time>2017-10-30T18:46:29Z</time>
      </trkpt>
      <trkpt lat="62.631128909164" lon="17.965322650051">
        <ele>58.8</ele>
        <time>2017-10-30T18:46:30Z</time>
      </trkpt>
      <trkpt lat="62.631159922194" lon="17.965330529037">
        <ele>58.8</ele>
        <time>2017-10-30T18:46:31Z</time>
      </trkpt>
      <trkpt lat="62.63118707955" lon="17.965347963389">
        <ele>58.8</ele>
        <time>2017-10-30T18:46:32Z</time>
      </trkpt>
      <trkpt lat="62.631214991277" lon="17.965373276727">
        <ele>59</ele>
        <time>2017-10-30T18:46:33Z</time>
      </trkpt>
      <trkpt lat="62.631239969339" lon="17.965395153486">
        <ele>59</ele>
        <time>2017-10-30T18:46:34Z</time>
      </trkpt>
      <trkpt lat="62.631261343184" lon="17.965417533159">
        <ele>59.2</ele>
        <time>2017-10-30T18:46:35Z</time>
      </trkpt>
      <trkpt lat="62.631284644866" lon="17.965443181773">
        <ele>59.4</ele>
        <time>2017-10-30T18:46:36Z</time>
      </trkpt>
      <trkpt lat="62.631308952376" lon="17.965469584758">
        <ele>59.6</ele>
        <time>2017-10-30T18:46:37Z</time>
      </trkpt>
      <trkpt lat="62.631332840791" lon="17.965491377698">
        <ele>59.4</ele>
        <time>2017-10-30T18:46:38Z</time>
      </trkpt>
      <trkpt lat="62.631356226292" lon="17.965514763199">
        <ele>59.4</ele>
        <time>2017-10-30T18:46:39Z</time>
      </trkpt>
      <trkpt lat="62.631379779431" lon="17.965536388501">
        <ele>59.4</ele>
        <time>2017-10-30T18:46:40Z</time>
      </trkpt>
      <trkpt lat="62.631405930959" lon="17.965560528373">
        <ele>59.6</ele>
        <time>2017-10-30T18:46:41Z</time>
      </trkpt>
      <trkpt lat="62.631430322288" lon="17.96558089639">
        <ele>59.6</ele>
        <time>2017-10-30T18:46:42Z</time>
      </trkpt>
      <trkpt lat="62.631456054721" lon="17.965600510036">
        <ele>59.8</ele>
        <time>2017-10-30T18:46:43Z</time>
      </trkpt>
      <trkpt lat="62.631479440222" lon="17.965618028207">
        <ele>60</ele>
        <time>2017-10-30T18:46:44Z</time>
      </trkpt>
      <trkpt lat="62.631503328637" lon="17.965638563862">
        <ele>60.4</ele>
        <time>2017-10-30T18:46:45Z</time>
      </trkpt>
      <trkpt lat="62.631528139061" lon="17.965662117001">
        <ele>60.4</ele>
        <time>2017-10-30T18:46:46Z</time>
      </trkpt>
      <trkpt lat="62.631550267277" lon="17.965684915769">
        <ele>60.6</ele>
        <time>2017-10-30T18:46:47Z</time>
      </trkpt>
      <trkpt lat="62.631575496796" lon="17.965709642374">
        <ele>60.8</ele>
        <time>2017-10-30T18:46:48Z</time>
      </trkpt>
      <trkpt lat="62.631597541193" lon="17.965728082554">
        <ele>61</ele>
        <time>2017-10-30T18:46:49Z</time>
      </trkpt>
      <trkpt lat="62.631619837047" lon="17.965749288761">
        <ele>61</ele>
        <time>2017-10-30T18:46:50Z</time>
      </trkpt>
      <trkpt lat="62.631645737118" lon="17.965773344814">
        <ele>61.2</ele>
        <time>2017-10-30T18:46:51Z</time>
      </trkpt>
      <trkpt lat="62.631668452067" lon="17.96579044389">
        <ele>61.2</ele>
        <time>2017-10-30T18:46:52Z</time>
      </trkpt>
      <trkpt lat="62.631692089025" lon="17.96580553131">
        <ele>61.2</ele>
        <time>2017-10-30T18:46:53Z</time>
      </trkpt>
      <trkpt lat="62.631715725983" lon="17.965824474404">
        <ele>61.4</ele>
        <time>2017-10-30T18:46:54Z</time>
      </trkpt>
      <trkpt lat="62.631735926362" lon="17.965840567652">
        <ele>61.4</ele>
        <time>2017-10-30T18:46:55Z</time>
      </trkpt>
      <trkpt lat="62.631763083718" lon="17.965864372248">
        <ele>61.6</ele>
        <time>2017-10-30T18:46:56Z</time>
      </trkpt>
      <trkpt lat="62.631787307409" lon="17.965886919559">
        <ele>61.6</ele>
        <time>2017-10-30T18:46:57Z</time>
      </trkpt>
      <trkpt lat="62.631809351806" lon="17.965902174617">
        <ele>61.8</ele>
        <time>2017-10-30T18:46:58Z</time>
      </trkpt>
      <trkpt lat="62.631834916601" lon="17.96592203972">
        <ele>62</ele>
        <time>2017-10-30T18:46:59Z</time>
      </trkpt>
      <trkpt lat="62.63185846974" lon="17.96593880352">
        <ele>62</ele>
        <time>2017-10-30T18:47:00Z</time>
      </trkpt>
      <trkpt lat="62.631881855241" lon="17.965955986415">
        <ele>62.2</ele>
        <time>2017-10-30T18:47:01Z</time>
      </trkpt>
      <trkpt lat="62.631903732" lon="17.965971744387">
        <ele>62.4</ele>
        <time>2017-10-30T18:47:02Z</time>
      </trkpt>
      <trkpt lat="62.631929883528" lon="17.965985825979">
        <ele>62.4</ele>
        <time>2017-10-30T18:47:03Z</time>
      </trkpt>
      <trkpt lat="62.631952095563" lon="17.965997057725">
        <ele>62.6</ele>
        <time>2017-10-30T18:47:04Z</time>
      </trkpt>
      <trkpt lat="62.631975732521" lon="17.966017425742">
        <ele>62.8</ele>
        <time>2017-10-30T18:47:05Z</time>
      </trkpt>
      <trkpt lat="62.632000207669" lon="17.96603435718">
        <ele>62.8</ele>
        <time>2017-10-30T18:47:06Z</time>
      </trkpt>
      <trkpt lat="62.632024012265" lon="17.96604776822">
        <ele>62.8</ele>
        <time>2017-10-30T18:47:07Z</time>
      </trkpt>
      <trkpt lat="62.632050331431" lon="17.966063023278">
        <ele>63</ele>
        <time>2017-10-30T18:47:08Z</time>
      </trkpt>
      <trkpt lat="62.632075728588" lon="17.966075763766">
        <ele>63</ele>
        <time>2017-10-30T18:47:09Z</time>
      </trkpt>
      <trkpt lat="62.632098611175" lon="17.966085151494">
        <ele>63.2</ele>
        <time>2017-10-30T18:47:10Z</time>
      </trkpt>
      <trkpt lat="62.632126019988" lon="17.966097137611">
        <ele>63.4</ele>
        <time>2017-10-30T18:47:11Z</time>
      </trkpt>
      <trkpt lat="62.63215015986" lon="17.96610392695">
        <ele>63.6</ele>
        <time>2017-10-30T18:47:12Z</time>
      </trkpt>
      <trkpt lat="62.632177065759" lon="17.966112727945">
        <ele>63.6</ele>
        <time>2017-10-30T18:47:13Z</time>
      </trkpt>
      <trkpt lat="62.632203049649" lon="17.966127312451">
        <ele>64</ele>
        <time>2017-10-30T18:47:14Z</time>
      </trkpt>
      <trkpt lat="62.632226854245" lon="17.966142316052">
        <ele>64</ele>
        <time>2017-10-30T18:47:15Z</time>
      </trkpt>
      <trkpt lat="62.632256358533" lon="17.966155978549">
        <ele>64</ele>
        <time>2017-10-30T18:47:16Z</time>
      </trkpt>
      <trkpt lat="62.632280498405" lon="17.966164360449">
        <ele>64.2</ele>
        <time>2017-10-30T18:47:17Z</time>
      </trkpt>
      <trkpt lat="62.63230857777" lon="17.966171149788">
        <ele>64.2</ele>
        <time>2017-10-30T18:47:18Z</time>
      </trkpt>
      <trkpt lat="62.632335651307" lon="17.96618020224">
        <ele>64.4</ele>
        <time>2017-10-30T18:47:19Z</time>
      </trkpt>
      <trkpt lat="62.632360880826" lon="17.966187243036">
        <ele>64.4</ele>
        <time>2017-10-30T18:47:20Z</time>
      </trkpt>
      <trkpt lat="62.6323898822" lon="17.966195708755">
        <ele>64.4</ele>
        <time>2017-10-30T18:47:21Z</time>
      </trkpt>
      <trkpt lat="62.632416452823" lon="17.966207108139">
        <ele>64.6</ele>
        <time>2017-10-30T18:47:22Z</time>
      </trkpt>
      <trkpt lat="62.632439754505" lon="17.966217334057">
        <ele>64.6</ele>
        <time>2017-10-30T18:47:23Z</time>
      </trkpt>
      <trkpt lat="62.632466408947" lon="17.96622630269">
        <ele>64.8</ele>
        <time>2017-10-30T18:47:24Z</time>
      </trkpt>
      <trkpt lat="62.632491554647" lon="17.966234852228">
        <ele>64.8</ele>
        <time>2017-10-30T18:47:25Z</time>
      </trkpt>
      <trkpt lat="62.632517622356" lon="17.96623887554">
        <ele>65</ele>
        <time>2017-10-30T18:47:26Z</time>
      </trkpt>
      <trkpt lat="62.632543857703" lon="17.966242144481">
        <ele>65</ele>
        <time>2017-10-30T18:47:27Z</time>
      </trkpt>
      <trkpt lat="62.632571182697" lon="17.966244407594">
        <ele>65.2</ele>
        <time>2017-10-30T18:47:28Z</time>
      </trkpt>
      <trkpt lat="62.632595741664" lon="17.966248011811">
        <ele>65.2</ele>
        <time>2017-10-30T18:47:29Z</time>
      </trkpt>
      <trkpt lat="62.632621809373" lon="17.96625647753">
        <ele>65.4</ele>
        <time>2017-10-30T18:47:30Z</time>
      </trkpt>
      <trkpt lat="62.632650726928" lon="17.966265613801">
        <ele>65.4</ele>
        <time>2017-10-30T18:47:31Z</time>
      </trkpt>
      <trkpt lat="62.632674782981" lon="17.966271900226">
        <ele>65.4</ele>
        <time>2017-10-30T18:47:32Z</time>
      </trkpt>
      <trkpt lat="62.632702107975" lon="17.966277180823">
        <ele>65.4</ele>
        <time>2017-10-30T18:47:33Z</time>
      </trkpt>
      <trkpt lat="62.632728762417" lon="17.966279527755">
        <ele>65.4</ele>
        <time>2017-10-30T18:47:34Z</time>
      </trkpt>
      <trkpt lat="62.632754830126" lon="17.966279695393">
        <ele>65.6</ele>
        <time>2017-10-30T18:47:35Z</time>
      </trkpt>
      <trkpt lat="62.632783580043" lon="17.966281539411">
        <ele>65.6</ele>
        <time>2017-10-30T18:47:36Z</time>
      </trkpt>
      <trkpt lat="62.632810402123" lon="17.966284640714">
        <ele>65.8</ele>
        <time>2017-10-30T18:47:37Z</time>
      </trkpt>
      <trkpt lat="62.63283663747" lon="17.966288999302">
        <ele>66</ele>
        <time>2017-10-30T18:47:38Z</time>
      </trkpt>
      <trkpt lat="62.632863040455" lon="17.966292603519">
        <ele>66.2</ele>
        <time>2017-10-30T18:47:39Z</time>
      </trkpt>
      <trkpt lat="62.632886761232" lon="17.966291849148">
        <ele>66.4</ele>
        <time>2017-10-30T18:47:40Z</time>
      </trkpt>
      <trkpt lat="62.632913248036" lon="17.966289083121">
        <ele>66.4</ele>
        <time>2017-10-30T18:47:41Z</time>
      </trkpt>
      <trkpt lat="62.632938645193" lon="17.966293944623">
        <ele>66.6</ele>
        <time>2017-10-30T18:47:42Z</time>
      </trkpt>
      <trkpt lat="62.632963623255" lon="17.966295621003">
        <ele>66.6</ele>
        <time>2017-10-30T18:47:43Z</time>
      </trkpt>
      <trkpt lat="62.632989271869" lon="17.96630006341">
        <ele>66.6</ele>
        <time>2017-10-30T18:47:44Z</time>
      </trkpt>
      <trkpt lat="62.633016093949" lon="17.966301236876">
        <ele>66.6</ele>
        <time>2017-10-30T18:47:45Z</time>
      </trkpt>
      <trkpt lat="62.633041742563" lon="17.966300482505">
        <ele>66.6</ele>
        <time>2017-10-30T18:47:46Z</time>
      </trkpt>
      <trkpt lat="62.633067726453" lon="17.966299560496">
        <ele>66.8</ele>
        <time>2017-10-30T18:47:47Z</time>
      </trkpt>
      <trkpt lat="62.633095386723" lon="17.966295537184">
        <ele>66.6</ele>
        <time>2017-10-30T18:47:48Z</time>
      </trkpt>
      <trkpt lat="62.633121538251" lon="17.96628832875">
        <ele>66.8</ele>
        <time>2017-10-30T18:47:49Z</time>
      </trkpt>
      <trkpt lat="62.633146851589" lon="17.96628832875">
        <ele>67</ele>
        <time>2017-10-30T18:47:50Z</time>
      </trkpt>
      <trkpt lat="62.633174930954" lon="17.966283802524">
        <ele>67</ele>
        <time>2017-10-30T18:47:51Z</time>
      </trkpt>
      <trkpt lat="62.633202255948" lon="17.966279024841">
        <ele>67</ele>
        <time>2017-10-30T18:47:52Z</time>
      </trkpt>
      <trkpt lat="62.633231592598" lon="17.96627994685">
        <ele>67.2</ele>
        <time>2017-10-30T18:47:53Z</time>
      </trkpt>
      <trkpt lat="62.633257660307" lon="17.966279863031">
        <ele>67</ele>
        <time>2017-10-30T18:47:54Z</time>
      </trkpt>
      <trkpt lat="62.633284650025" lon="17.966283215791">
        <ele>67</ele>
        <time>2017-10-30T18:47:55Z</time>
      </trkpt>
      <trkpt lat="62.633314489589" lon="17.966283048153">
        <ele>67</ele>
        <time>2017-10-30T18:47:56Z</time>
      </trkpt>
      <trkpt lat="62.633341395488" lon="17.966280701221">
        <ele>67</ele>
        <time>2017-10-30T18:47:57Z</time>
      </trkpt>
      <trkpt lat="62.633367295559" lon="17.96628246142">
        <ele>66.8</ele>
        <time>2017-10-30T18:47:58Z</time>
      </trkpt>
      <trkpt lat="62.633392189802" lon="17.966280198307">
        <ele>67</ele>
        <time>2017-10-30T18:47:59Z</time>
      </trkpt>
      <trkpt lat="62.633418676606" lon="17.966277599918">
        <ele>67.2</ele>
        <time>2017-10-30T18:48:00Z</time>
      </trkpt>
      <trkpt lat="62.633448432351" lon="17.966283551067">
        <ele>67.2</ele>
        <time>2017-10-30T18:48:01Z</time>
      </trkpt>
      <trkpt lat="62.633474583879" lon="17.966293274071">
        <ele>67.2</ele>
        <time>2017-10-30T18:48:02Z</time>
      </trkpt>
      <trkpt lat="62.6335046749" lon="17.966306182197">
        <ele>67.2</ele>
        <time>2017-10-30T18:48:03Z</time>
      </trkpt>
      <trkpt lat="62.633533257179" lon="17.966306685111">
        <ele>67.4</ele>
        <time>2017-10-30T18:48:04Z</time>
      </trkpt>
      <trkpt lat="62.63355999544" lon="17.966301823609">
        <ele>67.4</ele>
        <time>2017-10-30T18:48:05Z</time>
      </trkpt>
      <trkpt lat="62.633592265755" lon="17.966300482505">
        <ele>67.2</ele>
        <time>2017-10-30T18:48:06Z</time>
      </trkpt>
      <trkpt lat="62.633619674568" lon="17.966303919084">
        <ele>67</ele>
        <time>2017-10-30T18:48:07Z</time>
      </trkpt>
      <trkpt lat="62.633645323182" lon="17.966319006504">
        <ele>67.2</ele>
        <time>2017-10-30T18:48:08Z</time>
      </trkpt>
      <trkpt lat="62.633668373407" lon="17.966348091697">
        <ele>67.4</ele>
        <time>2017-10-30T18:48:09Z</time>
      </trkpt>
      <trkpt lat="62.633686897406" lon="17.966381535478">
        <ele>67.4</ele>
        <time>2017-10-30T18:48:10Z</time>
      </trkpt>
      <trkpt lat="62.633702152464" lon="17.966428138842">
        <ele>67.6</ele>
        <time>2017-10-30T18:48:11Z</time>
      </trkpt>
      <trkpt lat="62.633708522708" lon="17.966480441898">
        <ele>67.8</ele>
        <time>2017-10-30T18:48:12Z</time>
      </trkpt>
      <trkpt lat="62.633708774165" lon="17.966526877624">
        <ele>68</ele>
        <time>2017-10-30T18:48:13Z</time>
      </trkpt>
      <trkpt lat="62.633705756681" lon="17.966577001386">
        <ele>68</ele>
        <time>2017-10-30T18:48:14Z</time>
      </trkpt>
      <trkpt lat="62.633702068645" lon="17.966624526759">
        <ele>68.4</ele>
        <time>2017-10-30T18:48:15Z</time>
      </trkpt>
      <trkpt lat="62.63369913498" lon="17.96667557253">
        <ele>68.8</ele>
        <time>2017-10-30T18:48:16Z</time>
      </trkpt>
      <trkpt lat="62.63369662041" lon="17.966720248057">
        <ele>69.2</ele>
        <time>2017-10-30T18:48:17Z</time>
      </trkpt>
      <trkpt lat="62.633690250166" lon="17.966774814226">
        <ele>69.6</ele>
        <time>2017-10-30T18:48:18Z</time>
      </trkpt>
      <trkpt lat="62.633686059216" lon="17.966821082314">
        <ele>70</ele>
        <time>2017-10-30T18:48:19Z</time>
      </trkpt>
      <trkpt lat="62.633681616809" lon="17.966865506384">
        <ele>70</ele>
        <time>2017-10-30T18:48:20Z</time>
      </trkpt>
      <trkpt lat="62.6336723129" lon="17.966914875775">
        <ele>70.2</ele>
        <time>2017-10-30T18:48:21Z</time>
      </trkpt>
      <trkpt lat="62.633667116122" lon="17.966956114723">
        <ele>70.6</ele>
        <time>2017-10-30T18:48:22Z</time>
      </trkpt>
      <trkpt lat="62.633662422258" lon="17.967003221001">
        <ele>70.6</ele>
        <time>2017-10-30T18:48:23Z</time>
      </trkpt>
      <trkpt lat="62.633657896032" lon="17.967052255116">
        <ele>70.8</ele>
        <time>2017-10-30T18:48:24Z</time>
      </trkpt>
      <trkpt lat="62.633653621263" lon="17.967094583711">
        <ele>70.8</ele>
        <time>2017-10-30T18:48:25Z</time>
      </trkpt>
      <trkpt lat="62.6336471672" lon="17.967147054405">
        <ele>71</ele>
        <time>2017-10-30T18:48:26Z</time>
      </trkpt>
      <trkpt lat="62.633638701481" lon="17.967194160683">
        <ele>71.2</ele>
        <time>2017-10-30T18:48:27Z</time>
      </trkpt>
      <trkpt lat="62.633632750332" lon="17.967239842038">
        <ele>71.2</ele>
        <time>2017-10-30T18:48:28Z</time>
      </trkpt>
      <trkpt lat="62.633624284613" lon="17.967280326615">
        <ele>71.6</ele>
        <time>2017-10-30T18:48:29Z</time>
      </trkpt>
      <trkpt lat="62.633618165826" lon="17.967329444549">
        <ele>71.8</ele>
        <time>2017-10-30T18:48:30Z</time>
      </trkpt>
      <trkpt lat="62.633612549953" lon="17.967383926899">
        <ele>72</ele>
        <time>2017-10-30T18:48:31Z</time>
      </trkpt>
      <trkpt lat="62.633605341519" lon="17.967428602426">
        <ele>72</ele>
        <time>2017-10-30T18:48:32Z</time>
      </trkpt>
      <trkpt lat="62.633600060922" lon="17.967480989301">
        <ele>72.2</ele>
        <time>2017-10-30T18:48:33Z</time>
      </trkpt>
      <trkpt lat="62.633596708162" lon="17.967527676484">
        <ele>72.4</ele>
        <time>2017-10-30T18:48:34Z</time>
      </trkpt>
      <trkpt lat="62.63359184666" lon="17.9675749504">
        <ele>72.6</ele>
        <time>2017-10-30T18:48:35Z</time>
      </trkpt>
      <trkpt lat="62.633584722045" lon="17.967628510741">
        <ele>72.8</ele>
        <time>2017-10-30T18:48:36Z</time>
      </trkpt>
      <trkpt lat="62.633579944362" lon="17.967672012802">
        <ele>73</ele>
        <time>2017-10-30T18:48:37Z</time>
      </trkpt>
      <trkpt lat="62.633575501955" lon="17.967722220383">
        <ele>73.2</ele>
        <time>2017-10-30T18:48:38Z</time>
      </trkpt>
      <trkpt lat="62.633570221358" lon="17.967772679421">
        <ele>73.4</ele>
        <time>2017-10-30T18:48:39Z</time>
      </trkpt>
      <trkpt lat="62.633564773123" lon="17.967813583093">
        <ele>73.6</ele>
        <time>2017-10-30T18:48:40Z</time>
      </trkpt>
      <trkpt lat="62.633556475042" lon="17.967867730167">
        <ele>73.8</ele>
        <time>2017-10-30T18:48:41Z</time>
      </trkpt>
      <trkpt lat="62.633548931332" lon="17.967921709603">
        <ele>74</ele>
        <time>2017-10-30T18:48:42Z</time>
      </trkpt>
      <trkpt lat="62.63354406983" lon="17.967974683211">
        <ele>74.2</ele>
        <time>2017-10-30T18:48:43Z</time>
      </trkpt>
      <trkpt lat="62.633537783405" lon="17.968032015407">
        <ele>74.4</ele>
        <time>2017-10-30T18:48:44Z</time>
      </trkpt>
      <trkpt lat="62.633532838084" lon="17.968080714246">
        <ele>74.6</ele>
        <time>2017-10-30T18:48:45Z</time>
      </trkpt>
      <trkpt lat="62.633527557487" lon="17.968134945139">
        <ele>74.6</ele>
        <time>2017-10-30T18:48:46Z</time>
      </trkpt>
      <trkpt lat="62.633521606338" lon="17.968182051417">
        <ele>74.8</ele>
        <time>2017-10-30T18:48:47Z</time>
      </trkpt>
      <trkpt lat="62.633515236094" lon="17.968238293966">
        <ele>75</ele>
        <time>2017-10-30T18:48:48Z</time>
      </trkpt>
      <trkpt lat="62.633509871678" lon="17.968291435212">
        <ele>75</ele>
        <time>2017-10-30T18:48:49Z</time>
      </trkpt>
      <trkpt lat="62.633503752891" lon="17.968341558974">
        <ele>75.2</ele>
        <time>2017-10-30T18:48:50Z</time>
      </trkpt>
      <trkpt lat="62.633496628276" lon="17.968396879514">
        <ele>75.4</ele>
        <time>2017-10-30T18:48:51Z</time>
      </trkpt>
      <trkpt lat="62.63349042567" lon="17.968445159258">
        <ele>75.6</ele>
        <time>2017-10-30T18:48:52Z</time>
      </trkpt>
      <trkpt lat="62.633483301055" lon="17.9684969594">
        <ele>75.8</ele>
        <time>2017-10-30T18:48:53Z</time>
      </trkpt>
      <trkpt lat="62.633476930811" lon="17.968548172809">
        <ele>76</ele>
        <time>2017-10-30T18:48:54Z</time>
      </trkpt>
      <trkpt lat="62.633472069309" lon="17.968593854164">
        <ele>76.2</ele>
        <time>2017-10-30T18:48:55Z</time>
      </trkpt>
      <trkpt lat="62.633464860875" lon="17.96865034817">
        <ele>76.4</ele>
        <time>2017-10-30T18:48:56Z</time>
      </trkpt>
      <trkpt lat="62.633459161183" lon="17.968699717561">
        <ele>76.6</ele>
        <time>2017-10-30T18:48:57Z</time>
      </trkpt>
      <trkpt lat="62.633452455663" lon="17.968749003133">
        <ele>76.8</ele>
        <time>2017-10-30T18:48:58Z</time>
      </trkpt>
      <trkpt lat="62.633443822306" lon="17.968801138551">
        <ele>77</ele>
        <time>2017-10-30T18:48:59Z</time>
      </trkpt>
      <trkpt lat="62.633437703519" lon="17.968850927037">
        <ele>77.2</ele>
        <time>2017-10-30T18:49:00Z</time>
      </trkpt>
      <trkpt lat="62.633431668551" lon="17.968909097423">
        <ele>77.4</ele>
        <time>2017-10-30T18:49:01Z</time>
      </trkpt>
      <trkpt lat="62.633425465945" lon="17.96895880209">
        <ele>77.6</ele>
        <time>2017-10-30T18:49:02Z</time>
      </trkpt>
      <trkpt lat="62.633418928063" lon="17.969011105146">
        <ele>77.6</ele>
        <time>2017-10-30T18:49:03Z</time>
      </trkpt>
      <trkpt lat="62.633413647466" lon="17.969064162573">
        <ele>77.8</ele>
        <time>2017-10-30T18:49:04Z</time>
      </trkpt>
      <trkpt lat="62.633407863955" lon="17.9691088381">
        <ele>78</ele>
        <time>2017-10-30T18:49:05Z</time>
      </trkpt>
      <trkpt lat="62.633402583358" lon="17.969160302966">
        <ele>78</ele>
        <time>2017-10-30T18:49:06Z</time>
      </trkpt>
      <trkpt lat="62.633396967485" lon="17.969224340682">
        <ele>78.2</ele>
        <time>2017-10-30T18:49:07Z</time>
      </trkpt>
      <trkpt lat="62.633391351612" lon="17.969284271267">
        <ele>78.4</ele>
        <time>2017-10-30T18:49:08Z</time>
      </trkpt>
      <trkpt lat="62.633387244481" lon="17.969335903771">
        <ele>78.6</ele>
        <time>2017-10-30T18:49:09Z</time>
      </trkpt>
      <trkpt lat="62.633382131522" lon="17.969388542103">
        <ele>78.8</ele>
        <time>2017-10-30T18:49:10Z</time>
      </trkpt>
      <trkpt lat="62.633378024391" lon="17.969449059421">
        <ele>79</ele>
        <time>2017-10-30T18:49:11Z</time>
      </trkpt>
      <trkpt lat="62.633375174545" lon="17.969506475436">
        <ele>79.2</ele>
        <time>2017-10-30T18:49:12Z</time>
      </trkpt>
      <trkpt lat="62.633366625007" lon="17.969562466528">
        <ele>79.4</ele>
        <time>2017-10-30T18:49:13Z</time>
      </trkpt>
      <trkpt lat="62.633350950854" lon="17.969602196734">
        <ele>79.6</ele>
        <time>2017-10-30T18:49:14Z</time>
      </trkpt>
      <trkpt lat="62.63332949319" lon="17.969622983846">
        <ele>79.8</ele>
        <time>2017-10-30T18:49:15Z</time>
      </trkpt>
      <trkpt lat="62.633307532612" lon="17.969634467049">
        <ele>80</ele>
        <time>2017-10-30T18:49:16Z</time>
      </trkpt>
      <trkpt lat="62.633281464903" lon="17.969645195881">
        <ele>80.2</ele>
        <time>2017-10-30T18:49:17Z</time>
      </trkpt>
      <trkpt lat="62.633253134081" lon="17.969668162287">
        <ele>80.4</ele>
        <time>2017-10-30T18:49:18Z</time>
      </trkpt>
      <trkpt lat="62.633223545974" lon="17.96968048368">
        <ele>80.4</ele>
        <time>2017-10-30T18:49:19Z</time>
      </trkpt>
      <trkpt lat="62.633198819369" lon="17.969688949399">
        <ele>80.4</ele>
        <time>2017-10-30T18:49:20Z</time>
      </trkpt>
      <trkpt lat="62.633170823823" lon="17.969693307987">
        <ele>80.4</ele>
        <time>2017-10-30T18:49:21Z</time>
      </trkpt>
      <trkpt lat="62.633143582648" lon="17.969691715426">
        <ele>80.4</ele>
        <time>2017-10-30T18:49:22Z</time>
      </trkpt>
      <trkpt lat="62.633119023681" lon="17.969693307987">
        <ele>80.4</ele>
        <time>2017-10-30T18:49:23Z</time>
      </trkpt>
      <trkpt lat="62.633092536877" lon="17.969695235824">
        <ele>80.2</ele>
        <time>2017-10-30T18:49:24Z</time>
      </trkpt>
      <trkpt lat="62.633067307358" lon="17.969694481453">
        <ele>80.2</ele>
        <time>2017-10-30T18:49:25Z</time>
      </trkpt>
      <trkpt lat="62.633038976536" lon="17.969694397634">
        <ele>80.2</ele>
        <time>2017-10-30T18:49:26Z</time>
      </trkpt>
      <trkpt lat="62.63301181918" lon="17.969694649091">
        <ele>80.2</ele>
        <time>2017-10-30T18:49:27Z</time>
      </trkpt>
      <trkpt lat="62.632982650168" lon="17.969692385978">
        <ele>80.2</ele>
        <time>2017-10-30T18:49:28Z</time>
      </trkpt>
      <trkpt lat="62.632956163364" lon="17.969686015734">
        <ele>80.2</ele>
        <time>2017-10-30T18:49:29Z</time>
      </trkpt>
      <trkpt lat="62.632930179474" lon="17.969678723481">
        <ele>80</ele>
        <time>2017-10-30T18:49:30Z</time>
      </trkpt>
      <trkpt lat="62.632899166444" lon="17.969673023789">
        <ele>80</ele>
        <time>2017-10-30T18:49:31Z</time>
      </trkpt>
      <trkpt lat="62.632871589993" lon="17.969667743192">
        <ele>80</ele>
        <time>2017-10-30T18:49:32Z</time>
      </trkpt>
      <trkpt lat="62.632839487316" lon="17.969658104007">
        <ele>79.8</ele>
        <time>2017-10-30T18:49:33Z</time>
      </trkpt>
      <trkpt lat="62.632806797906" lon="17.969650141202">
        <ele>79.8</ele>
        <time>2017-10-30T18:49:34Z</time>
      </trkpt>
      <trkpt lat="62.632777377437" lon="17.969648800098">
        <ele>79.8</ele>
        <time>2017-10-30T18:49:35Z</time>
      </trkpt>
      <trkpt lat="62.632744352751" lon="17.969647291356">
        <ele>79.8</ele>
        <time>2017-10-30T18:49:36Z</time>
      </trkpt>
      <trkpt lat="62.63271258535" lon="17.969643687139">
        <ele>79.8</ele>
        <time>2017-10-30T18:49:37Z</time>
      </trkpt>
      <trkpt lat="62.632683835433" lon="17.969637316895">
        <ele>79.6</ele>
        <time>2017-10-30T18:49:38Z</time>
      </trkpt>
      <trkpt lat="62.632654079688" lon="17.969634299411">
        <ele>79.4</ele>
        <time>2017-10-30T18:49:39Z</time>
      </trkpt>
      <trkpt lat="62.632626670875" lon="17.969628096805">
        <ele>79.4</ele>
        <time>2017-10-30T18:49:40Z</time>
      </trkpt>
      <trkpt lat="62.632597501863" lon="17.969624241131">
        <ele>79.2</ele>
        <time>2017-10-30T18:49:41Z</time>
      </trkpt>
      <trkpt lat="62.632568500489" lon="17.969614182851">
        <ele>79.2</ele>
        <time>2017-10-30T18:49:42Z</time>
      </trkpt>
      <trkpt lat="62.632538409468" lon="17.969609153711">
        <ele>79</ele>
        <time>2017-10-30T18:49:43Z</time>
      </trkpt>
      <trkpt lat="62.632508234628" lon="17.969607477331">
        <ele>79</ele>
        <time>2017-10-30T18:49:44Z</time>
      </trkpt>
      <trkpt lat="62.63247956853" lon="17.969604124571">
        <ele>79</ele>
        <time>2017-10-30T18:49:45Z</time>
      </trkpt>
      <trkpt lat="62.632449058414" lon="17.969600604173">
        <ele>79</ele>
        <time>2017-10-30T18:49:46Z</time>
      </trkpt>
      <trkpt lat="62.632423493619" lon="17.969598424879">
        <ele>79</ele>
        <time>2017-10-30T18:49:47Z</time>
      </trkpt>
      <trkpt lat="62.632392061494" lon="17.969602029096">
        <ele>78.8</ele>
        <time>2017-10-30T18:49:48Z</time>
      </trkpt>
      <trkpt lat="62.632363311577" lon="17.969604962761">
        <ele>78.8</ele>
        <time>2017-10-30T18:49:49Z</time>
      </trkpt>
      <trkpt lat="62.632337243868" lon="17.969606974417">
        <ele>79</ele>
        <time>2017-10-30T18:49:50Z</time>
      </trkpt>
      <trkpt lat="62.632307404304" lon="17.96961426667">
        <ele>79</ele>
        <time>2017-10-30T18:49:51Z</time>
      </trkpt>
      <trkpt lat="62.632279492577" lon="17.969621223647">
        <ele>79</ele>
        <time>2017-10-30T18:49:52Z</time>
      </trkpt>
      <trkpt lat="62.632251832307" lon="17.969631449565">
        <ele>79</ele>
        <time>2017-10-30T18:49:53Z</time>
      </trkpt>
      <trkpt lat="62.632221154553" lon="17.969638741818">
        <ele>79</ele>
        <time>2017-10-30T18:49:54Z</time>
      </trkpt>
      <trkpt lat="62.632192823731" lon="17.9696452797">
        <ele>79</ele>
        <time>2017-10-30T18:49:55Z</time>
      </trkpt>
      <trkpt lat="62.632162900348" lon="17.969654248333">
        <ele>78.8</ele>
        <time>2017-10-30T18:49:56Z</time>
      </trkpt>
      <trkpt lat="62.632133312241" lon="17.969656679084">
        <ele>78.8</ele>
        <time>2017-10-30T18:49:57Z</time>
      </trkpt>
      <trkpt lat="62.632108417998" lon="17.969658858378">
        <ele>78.8</ele>
        <time>2017-10-30T18:49:58Z</time>
      </trkpt>
      <trkpt lat="62.632080338633" lon="17.969664306613">
        <ele>78.8</ele>
        <time>2017-10-30T18:49:59Z</time>
      </trkpt>
      <trkpt lat="62.632050499069" lon="17.969669335753">
        <ele>78.8</ele>
        <time>2017-10-30T18:50:00Z</time>
      </trkpt>
      <trkpt lat="62.632020575686" lon="17.969676711825">
        <ele>79</ele>
        <time>2017-10-30T18:50:01Z</time>
      </trkpt>
      <trkpt lat="62.631993585968" lon="17.969683333526">
        <ele>79</ele>
        <time>2017-10-30T18:50:02Z</time>
      </trkpt>
      <trkpt lat="62.631962070024" lon="17.969684339354">
        <ele>79</ele>
        <time>2017-10-30T18:50:03Z</time>
      </trkpt>
      <trkpt lat="62.63193558322" lon="17.969679477852">
        <ele>79</ele>
        <time>2017-10-30T18:50:04Z</time>
      </trkpt>
      <trkpt lat="62.631906581846" lon="17.969681740965">
        <ele>79</ele>
        <time>2017-10-30T18:50:05Z</time>
      </trkpt>
      <trkpt lat="62.631873221884" lon="17.969686853924">
        <ele>78.8</ele>
        <time>2017-10-30T18:50:06Z</time>
      </trkpt>
      <trkpt lat="62.631845561614" lon="17.969688781761">
        <ele>78.8</ele>
        <time>2017-10-30T18:50:07Z</time>
      </trkpt>
      <trkpt lat="62.631815554412" lon="17.96968802739">
        <ele>78.6</ele>
        <time>2017-10-30T18:50:08Z</time>
      </trkpt>
      <trkpt lat="62.631786972133" lon="17.969700013507">
        <ele>78.6</ele>
        <time>2017-10-30T18:50:09Z</time>
      </trkpt>
      <trkpt lat="62.631764424822" lon="17.969714681832">
        <ele>78.6</ele>
        <time>2017-10-30T18:50:10Z</time>
      </trkpt>
      <trkpt lat="62.63173860857" lon="17.969731948546">
        <ele>78.4</ele>
        <time>2017-10-30T18:50:11Z</time>
      </trkpt>
      <trkpt lat="62.631712792318" lon="17.969750472545">
        <ele>78.4</ele>
        <time>2017-10-30T18:50:12Z</time>
      </trkpt>
      <trkpt lat="62.631689574455" lon="17.969773019856">
        <ele>78.2</ele>
        <time>2017-10-30T18:50:13Z</time>
      </trkpt>
      <trkpt lat="62.631663087651" lon="17.969795399529">
        <ele>78.2</ele>
        <time>2017-10-30T18:50:14Z</time>
      </trkpt>
      <trkpt lat="62.631638361046" lon="17.96981207951">
        <ele>78.2</ele>
        <time>2017-10-30T18:50:15Z</time>
      </trkpt>
      <trkpt lat="62.631610868414" lon="17.969834459183">
        <ele>78.2</ele>
        <time>2017-10-30T18:50:16Z</time>
      </trkpt>
      <trkpt lat="62.631582118497" lon="17.969850133336">
        <ele>78.6</ele>
        <time>2017-10-30T18:50:17Z</time>
      </trkpt>
      <trkpt lat="62.631550099639" lon="17.969864382566">
        <ele>78.6</ele>
        <time>2017-10-30T18:50:18Z</time>
      </trkpt>
      <trkpt lat="62.631521601179" lon="17.969877709787">
        <ele>78.8</ele>
        <time>2017-10-30T18:50:19Z</time>
      </trkpt>
      <trkpt lat="62.63149218071" lon="17.969897407252">
        <ele>79</ele>
        <time>2017-10-30T18:50:20Z</time>
      </trkpt>
      <trkpt lat="62.631461838232" lon="17.969918026726">
        <ele>79</ele>
        <time>2017-10-30T18:50:21Z</time>
      </trkpt>
      <trkpt lat="62.63143518379" lon="17.969931270128">
        <ele>79</ele>
        <time>2017-10-30T18:50:22Z</time>
      </trkpt>
      <trkpt lat="62.631407104425" lon="17.969942585693">
        <ele>79.2</ele>
        <time>2017-10-30T18:50:23Z</time>
      </trkpt>
      <trkpt lat="62.631378270689" lon="17.969960942054">
        <ele>79.2</ele>
        <time>2017-10-30T18:50:24Z</time>
      </trkpt>
      <trkpt lat="62.631350358962" lon="17.9699805557">
        <ele>79.2</ele>
        <time>2017-10-30T18:50:25Z</time>
      </trkpt>
      <trkpt lat="62.631318843018" lon="17.969996984224">
        <ele>79.2</ele>
        <time>2017-10-30T18:50:26Z</time>
      </trkpt>
      <trkpt lat="62.631289925463" lon="17.970010898178">
        <ele>79.2</ele>
        <time>2017-10-30T18:50:27Z</time>
      </trkpt>
      <trkpt lat="62.631262181374" lon="17.970025063589">
        <ele>79.2</ele>
        <time>2017-10-30T18:50:28Z</time>
      </trkpt>
      <trkpt lat="62.631231755077" lon="17.970034451317">
        <ele>79.4</ele>
        <time>2017-10-30T18:50:29Z</time>
      </trkpt>
      <trkpt lat="62.63120132878" lon="17.970047862357">
        <ele>79.4</ele>
        <time>2017-10-30T18:50:30Z</time>
      </trkpt>
      <trkpt lat="62.63116863937" lon="17.970065715804">
        <ele>79.4</ele>
        <time>2017-10-30T18:50:31Z</time>
      </trkpt>
      <trkpt lat="62.631140811462" lon="17.970079881215">
        <ele>79.4</ele>
        <time>2017-10-30T18:50:32Z</time>
      </trkpt>
      <trkpt lat="62.631108038233" lon="17.970094465721">
        <ele>79.4</ele>
        <time>2017-10-30T18:50:33Z</time>
      </trkpt>
      <trkpt lat="62.631079036859" lon="17.970101422698">
        <ele>79.4</ele>
        <time>2017-10-30T18:50:34Z</time>
      </trkpt>
      <trkpt lat="62.631051376589" lon="17.970103937268">
        <ele>79.4</ele>
        <time>2017-10-30T18:50:35Z</time>
      </trkpt>
      <trkpt lat="62.631000330818" lon="17.970094298083">
        <ele>79.6</ele>
        <time>2017-10-30T18:50:37Z</time>
      </trkpt>
      <trkpt lat="62.630987841787" lon="17.970092454065">
        <ele>79.8</ele>
        <time>2017-10-30T18:50:38Z</time>
      </trkpt>
      <trkpt lat="62.630976274765" lon="17.970090274771">
        <ele>80.2</ele>
        <time>2017-10-30T18:50:39Z</time>
      </trkpt>
      <trkpt lat="62.630962947544" lon="17.970083233975">
        <ele>80.4</ele>
        <time>2017-10-30T18:50:40Z</time>
      </trkpt>
      <trkpt lat="62.630948782133" lon="17.970064877614">
        <ele>80.4</ele>
        <time>2017-10-30T18:50:41Z</time>
      </trkpt>
      <trkpt lat="62.630938807672" lon="17.970048197633">
        <ele>80.4</ele>
        <time>2017-10-30T18:50:42Z</time>
      </trkpt>
      <trkpt lat="62.630931934514" lon="17.970028500168">
        <ele>80.4</ele>
        <time>2017-10-30T18:50:43Z</time>
      </trkpt>
      <trkpt lat="62.63092891703" lon="17.970006204314">
        <ele>80.4</ele>
        <time>2017-10-30T18:50:44Z</time>
      </trkpt>
      <trkpt lat="62.630926234822" lon="17.969985920116">
        <ele>80.4</ele>
        <time>2017-10-30T18:50:45Z</time>
      </trkpt>
      <trkpt lat="62.630922965881" lon="17.969971167972">
        <ele>80</ele>
        <time>2017-10-30T18:50:46Z</time>
      </trkpt>
      <trkpt lat="62.630919780759" lon="17.969953398344">
        <ele>80</ele>
        <time>2017-10-30T18:50:47Z</time>
      </trkpt>
      <trkpt lat="62.630915338352" lon="17.969942250417">
        <ele>79.8</ele>
        <time>2017-10-30T18:50:48Z</time>
      </trkpt>
      <trkpt lat="62.630917601465" lon="17.96993696982">
        <ele>79.8</ele>
        <time>2017-10-30T18:50:49Z</time>
      </trkpt>
      <trkpt lat="62.630908884289" lon="17.969947447195">
        <ele>79.6</ele>
        <time>2017-10-30T18:50:50Z</time>
      </trkpt>
      <trkpt lat="62.630957499309" lon="17.970502664251">
        <ele>79.4</ele>
        <time>2017-10-30T18:54:16Z</time>
      </trkpt>
      <trkpt lat="62.63096412101" lon="17.970551698366">
        <ele>79.4</ele>
        <time>2017-10-30T18:54:17Z</time>
      </trkpt>
      <trkpt lat="62.630970155978" lon="17.97061841829">
        <ele>79.6</ele>
        <time>2017-10-30T18:54:18Z</time>
      </trkpt>
      <trkpt lat="62.630977029136" lon="17.970673152097">
        <ele>80</ele>
        <time>2017-10-30T18:54:19Z</time>
      </trkpt>
      <trkpt lat="62.630981555362" lon="17.970726209524">
        <ele>80</ele>
        <time>2017-10-30T18:54:20Z</time>
      </trkpt>
      <trkpt lat="62.630989350529" lon="17.970782284435">
        <ele>80</ele>
        <time>2017-10-30T18:54:21Z</time>
      </trkpt>
      <trkpt lat="62.630998654438" lon="17.97083886226">
        <ele>80.2</ele>
        <time>2017-10-30T18:54:22Z</time>
      </trkpt>
      <trkpt lat="62.631003683578" lon="17.970886890547">
        <ele>80</ele>
        <time>2017-10-30T18:54:23Z</time>
      </trkpt>
      <trkpt lat="62.631012065478" lon="17.970942378725">
        <ele>80</ele>
        <time>2017-10-30T18:54:24Z</time>
      </trkpt>
      <trkpt lat="62.631019357731" lon="17.97099141284">
        <ele>80.2</ele>
        <time>2017-10-30T18:54:25Z</time>
      </trkpt>
      <trkpt lat="62.631027236717" lon="17.971045224638">
        <ele>80.2</ele>
        <time>2017-10-30T18:54:26Z</time>
      </trkpt>
      <trkpt lat="62.631037127359" lon="17.971099790807">
        <ele>80.4</ele>
        <time>2017-10-30T18:54:27Z</time>
      </trkpt>
      <trkpt lat="62.63104710182" lon="17.971147399999">
        <ele>80.6</ele>
        <time>2017-10-30T18:54:28Z</time>
      </trkpt>
      <trkpt lat="62.6310571601" lon="17.971199870693">
        <ele>80.6</ele>
        <time>2017-10-30T18:54:29Z</time>
      </trkpt>
      <trkpt lat="62.631063614163" lon="17.971243875668">
        <ele>80.8</ele>
        <time>2017-10-30T18:54:30Z</time>
      </trkpt>
      <trkpt lat="62.631074007719" lon="17.971297100733">
        <ele>80.8</ele>
        <time>2017-10-30T18:54:31Z</time>
      </trkpt>
      <trkpt lat="62.631082221981" lon="17.97134848178">
        <ele>80.8</ele>
        <time>2017-10-30T18:54:32Z</time>
      </trkpt>
      <trkpt lat="62.631090100967" lon="17.971398689361">
        <ele>81</ele>
        <time>2017-10-30T18:54:33Z</time>
      </trkpt>
      <trkpt lat="62.631098650505" lon="17.971448980761">
        <ele>81</ele>
        <time>2017-10-30T18:54:34Z</time>
      </trkpt>
      <trkpt lat="62.631107283862" lon="17.971500277989">
        <ele>81</ele>
        <time>2017-10-30T18:54:35Z</time>
      </trkpt>
      <trkpt lat="62.631118850884" lon="17.971554173606">
        <ele>81.2</ele>
        <time>2017-10-30T18:54:36Z</time>
      </trkpt>
      <trkpt lat="62.631129831173" lon="17.971611757259">
        <ele>81.4</ele>
        <time>2017-10-30T18:54:37Z</time>
      </trkpt>
      <trkpt lat="62.631138296892" lon="17.97165358294">
        <ele>81.6</ele>
        <time>2017-10-30T18:54:38Z</time>
      </trkpt>
      <trkpt lat="62.631151372656" lon="17.971704963987">
        <ele>81.6</ele>
        <time>2017-10-30T18:54:39Z</time>
      </trkpt>
      <trkpt lat="62.631164616058" lon="17.971749304238">
        <ele>81.8</ele>
        <time>2017-10-30T18:54:40Z</time>
      </trkpt>
      <trkpt lat="62.631180625487" lon="17.971797500163">
        <ele>82</ele>
        <time>2017-10-30T18:54:41Z</time>
      </trkpt>
      <trkpt lat="62.631195377631" lon="17.971846282821">
        <ele>82</ele>
        <time>2017-10-30T18:54:42Z</time>
      </trkpt>
      <trkpt lat="62.631208285757" lon="17.971889030511">
        <ele>82</ele>
        <time>2017-10-30T18:54:43Z</time>
      </trkpt>
      <trkpt lat="62.63122312172" lon="17.971931945839">
        <ele>82.2</ele>
        <time>2017-10-30T18:54:44Z</time>
      </trkpt>
      <trkpt lat="62.63123485638" lon="17.971973100968">
        <ele>82.4</ele>
        <time>2017-10-30T18:54:45Z</time>
      </trkpt>
      <trkpt lat="62.631256816958" lon="17.972022973273">
        <ele>82.4</ele>
        <time>2017-10-30T18:54:46Z</time>
      </trkpt>
      <trkpt lat="62.631272239654" lon="17.972072175026">
        <ele>82.4</ele>
        <time>2017-10-30T18:54:47Z</time>
      </trkpt>
      <trkpt lat="62.631286237427" lon="17.972115760906">
        <ele>82.6</ele>
        <time>2017-10-30T18:54:48Z</time>
      </trkpt>
      <trkpt lat="62.631301408666" lon="17.972161777537">
        <ele>82.8</ele>
        <time>2017-10-30T18:54:49Z</time>
      </trkpt>
      <trkpt lat="62.631313730059" lon="17.972204357589">
        <ele>82.8</ele>
        <time>2017-10-30T18:54:50Z</time>
      </trkpt>
      <trkpt lat="62.63132621909" lon="17.972247692012">
        <ele>82.8</ele>
        <time>2017-10-30T18:54:51Z</time>
      </trkpt>
      <trkpt lat="62.631342731433" lon="17.972296223213">
        <ele>82.8</ele>
        <time>2017-10-30T18:54:52Z</time>
      </trkpt>
      <trkpt lat="62.631354969007" lon="17.972333019754">
        <ele>83</ele>
        <time>2017-10-30T18:54:53Z</time>
      </trkpt>
      <trkpt lat="62.631366033115" lon="17.972378198195">
        <ele>83.2</ele>
        <time>2017-10-30T18:54:54Z</time>
      </trkpt>
      <trkpt lat="62.631380114707" lon="17.972427986681">
        <ele>83.2</ele>
        <time>2017-10-30T18:54:55Z</time>
      </trkpt>
      <trkpt lat="62.631396207955" lon="17.972468471258">
        <ele>83.2</ele>
        <time>2017-10-30T18:54:56Z</time>
      </trkpt>
      <trkpt lat="62.631409367538" lon="17.972508285283">
        <ele>83.2</ele>
        <time>2017-10-30T18:54:57Z</time>
      </trkpt>
      <trkpt lat="62.631420850741" lon="17.972544075996">
        <ele>83.4</ele>
        <time>2017-10-30T18:54:58Z</time>
      </trkpt>
      <trkpt lat="62.6314343456" lon="17.972577016863">
        <ele>83.6</ele>
        <time>2017-10-30T18:54:59Z</time>
      </trkpt>
      <trkpt lat="62.631449600658" lon="17.972609706273">
        <ele>83.8</ele>
        <time>2017-10-30T18:55:00Z</time>
      </trkpt>
      <trkpt lat="62.63146619682" lon="17.972649939393">
        <ele>83.8</ele>
        <time>2017-10-30T18:55:01Z</time>
      </trkpt>
      <trkpt lat="62.631480948964" lon="17.972684053726">
        <ele>84</ele>
        <time>2017-10-30T18:55:02Z</time>
      </trkpt>
      <trkpt lat="62.631497796583" lon="17.972724370665">
        <ele>84.2</ele>
        <time>2017-10-30T18:55:03Z</time>
      </trkpt>
      <trkpt lat="62.631510201795" lon="17.972759909921">
        <ele>84.4</ele>
        <time>2017-10-30T18:55:04Z</time>
      </trkpt>
      <trkpt lat="62.631524534844" lon="17.972795868272">
        <ele>84.6</ele>
        <time>2017-10-30T18:55:05Z</time>
      </trkpt>
      <trkpt lat="62.631536772418" lon="17.972842052541">
        <ele>84.8</ele>
        <time>2017-10-30T18:55:06Z</time>
      </trkpt>
      <trkpt lat="62.63154917763" lon="17.972879351996">
        <ele>85</ele>
        <time>2017-10-30T18:55:07Z</time>
      </trkpt>
      <trkpt lat="62.631561415204" lon="17.97291505889">
        <ele>85</ele>
        <time>2017-10-30T18:55:08Z</time>
      </trkpt>
      <trkpt lat="62.631579939203" lon="17.97296115934">
        <ele>85</ele>
        <time>2017-10-30T18:55:09Z</time>
      </trkpt>
      <trkpt lat="62.631596619184" lon="17.972996111863">
        <ele>85</ele>
        <time>2017-10-30T18:55:10Z</time>
      </trkpt>
      <trkpt lat="62.631614724088" lon="17.973038691915">
        <ele>85.2</ele>
        <time>2017-10-30T18:55:11Z</time>
      </trkpt>
      <trkpt lat="62.631630398241" lon="17.973069704945">
        <ele>85.2</ele>
        <time>2017-10-30T18:55:12Z</time>
      </trkpt>
      <trkpt lat="62.631647162041" lon="17.973107255857">
        <ele>85.4</ele>
        <time>2017-10-30T18:55:13Z</time>
      </trkpt>
      <trkpt lat="62.631661746547" lon="17.97314472295">
        <ele>85.6</ele>
        <time>2017-10-30T18:55:14Z</time>
      </trkpt>
      <trkpt lat="62.631677001605" lon="17.973170958297">
        <ele>85.6</ele>
        <time>2017-10-30T18:55:15Z</time>
      </trkpt>
      <trkpt lat="62.631698291631" lon="17.973209598856">
        <ele>85.8</ele>
        <time>2017-10-30T18:55:16Z</time>
      </trkpt>
      <trkpt lat="62.631716899449" lon="17.973239019325">
        <ele>85.8</ele>
        <time>2017-10-30T18:55:17Z</time>
      </trkpt>
      <trkpt lat="62.631736596914" lon="17.973270535269">
        <ele>86</ele>
        <time>2017-10-30T18:55:18Z</time>
      </trkpt>
      <trkpt lat="62.631755540008" lon="17.973301799756">
        <ele>86</ele>
        <time>2017-10-30T18:55:19Z</time>
      </trkpt>
      <trkpt lat="62.631774734559" lon="17.973329460026">
        <ele>86.2</ele>
        <time>2017-10-30T18:55:20Z</time>
      </trkpt>
      <trkpt lat="62.631798622974" lon="17.9733584614">
        <ele>86.2</ele>
        <time>2017-10-30T18:55:21Z</time>
      </trkpt>
      <trkpt lat="62.631817985163" lon="17.973386708403">
        <ele>86.4</ele>
        <time>2017-10-30T18:55:22Z</time>
      </trkpt>
      <trkpt lat="62.631839442827" lon="17.973407160239">
        <ele>86.4</ele>
        <time>2017-10-30T18:55:23Z</time>
      </trkpt>
      <trkpt lat="62.631864839984" lon="17.973440352563">
        <ele>86.4</ele>
        <time>2017-10-30T18:55:24Z</time>
      </trkpt>
      <trkpt lat="62.631884788906" lon="17.973463989521">
        <ele>86.4</ele>
        <time>2017-10-30T18:55:25Z</time>
      </trkpt>
      <trkpt lat="62.631903732" lon="17.973491146877">
        <ele>86.4</ele>
        <time>2017-10-30T18:55:26Z</time>
      </trkpt>
      <trkpt lat="62.631924770569" lon="17.973524339201">
        <ele>86.6</ele>
        <time>2017-10-30T18:55:27Z</time>
      </trkpt>
      <trkpt lat="62.631946060595" lon="17.973549065806">
        <ele>86.6</ele>
        <time>2017-10-30T18:55:28Z</time>
      </trkpt>
      <trkpt lat="62.631969781372" lon="17.973575384972">
        <ele>86.6</ele>
        <time>2017-10-30T18:55:29Z</time>
      </trkpt>
      <trkpt lat="62.63199006557" lon="17.973599524844">
        <ele>86.6</ele>
        <time>2017-10-30T18:55:30Z</time>
      </trkpt>
      <trkpt lat="62.632012109967" lon="17.973627017476">
        <ele>86.6</ele>
        <time>2017-10-30T18:55:31Z</time>
      </trkpt>
      <trkpt lat="62.632035160192" lon="17.97365685704">
        <ele>86.4</ele>
        <time>2017-10-30T18:55:32Z</time>
      </trkpt>
      <trkpt lat="62.632059719159" lon="17.973683930577">
        <ele>86.4</ele>
        <time>2017-10-30T18:55:33Z</time>
      </trkpt>
      <trkpt lat="62.632076650597" lon="17.973701700205">
        <ele>86.4</ele>
        <time>2017-10-30T18:55:34Z</time>
      </trkpt>
      <trkpt lat="62.632106154885" lon="17.973741933325">
        <ele>86.4</ele>
        <time>2017-10-30T18:55:35Z</time>
      </trkpt>
      <trkpt lat="62.632128534558" lon="17.973769090681">
        <ele>86.4</ele>
        <time>2017-10-30T18:55:36Z</time>
      </trkpt>
      <trkpt lat="62.632153177344" lon="17.973805635765">
        <ele>86.4</ele>
        <time>2017-10-30T18:55:37Z</time>
      </trkpt>
      <trkpt lat="62.632169270592" lon="17.973830781465">
        <ele>86.6</ele>
        <time>2017-10-30T18:55:38Z</time>
      </trkpt>
      <trkpt lat="62.632194248654" lon="17.973853664052">
        <ele>86.6</ele>
        <time>2017-10-30T18:55:39Z</time>
      </trkpt>
      <trkpt lat="62.632217298879" lon="17.973873696793">
        <ele>86.8</ele>
        <time>2017-10-30T18:55:40Z</time>
      </trkpt>
      <trkpt lat="62.63224068438" lon="17.973899010131">
        <ele>87</ele>
        <time>2017-10-30T18:55:41Z</time>
      </trkpt>
      <trkpt lat="62.632262728777" lon="17.973924072012">
        <ele>87</ele>
        <time>2017-10-30T18:55:42Z</time>
      </trkpt>
      <trkpt lat="62.632286449554" lon="17.973950307359">
        <ele>87.2</ele>
        <time>2017-10-30T18:55:43Z</time>
      </trkpt>
      <trkpt lat="62.632311343797" lon="17.973968831358">
        <ele>87.2</ele>
        <time>2017-10-30T18:55:44Z</time>
      </trkpt>
      <trkpt lat="62.632333555832" lon="17.973988947918">
        <ele>87.2</ele>
        <time>2017-10-30T18:55:45Z</time>
      </trkpt>
      <trkpt lat="62.632361886654" lon="17.97401560236">
        <ele>87.2</ele>
        <time>2017-10-30T18:55:46Z</time>
      </trkpt>
      <trkpt lat="62.632386026526" lon="17.97403571892">
        <ele>87.2</ele>
        <time>2017-10-30T18:55:47Z</time>
      </trkpt>
      <trkpt lat="62.632408825294" lon="17.974060948439">
        <ele>87.2</ele>
        <time>2017-10-30T18:55:48Z</time>
      </trkpt>
      <trkpt lat="62.632430534415" lon="17.974086345596">
        <ele>87.2</ele>
        <time>2017-10-30T18:55:49Z</time>
      </trkpt>
      <trkpt lat="62.632452159717" lon="17.97410612688">
        <ele>87.2</ele>
        <time>2017-10-30T18:55:50Z</time>
      </trkpt>
      <trkpt lat="62.632476383408" lon="17.974135212073">
        <ele>87</ele>
        <time>2017-10-30T18:55:51Z</time>
      </trkpt>
      <trkpt lat="62.63250052328" lon="17.974164297266">
        <ele>87</ele>
        <time>2017-10-30T18:55:52Z</time>
      </trkpt>
      <trkpt lat="62.632518628184" lon="17.97418994588">
        <ele>87</ele>
        <time>2017-10-30T18:55:53Z</time>
      </trkpt>
      <trkpt lat="62.632544528255" lon="17.974214756304">
        <ele>87</ele>
        <time>2017-10-30T18:55:54Z</time>
      </trkpt>
      <trkpt lat="62.632564058082" lon="17.974235375778">
        <ele>87</ele>
        <time>2017-10-30T18:55:55Z</time>
      </trkpt>
      <trkpt lat="62.632589874334" lon="17.974259348012">
        <ele>87.2</ele>
        <time>2017-10-30T18:55:56Z</time>
      </trkpt>
      <trkpt lat="62.632615187672" lon="17.974282482056">
        <ele>87.2</ele>
        <time>2017-10-30T18:55:57Z</time>
      </trkpt>
      <trkpt lat="62.632635974784" lon="17.974303185349">
        <ele>87.2</ele>
        <time>2017-10-30T18:55:58Z</time>
      </trkpt>
      <trkpt lat="62.632657767724" lon="17.97432573266">
        <ele>87.2</ele>
        <time>2017-10-30T18:55:59Z</time>
      </trkpt>
      <trkpt lat="62.632680231216" lon="17.974348782885">
        <ele>87.4</ele>
        <time>2017-10-30T18:56:00Z</time>
      </trkpt>
      <trkpt lat="62.63270587983" lon="17.974373006576">
        <ele>87.4</ele>
        <time>2017-10-30T18:56:01Z</time>
      </trkpt>
      <trkpt lat="62.632732031358" lon="17.974394799516">
        <ele>87.4</ele>
        <time>2017-10-30T18:56:02Z</time>
      </trkpt>
      <trkpt lat="62.632757093239" lon="17.974414916076">
        <ele>87.4</ele>
        <time>2017-10-30T18:56:03Z</time>
      </trkpt>
      <trkpt lat="62.632778299446" lon="17.974430674048">
        <ele>87.4</ele>
        <time>2017-10-30T18:56:04Z</time>
      </trkpt>
      <trkpt lat="62.632801768766" lon="17.974442073432">
        <ele>87.4</ele>
        <time>2017-10-30T18:56:05Z</time>
      </trkpt>
      <trkpt lat="62.632828842303" lon="17.97444643202">
        <ele>87.2</ele>
        <time>2017-10-30T18:56:06Z</time>
      </trkpt>
      <trkpt lat="62.632851557252" lon="17.974441654337">
        <ele>87</ele>
        <time>2017-10-30T18:56:07Z</time>
      </trkpt>
      <trkpt lat="62.63287100326" lon="17.974430338772">
        <ele>86.6</ele>
        <time>2017-10-30T18:56:08Z</time>
      </trkpt>
      <trkpt lat="62.632888437612" lon="17.974403181416">
        <ele>86.4</ele>
        <time>2017-10-30T18:56:09Z</time>
      </trkpt>
      <trkpt lat="62.632901345738" lon="17.974375604965">
        <ele>86.2</ele>
        <time>2017-10-30T18:56:10Z</time>
      </trkpt>
      <trkpt lat="62.632913583312" lon="17.974333360189">
        <ele>86.2</ele>
        <time>2017-10-30T18:56:11Z</time>
      </trkpt>
      <trkpt lat="62.632919953556" lon="17.974290277223">
        <ele>86.2</ele>
        <time>2017-10-30T18:56:12Z</time>
      </trkpt>
      <trkpt lat="62.632926072343" lon="17.97424610461">
        <ele>86.2</ele>
        <time>2017-10-30T18:56:13Z</time>
      </trkpt>
      <trkpt lat="62.632938393736" lon="17.974200926169">
        <ele>86.4</ele>
        <time>2017-10-30T18:56:14Z</time>
      </trkpt>
      <trkpt lat="62.632947446188" lon="17.974163459076">
        <ele>86.4</ele>
        <time>2017-10-30T18:56:15Z</time>
      </trkpt>
      <trkpt lat="62.632959683762" lon="17.97411450878">
        <ele>86.4</ele>
        <time>2017-10-30T18:56:16Z</time>
      </trkpt>
      <trkpt lat="62.632971250784" lon="17.97407176109">
        <ele>86.6</ele>
        <time>2017-10-30T18:56:17Z</time>
      </trkpt>
      <trkpt lat="62.632976950476" lon="17.974027756115">
        <ele>86.6</ele>
        <time>2017-10-30T18:56:18Z</time>
      </trkpt>
      <trkpt lat="62.632986170566" lon="17.973985092244">
        <ele>86.6</ele>
        <time>2017-10-30T18:56:19Z</time>
      </trkpt>
      <trkpt lat="62.632996061208" lon="17.973944020934">
        <ele>86.6</ele>
        <time>2017-10-30T18:56:20Z</time>
      </trkpt>
      <trkpt lat="62.633003688737" lon="17.97389741757">
        <ele>86.4</ele>
        <time>2017-10-30T18:56:21Z</time>
      </trkpt>
      <trkpt lat="62.633012154456" lon="17.973851652396">
        <ele>86.4</ele>
        <time>2017-10-30T18:56:22Z</time>
      </trkpt>
      <trkpt lat="62.633020536356" lon="17.973807898878">
        <ele>86.2</ele>
        <time>2017-10-30T18:56:23Z</time>
      </trkpt>
      <trkpt lat="62.633033695939" lon="17.97376414536">
        <ele>86.2</ele>
        <time>2017-10-30T18:56:24Z</time>
      </trkpt>
      <trkpt lat="62.633041574925" lon="17.973720643299">
        <ele>86.2</ele>
        <time>2017-10-30T18:56:25Z</time>
      </trkpt>
      <trkpt lat="62.633051465567" lon="17.973673537021">
        <ele>86.2</ele>
        <time>2017-10-30T18:56:26Z</time>
      </trkpt>
      <trkpt lat="62.633060601838" lon="17.973628526218">
        <ele>86.2</ele>
        <time>2017-10-30T18:56:27Z</time>
      </trkpt>
      <trkpt lat="62.633070660118" lon="17.97358058175">
        <ele>86.2</ele>
        <time>2017-10-30T18:56:28Z</time>
      </trkpt>
      <trkpt lat="62.633078203828" lon="17.973527691961">
        <ele>86.4</ele>
        <time>2017-10-30T18:56:29Z</time>
      </trkpt>
      <trkpt lat="62.633082813873" lon="17.973476143276">
        <ele>86.4</ele>
        <time>2017-10-30T18:56:30Z</time>
      </trkpt>
      <trkpt lat="62.633092201601" lon="17.973414368673">
        <ele>86.2</ele>
        <time>2017-10-30T18:56:31Z</time>
      </trkpt>
      <trkpt lat="62.6331023437" lon="17.973358964314">
        <ele>85.8</ele>
        <time>2017-10-30T18:56:32Z</time>
      </trkpt>
      <trkpt lat="62.633112653437" lon="17.973311690398">
        <ele>85.4</ele>
        <time>2017-10-30T18:56:33Z</time>
      </trkpt>
      <trkpt lat="62.633124304278" lon="17.973256872772">
        <ele>85</ele>
        <time>2017-10-30T18:56:34Z</time>
      </trkpt>
      <trkpt lat="62.633132434721" lon="17.97321261634">
        <ele>84.8</ele>
        <time>2017-10-30T18:56:35Z</time>
      </trkpt>
      <trkpt lat="62.633144756114" lon="17.973162157302">
        <ele>84.6</ele>
        <time>2017-10-30T18:56:36Z</time>
      </trkpt>
      <trkpt lat="62.633154395299" lon="17.973110692436">
        <ele>84.4</ele>
        <time>2017-10-30T18:56:37Z</time>
      </trkpt>
      <trkpt lat="62.633162777199" lon="17.973063921434">
        <ele>84.4</ele>
        <time>2017-10-30T18:56:38Z</time>
      </trkpt>
      <trkpt lat="62.633170823823" lon="17.97300809798">
        <ele>84.8</ele>
        <time>2017-10-30T18:56:39Z</time>
      </trkpt>
      <trkpt lat="62.6331777808" lon="17.97295780658">
        <ele>85</ele>
        <time>2017-10-30T18:56:40Z</time>
      </trkpt>
      <trkpt lat="62.633183312854" lon="17.972902569859">
        <ele>85</ele>
        <time>2017-10-30T18:56:41Z</time>
      </trkpt>
      <trkpt lat="62.633191610935" lon="17.972854960667">
        <ele>84.8</ele>
        <time>2017-10-30T18:56:42Z</time>
      </trkpt>
      <trkpt lat="62.633199909016" lon="17.972797460833">
        <ele>85</ele>
        <time>2017-10-30T18:56:43Z</time>
      </trkpt>
      <trkpt lat="62.633208626192" lon="17.972746247424">
        <ele>84.8</ele>
        <time>2017-10-30T18:56:44Z</time>
      </trkpt>
      <trkpt lat="62.63321717573" lon="17.972694698739">
        <ele>84.8</ele>
        <time>2017-10-30T18:56:45Z</time>
      </trkpt>
      <trkpt lat="62.633228491295" lon="17.972630158109">
        <ele>84.6</ele>
        <time>2017-10-30T18:56:46Z</time>
      </trkpt>
      <trkpt lat="62.63323896867" lon="17.972576933044">
        <ele>84.4</ele>
        <time>2017-10-30T18:56:47Z</time>
      </trkpt>
      <trkpt lat="62.633248691674" lon="17.972520019943">
        <ele>84.2</ele>
        <time>2017-10-30T18:56:48Z</time>
      </trkpt>
      <trkpt lat="62.633255481013" lon="17.972465286136">
        <ele>84.2</ele>
        <time>2017-10-30T18:56:49Z</time>
      </trkpt>
      <trkpt lat="62.633260510153" lon="17.972410300872">
        <ele>84.2</ele>
        <time>2017-10-30T18:56:50Z</time>
      </trkpt>
      <trkpt lat="62.633267550949" lon="17.972350035011">
        <ele>84.2</ele>
        <time>2017-10-30T18:56:51Z</time>
      </trkpt>
      <trkpt lat="62.633272077175" lon="17.972294211557">
        <ele>84</ele>
        <time>2017-10-30T18:56:52Z</time>
      </trkpt>
      <trkpt lat="62.633278279781" lon="17.972244003976">
        <ele>84</ele>
        <time>2017-10-30T18:56:53Z</time>
      </trkpt>
      <trkpt lat="62.633286410224" lon="17.972182397011">
        <ele>84</ele>
        <time>2017-10-30T18:56:54Z</time>
      </trkpt>
      <trkpt lat="62.633293702477" lon="17.972133446715">
        <ele>84</ele>
        <time>2017-10-30T18:56:55Z</time>
      </trkpt>
      <trkpt lat="62.633300491816" lon="17.97207016337">
        <ele>84</ele>
        <time>2017-10-30T18:56:56Z</time>
      </trkpt>
      <trkpt lat="62.633306191508" lon="17.97200646093">
        <ele>83.8</ele>
        <time>2017-10-30T18:56:57Z</time>
      </trkpt>
      <trkpt lat="62.633309125173" lon="17.971950972752">
        <ele>83.6</ele>
        <time>2017-10-30T18:56:58Z</time>
      </trkpt>
      <trkpt lat="62.633311472105" lon="17.971880983887">
        <ele>83.6</ele>
        <time>2017-10-30T18:56:59Z</time>
      </trkpt>
      <trkpt lat="62.633315160141" lon="17.971823819329">
        <ele>83.4</ele>
        <time>2017-10-30T18:57:00Z</time>
      </trkpt>
      <trkpt lat="62.633319099634" lon="17.971758105233">
        <ele>83.4</ele>
        <time>2017-10-30T18:57:01Z</time>
      </trkpt>
      <trkpt lat="62.633325721335" lon="17.971693732241">
        <ele>83.2</ele>
        <time>2017-10-30T18:57:02Z</time>
      </trkpt>
      <trkpt lat="62.633330163742" lon="17.971635226579">
        <ele>83.4</ele>
        <time>2017-10-30T18:57:03Z</time>
      </trkpt>
      <trkpt lat="62.633332259217" lon="17.971575882727">
        <ele>83.4</ele>
        <time>2017-10-30T18:57:04Z</time>
      </trkpt>
      <trkpt lat="62.633335695796" lon="17.971516455056">
        <ele>83.2</ele>
        <time>2017-10-30T18:57:05Z</time>
      </trkpt>
      <trkpt lat="62.633334019416" lon="17.971446047096">
        <ele>83.2</ele>
        <time>2017-10-30T18:57:06Z</time>
      </trkpt>
      <trkpt lat="62.633336953081" lon="17.971381674104">
        <ele>83</ele>
        <time>2017-10-30T18:57:07Z</time>
      </trkpt>
      <trkpt lat="62.633340138203" lon="17.971322162614">
        <ele>83</ele>
        <time>2017-10-30T18:57:08Z</time>
      </trkpt>
      <trkpt lat="62.633341898402" lon="17.97125963364">
        <ele>82.8</ele>
        <time>2017-10-30T18:57:09Z</time>
      </trkpt>
      <trkpt lat="62.633343910058" lon="17.971201966168">
        <ele>82.8</ele>
        <time>2017-10-30T18:57:10Z</time>
      </trkpt>
      <trkpt lat="62.633345334981" lon="17.971131809665">
        <ele>82.6</ele>
        <time>2017-10-30T18:57:11Z</time>
      </trkpt>
      <trkpt lat="62.633342568954" lon="17.971068023406">
        <ele>82.6</ele>
        <time>2017-10-30T18:57:12Z</time>
      </trkpt>
      <trkpt lat="62.633342988049" lon="17.971006248803">
        <ele>82.4</ele>
        <time>2017-10-30T18:57:13Z</time>
      </trkpt>
      <trkpt lat="62.63334290423" lon="17.970945731485">
        <ele>82.4</ele>
        <time>2017-10-30T18:57:14Z</time>
      </trkpt>
      <trkpt lat="62.633341730764" lon="17.970893093153">
        <ele>82.2</ele>
        <time>2017-10-30T18:57:15Z</time>
      </trkpt>
      <trkpt lat="62.633340892574" lon="17.970827211419">
        <ele>82.2</ele>
        <time>2017-10-30T18:57:16Z</time>
      </trkpt>
      <trkpt lat="62.633338294185" lon="17.970769041033">
        <ele>82</ele>
        <time>2017-10-30T18:57:17Z</time>
      </trkpt>
      <trkpt lat="62.633337958909" lon="17.970709864819">
        <ele>81.8</ele>
        <time>2017-10-30T18:57:18Z</time>
      </trkpt>
      <trkpt lat="62.633335025244" lon="17.970648090216">
        <ele>81.8</ele>
        <time>2017-10-30T18:57:19Z</time>
      </trkpt>
      <trkpt lat="62.63333284595" lon="17.970593607866">
        <ele>81.8</ele>
        <time>2017-10-30T18:57:20Z</time>
      </trkpt>
      <trkpt lat="62.633327900629" lon="17.970528815779">
        <ele>81.6</ele>
        <time>2017-10-30T18:57:21Z</time>
      </trkpt>
      <trkpt lat="62.633322117118" lon="17.970463269321">
        <ele>81.6</ele>
        <time>2017-10-30T18:57:22Z</time>
      </trkpt>
      <trkpt lat="62.633321698023" lon="17.970414235206">
        <ele>81.6</ele>
        <time>2017-10-30T18:57:23Z</time>
      </trkpt>
      <trkpt lat="62.633319518729" lon="17.970347431463">
        <ele>81.6</ele>
        <time>2017-10-30T18:57:24Z</time>
      </trkpt>
      <trkpt lat="62.633317423254" lon="17.970294374036">
        <ele>81.4</ele>
        <time>2017-10-30T18:57:25Z</time>
      </trkpt>
      <trkpt lat="62.633311975019" lon="17.970234862546">
        <ele>81.6</ele>
        <time>2017-10-30T18:57:26Z</time>
      </trkpt>
      <trkpt lat="62.633307029698" lon="17.970170741011">
        <ele>81.6</ele>
        <time>2017-10-30T18:57:27Z</time>
      </trkpt>
      <trkpt lat="62.633308370802" lon="17.970121455439">
        <ele>81.4</ele>
        <time>2017-10-30T18:57:28Z</time>
      </trkpt>
      <trkpt lat="62.633304263671" lon="17.970063955605">
        <ele>81.2</ele>
        <time>2017-10-30T18:57:29Z</time>
      </trkpt>
      <trkpt lat="62.633302503472" lon="17.970008635065">
        <ele>81.2</ele>
        <time>2017-10-30T18:57:30Z</time>
      </trkpt>
      <trkpt lat="62.633300743273" lon="17.969942753331">
        <ele>81</ele>
        <time>2017-10-30T18:57:31Z</time>
      </trkpt>
      <trkpt lat="62.633297977246" lon="17.969885504954">
        <ele>80.8</ele>
        <time>2017-10-30T18:57:32Z</time>
      </trkpt>
      <trkpt lat="62.633298563979" lon="17.969823478894">
        <ele>80.6</ele>
        <time>2017-10-30T18:57:33Z</time>
      </trkpt>
      <trkpt lat="62.633296384685" lon="17.969767739259">
        <ele>80.4</ele>
        <time>2017-10-30T18:57:34Z</time>
      </trkpt>
      <trkpt lat="62.633295881771" lon="17.969709987968">
        <ele>80.2</ele>
        <time>2017-10-30T18:57:35Z</time>
      </trkpt>
      <trkpt lat="62.633295378857" lon="17.969650811754">
        <ele>80</ele>
        <time>2017-10-30T18:57:36Z</time>
      </trkpt>
      <trkpt lat="62.633291355545" lon="17.969592725187">
        <ele>80</ele>
        <time>2017-10-30T18:57:37Z</time>
      </trkpt>
      <trkpt lat="62.633297222875" lon="17.969538159018">
        <ele>79.8</ele>
        <time>2017-10-30T18:57:38Z</time>
      </trkpt>
      <trkpt lat="62.633298647798" lon="17.969473953664">
        <ele>79.8</ele>
        <time>2017-10-30T18:57:39Z</time>
      </trkpt>
      <trkpt lat="62.633302838748" lon="17.969424584273">
        <ele>79.6</ele>
        <time>2017-10-30T18:57:40Z</time>
      </trkpt>
      <trkpt lat="62.633306275327" lon="17.969358702539">
        <ele>79.6</ele>
        <time>2017-10-30T18:57:41Z</time>
      </trkpt>
      <trkpt lat="62.633309208992" lon="17.969297095574">
        <ele>79.6</ele>
        <time>2017-10-30T18:57:42Z</time>
      </trkpt>
      <trkpt lat="62.633313483761" lon="17.969242445586">
        <ele>79.6</ele>
        <time>2017-10-30T18:57:43Z</time>
      </trkpt>
      <trkpt lat="62.633318345263" lon="17.969193411471">
        <ele>79.6</ele>
        <time>2017-10-30T18:57:44Z</time>
      </trkpt>
      <trkpt lat="62.633324966964" lon="17.9691507476">
        <ele>79.4</ele>
        <time>2017-10-30T18:57:45Z</time>
      </trkpt>
      <trkpt lat="62.633330415199" lon="17.96909458887">
        <ele>79.2</ele>
        <time>2017-10-30T18:57:46Z</time>
      </trkpt>
      <trkpt lat="62.633336031072" lon="17.969040777072">
        <ele>79.2</ele>
        <time>2017-10-30T18:57:47Z</time>
      </trkpt>
      <trkpt lat="62.633342233678" lon="17.968987719645">
        <ele>79.2</ele>
        <time>2017-10-30T18:57:48Z</time>
      </trkpt>
      <trkpt lat="62.633348687741" lon="17.968936003322">
        <ele>79</ele>
        <time>2017-10-30T18:57:49Z</time>
      </trkpt>
      <trkpt lat="62.633353716881" lon="17.968886466293">
        <ele>78.8</ele>
        <time>2017-10-30T18:57:50Z</time>
      </trkpt>
      <trkpt lat="62.633361679686" lon="17.968828212088">
        <ele>78.8</ele>
        <time>2017-10-30T18:57:51Z</time>
      </trkpt>
      <trkpt lat="62.633367798473" lon="17.968779094154">
        <ele>78.8</ele>
        <time>2017-10-30T18:57:52Z</time>
      </trkpt>
      <trkpt lat="62.633372659975" lon="17.968724444166">
        <ele>78.6</ele>
        <time>2017-10-30T18:57:53Z</time>
      </trkpt>
      <trkpt lat="62.633383053531" lon="17.968667698703">
        <ele>78.4</ele>
        <time>2017-10-30T18:57:54Z</time>
      </trkpt>
      <trkpt lat="62.633390178146" lon="17.968622436443">
        <ele>78</ele>
        <time>2017-10-30T18:57:55Z</time>
      </trkpt>
      <trkpt lat="62.633398811503" lon="17.968567283541">
        <ele>77.8</ele>
        <time>2017-10-30T18:57:56Z</time>
      </trkpt>
      <trkpt lat="62.633407193403" lon="17.968510873354">
        <ele>77.6</ele>
        <time>2017-10-30T18:57:57Z</time>
      </trkpt>
      <trkpt lat="62.633413060733" lon="17.968462090696">
        <ele>77.4</ele>
        <time>2017-10-30T18:57:58Z</time>
      </trkpt>
      <trkpt lat="62.633419011882" lon="17.968404842319">
        <ele>77.2</ele>
        <time>2017-10-30T18:57:59Z</time>
      </trkpt>
      <trkpt lat="62.633425130669" lon="17.968355389109">
        <ele>77</ele>
        <time>2017-10-30T18:58:00Z</time>
      </trkpt>
      <trkpt lat="62.633434099302" lon="17.968297805456">
        <ele>76.8</ele>
        <time>2017-10-30T18:58:01Z</time>
      </trkpt>
      <trkpt lat="62.633440218089" lon="17.968242820192">
        <ele>76.6</ele>
        <time>2017-10-30T18:58:02Z</time>
      </trkpt>
      <trkpt lat="62.633450444007" lon="17.968186158548">
        <ele>76.4</ele>
        <time>2017-10-30T18:58:03Z</time>
      </trkpt>
      <trkpt lat="62.633455724604" lon="17.968136286243">
        <ele>76.2</ele>
        <time>2017-10-30T18:58:04Z</time>
      </trkpt>
      <trkpt lat="62.633459580278" lon="17.968086162481">
        <ele>76</ele>
        <time>2017-10-30T18:58:05Z</time>
      </trkpt>
      <trkpt lat="62.633466034341" lon="17.968026567172">
        <ele>75.8</ele>
        <time>2017-10-30T18:58:06Z</time>
      </trkpt>
      <trkpt lat="62.633473745689" lon="17.967975102306">
        <ele>75.6</ele>
        <time>2017-10-30T18:58:07Z</time>
      </trkpt>
      <trkpt lat="62.633475924983" lon="17.967922715431">
        <ele>75.6</ele>
        <time>2017-10-30T18:58:08Z</time>
      </trkpt>
      <trkpt lat="62.63348204377" lon="17.967869574185">
        <ele>75.4</ele>
        <time>2017-10-30T18:58:09Z</time>
      </trkpt>
      <trkpt lat="62.633489922756" lon="17.967824311925">
        <ele>75.2</ele>
        <time>2017-10-30T18:58:10Z</time>
      </trkpt>
      <trkpt lat="62.633498639932" lon="17.967770500127">
        <ele>75.2</ele>
        <time>2017-10-30T18:58:11Z</time>
      </trkpt>
      <trkpt lat="62.633504507262" lon="17.967720292546">
        <ele>75</ele>
        <time>2017-10-30T18:58:12Z</time>
      </trkpt>
      <trkpt lat="62.633509620221" lon="17.96767134225">
        <ele>75</ele>
        <time>2017-10-30T18:58:13Z</time>
      </trkpt>
      <trkpt lat="62.633515319913" lon="17.967627672551">
        <ele>74.8</ele>
        <time>2017-10-30T18:58:14Z</time>
      </trkpt>
      <trkpt lat="62.633520013777" lon="17.967588948173">
        <ele>74.6</ele>
        <time>2017-10-30T18:58:15Z</time>
      </trkpt>
      <trkpt lat="62.633527473668" lon="17.967540165515">
        <ele>74.4</ele>
        <time>2017-10-30T18:58:16Z</time>
      </trkpt>
      <trkpt lat="62.63353317336" lon="17.967496244359">
        <ele>74</ele>
        <time>2017-10-30T18:58:17Z</time>
      </trkpt>
      <trkpt lat="62.633540800889" lon="17.967441510552">
        <ele>73.8</ele>
        <time>2017-10-30T18:58:18Z</time>
      </trkpt>
      <trkpt lat="62.633550942988" lon="17.967396332111">
        <ele>73.4</ele>
        <time>2017-10-30T18:58:19Z</time>
      </trkpt>
      <trkpt lat="62.633558989612" lon="17.967356098991">
        <ele>73.2</ele>
        <time>2017-10-30T18:58:20Z</time>
      </trkpt>
      <trkpt lat="62.633565359856" lon="17.967301197546">
        <ele>73</ele>
        <time>2017-10-30T18:58:21Z</time>
      </trkpt>
      <trkpt lat="62.633572400652" lon="17.967256354381">
        <ele>72.6</ele>
        <time>2017-10-30T18:58:22Z</time>
      </trkpt>
      <trkpt lat="62.633579189991" lon="17.967209415741">
        <ele>72.4</ele>
        <time>2017-10-30T18:58:23Z</time>
      </trkpt>
      <trkpt lat="62.633587907167" lon="17.967159627255">
        <ele>72.2</ele>
        <time>2017-10-30T18:58:24Z</time>
      </trkpt>
      <trkpt lat="62.633593355402" lon="17.967110928416">
        <ele>71.8</ele>
        <time>2017-10-30T18:58:25Z</time>
      </trkpt>
      <trkpt lat="62.633599977103" lon="17.967067091079">
        <ele>71.6</ele>
        <time>2017-10-30T18:58:26Z</time>
      </trkpt>
      <trkpt lat="62.633608442822" lon="17.967023840475">
        <ele>71.2</ele>
        <time>2017-10-30T18:58:27Z</time>
      </trkpt>
      <trkpt lat="62.633617914369" lon="17.966976398921">
        <ele>71</ele>
        <time>2017-10-30T18:58:28Z</time>
      </trkpt>
      <trkpt lat="62.633626883002" lon="17.966931891032">
        <ele>70.8</ele>
        <time>2017-10-30T18:58:29Z</time>
      </trkpt>
      <trkpt lat="62.633633085608" lon="17.966883778926">
        <ele>70.8</ele>
        <time>2017-10-30T18:58:30Z</time>
      </trkpt>
      <trkpt lat="62.633642221879" lon="17.966825189445">
        <ele>70.6</ele>
        <time>2017-10-30T18:58:31Z</time>
      </trkpt>
      <trkpt lat="62.633651777245" lon="17.966777580253">
        <ele>70.6</ele>
        <time>2017-10-30T18:58:32Z</time>
      </trkpt>
      <trkpt lat="62.633660997335" lon="17.966723768455">
        <ele>70.4</ele>
        <time>2017-10-30T18:58:33Z</time>
      </trkpt>
      <trkpt lat="62.633670385063" lon="17.966668196458">
        <ele>70.2</ele>
        <time>2017-10-30T18:58:34Z</time>
      </trkpt>
      <trkpt lat="62.633679102239" lon="17.9666277957">
        <ele>70.2</ele>
        <time>2017-10-30T18:58:35Z</time>
      </trkpt>
      <trkpt lat="62.633694189659" lon="17.966561159595">
        <ele>70</ele>
        <time>2017-10-30T18:58:36Z</time>
      </trkpt>
      <trkpt lat="62.633710702002" lon="17.966501983381">
        <ele>69.6</ele>
        <time>2017-10-30T18:58:37Z</time>
      </trkpt>
      <trkpt lat="62.633724364499" lon="17.96644842304">
        <ele>69.4</ele>
        <time>2017-10-30T18:58:38Z</time>
      </trkpt>
      <trkpt lat="62.633739954833" lon="17.966397712545">
        <ele>69</ele>
        <time>2017-10-30T18:58:39Z</time>
      </trkpt>
      <trkpt lat="62.6337561319" lon="17.966350438629">
        <ele>68.8</ele>
        <time>2017-10-30T18:58:40Z</time>
      </trkpt>
      <trkpt lat="62.633773650071" lon="17.966296878288">
        <ele>68.6</ele>
        <time>2017-10-30T18:58:41Z</time>
      </trkpt>
      <trkpt lat="62.633787731663" lon="17.96624558106">
        <ele>68.4</ele>
        <time>2017-10-30T18:58:42Z</time>
      </trkpt>
      <trkpt lat="62.633800053056" lon="17.966189506149">
        <ele>68.4</ele>
        <time>2017-10-30T18:58:43Z</time>
      </trkpt>
      <trkpt lat="62.633808015861" lon="17.966132760686">
        <ele>68.2</ele>
        <time>2017-10-30T18:58:44Z</time>
      </trkpt>
      <trkpt lat="62.63381312882" lon="17.966081044363">
        <ele>67.8</ele>
        <time>2017-10-30T18:58:45Z</time>
      </trkpt>
      <trkpt lat="62.633819582883" lon="17.966012731878">
        <ele>67.6</ele>
        <time>2017-10-30T18:58:46Z</time>
      </trkpt>
      <trkpt lat="62.6338231871" lon="17.965955986415">
        <ele>67.4</ele>
        <time>2017-10-30T18:58:47Z</time>
      </trkpt>
      <trkpt lat="62.633826204584" lon="17.96589605583">
        <ele>67.2</ele>
        <time>2017-10-30T18:58:48Z</time>
      </trkpt>
      <trkpt lat="62.63382905443" lon="17.965836795797">
        <ele>67</ele>
        <time>2017-10-30T18:58:49Z</time>
      </trkpt>
      <trkpt lat="62.633829473525" lon="17.965782816361">
        <ele>66.8</ele>
        <time>2017-10-30T18:58:50Z</time>
      </trkpt>
      <trkpt lat="62.633829305887" lon="17.965722718138">
        <ele>66.8</ele>
        <time>2017-10-30T18:58:51Z</time>
      </trkpt>
      <trkpt lat="62.63382821624" lon="17.965659853888">
        <ele>66.6</ele>
        <time>2017-10-30T18:58:52Z</time>
      </trkpt>
      <trkpt lat="62.63382486348" lon="17.965606209728">
        <ele>66.6</ele>
        <time>2017-10-30T18:58:53Z</time>
      </trkpt>
      <trkpt lat="62.633821845996" lon="17.965548709894">
        <ele>66.4</ele>
        <time>2017-10-30T18:58:54Z</time>
      </trkpt>
      <trkpt lat="62.633819247607" lon="17.965493976087">
        <ele>66.2</ele>
        <time>2017-10-30T18:58:55Z</time>
      </trkpt>
      <trkpt lat="62.633816313942" lon="17.965436057158">
        <ele>66.2</ele>
        <time>2017-10-30T18:58:56Z</time>
      </trkpt>
      <trkpt lat="62.633810781888" lon="17.9653788926">
        <ele>66</ele>
        <time>2017-10-30T18:58:57Z</time>
      </trkpt>
      <trkpt lat="62.633805417472" lon="17.965312591771">
        <ele>65.8</ele>
        <time>2017-10-30T18:58:58Z</time>
      </trkpt>
      <trkpt lat="62.633797454667" lon="17.96526070781">
        <ele>65.4</ele>
        <time>2017-10-30T18:58:59Z</time>
      </trkpt>
      <trkpt lat="62.633797538486" lon="17.965210835505">
        <ele>65.2</ele>
        <time>2017-10-30T18:59:00Z</time>
      </trkpt>
      <trkpt lat="62.633795945925" lon="17.965147719798">
        <ele>64.8</ele>
        <time>2017-10-30T18:59:01Z</time>
      </trkpt>
      <trkpt lat="62.633795443011" lon="17.965095249104">
        <ele>64.6</ele>
        <time>2017-10-30T18:59:02Z</time>
      </trkpt>
      <trkpt lat="62.633800891246" lon="17.965041353487">
        <ele>64.4</ele>
        <time>2017-10-30T18:59:03Z</time>
      </trkpt>
      <trkpt lat="62.633809859879" lon="17.964988966612">
        <ele>64.2</ele>
        <time>2017-10-30T18:59:04Z</time>
      </trkpt>
      <trkpt lat="62.633825450213" lon="17.96494638656">
        <ele>64</ele>
        <time>2017-10-30T18:59:05Z</time>
      </trkpt>
      <trkpt lat="62.633853781035" lon="17.964911350218">
        <ele>64</ele>
        <time>2017-10-30T18:59:06Z</time>
      </trkpt>
      <trkpt lat="62.633883201504" lon="17.964899950834">
        <ele>63.8</ele>
        <time>2017-10-30T18:59:07Z</time>
      </trkpt>
      <trkpt lat="62.633907425195" lon="17.964886120699">
        <ele>63.4</ele>
        <time>2017-10-30T18:59:08Z</time>
      </trkpt>
      <trkpt lat="62.633938354406" lon="17.964880923921">
        <ele>62.8</ele>
        <time>2017-10-30T18:59:09Z</time>
      </trkpt>
      <trkpt lat="62.633964422115" lon="17.964883187034">
        <ele>62.6</ele>
        <time>2017-10-30T18:59:10Z</time>
      </trkpt>
      <trkpt lat="62.633993926403" lon="17.964880923921">
        <ele>62.2</ele>
        <time>2017-10-30T18:59:11Z</time>
      </trkpt>
      <trkpt lat="62.634024268881" lon="17.964879750455">
        <ele>61.8</ele>
        <time>2017-10-30T18:59:12Z</time>
      </trkpt>
      <trkpt lat="62.634051677694" lon="17.964881594473">
        <ele>61.6</ele>
        <time>2017-10-30T18:59:13Z</time>
      </trkpt>
      <trkpt lat="62.634078918869" lon="17.96487933136">
        <ele>61.6</ele>
        <time>2017-10-30T18:59:14Z</time>
      </trkpt>
      <trkpt lat="62.63410314256" lon="17.964879498998">
        <ele>61.6</ele>
        <time>2017-10-30T18:59:15Z</time>
      </trkpt>
      <trkpt lat="62.634130719011" lon="17.964879750455">
        <ele>61.6</ele>
        <time>2017-10-30T18:59:16Z</time>
      </trkpt>
      <trkpt lat="62.634159385109" lon="17.964878409351">
        <ele>61.6</ele>
        <time>2017-10-30T18:59:17Z</time>
      </trkpt>
      <trkpt lat="62.634187548293" lon="17.964879834274">
        <ele>61.8</ele>
        <time>2017-10-30T18:59:18Z</time>
      </trkpt>
      <trkpt lat="62.634212861631" lon="17.964878325532">
        <ele>61.8</ele>
        <time>2017-10-30T18:59:19Z</time>
      </trkpt>
      <trkpt lat="62.634239180797" lon="17.964880588645">
        <ele>61.8</ele>
        <time>2017-10-30T18:59:20Z</time>
      </trkpt>
      <trkpt lat="62.634267092524" lon="17.964879498998">
        <ele>61.8</ele>
        <time>2017-10-30T18:59:21Z</time>
      </trkpt>
      <trkpt lat="62.634293244052" lon="17.964877319704">
        <ele>61.8</ele>
        <time>2017-10-30T18:59:22Z</time>
      </trkpt>
      <trkpt lat="62.63432274834" lon="17.964879582817">
        <ele>61.6</ele>
        <time>2017-10-30T18:59:23Z</time>
      </trkpt>
      <trkpt lat="62.634352420266" lon="17.964880085731">
        <ele>61.4</ele>
        <time>2017-10-30T18:59:24Z</time>
      </trkpt>
      <trkpt lat="62.634377482147" lon="17.964878660808">
        <ele>61.4</ele>
        <time>2017-10-30T18:59:25Z</time>
      </trkpt>
      <trkpt lat="62.634408159901" lon="17.964880756283">
        <ele>61.2</ele>
        <time>2017-10-30T18:59:26Z</time>
      </trkpt>
      <trkpt lat="62.634435149619" lon="17.964879834274">
        <ele>61.2</ele>
        <time>2017-10-30T18:59:27Z</time>
      </trkpt>
      <trkpt lat="62.634463648079" lon="17.96488016955">
        <ele>61</ele>
        <time>2017-10-30T18:59:28Z</time>
      </trkpt>
      <trkpt lat="62.634492481815" lon="17.964882935577">
        <ele>61</ele>
        <time>2017-10-30T18:59:29Z</time>
      </trkpt>
      <trkpt lat="62.634518214248" lon="17.964879498998">
        <ele>61</ele>
        <time>2017-10-30T18:59:30Z</time>
      </trkpt>
      <trkpt lat="62.634550400744" lon="17.964881426835">
        <ele>61</ele>
        <time>2017-10-30T18:59:31Z</time>
      </trkpt>
      <trkpt lat="62.634578144833" lon="17.964880923921">
        <ele>61</ele>
        <time>2017-10-30T18:59:32Z</time>
      </trkpt>
      <trkpt lat="62.634605302189" lon="17.964878828446">
        <ele>61</ele>
        <time>2017-10-30T18:59:33Z</time>
      </trkpt>
      <trkpt lat="62.634634052106" lon="17.96487262584">
        <ele>61</ele>
        <time>2017-10-30T18:59:34Z</time>
      </trkpt>
      <trkpt lat="62.634659952177" lon="17.964868267252">
        <ele>61</ele>
        <time>2017-10-30T18:59:35Z</time>
      </trkpt>
      <trkpt lat="62.634691719578" lon="17.964862735198">
        <ele>61</ele>
        <time>2017-10-30T18:59:36Z</time>
      </trkpt>
      <trkpt lat="62.634721391504" lon="17.96486172937">
        <ele>61</ele>
        <time>2017-10-30T18:59:37Z</time>
      </trkpt>
      <trkpt lat="62.63474938705" lon="17.964857789877">
        <ele>61</ele>
        <time>2017-10-30T18:59:38Z</time>
      </trkpt>
      <trkpt lat="62.634780819175" lon="17.964854353298">
        <ele>61</ele>
        <time>2017-10-30T18:59:39Z</time>
      </trkpt>
      <trkpt lat="62.634807725074" lon="17.96485167109">
        <ele>61</ele>
        <time>2017-10-30T18:59:40Z</time>
      </trkpt>
      <trkpt lat="62.634837983733" lon="17.964846390493">
        <ele>60.8</ele>
        <time>2017-10-30T18:59:41Z</time>
      </trkpt>
      <trkpt lat="62.634869834953" lon="17.964842953914">
        <ele>60.8</ele>
        <time>2017-10-30T18:59:42Z</time>
      </trkpt>
      <trkpt lat="62.634895064472" lon="17.964840690801">
        <ele>60.6</ele>
        <time>2017-10-30T18:59:43Z</time>
      </trkpt>
      <trkpt lat="62.634923143837" lon="17.964835829299">
        <ele>60.4</ele>
        <time>2017-10-30T18:59:44Z</time>
      </trkpt>
      <trkpt lat="62.634946529338" lon="17.964828285589">
        <ele>60.4</ele>
        <time>2017-10-30T18:59:45Z</time>
      </trkpt>
      <trkpt lat="62.634975363074" lon="17.964822753535">
        <ele>60.2</ele>
        <time>2017-10-30T18:59:46Z</time>
      </trkpt>
      <trkpt lat="62.635003945353" lon="17.964821244793">
        <ele>60.2</ele>
        <time>2017-10-30T18:59:47Z</time>
      </trkpt>
      <trkpt lat="62.635030683614" lon="17.964811186513">
        <ele>60</ele>
        <time>2017-10-30T18:59:48Z</time>
      </trkpt>
      <trkpt lat="62.635058176246" lon="17.964804229536">
        <ele>60</ele>
        <time>2017-10-30T18:59:49Z</time>
      </trkpt>
      <trkpt lat="62.635083908679" lon="17.964796518188">
        <ele>60</ele>
        <time>2017-10-30T18:59:50Z</time>
      </trkpt>
      <trkpt lat="62.635110898397" lon="17.964787381917">
        <ele>60</ele>
        <time>2017-10-30T18:59:51Z</time>
      </trkpt>
      <trkpt lat="62.635139564495" lon="17.964778329465">
        <ele>60</ele>
        <time>2017-10-30T18:59:52Z</time>
      </trkpt>
      <trkpt lat="62.635164626376" lon="17.964766762443">
        <ele>60</ele>
        <time>2017-10-30T18:59:53Z</time>
      </trkpt>
      <trkpt lat="62.63519111318" lon="17.964757039439">
        <ele>60</ele>
        <time>2017-10-30T18:59:54Z</time>
      </trkpt>
      <trkpt lat="62.635217432346" lon="17.964748992815">
        <ele>60</ele>
        <time>2017-10-30T18:59:55Z</time>
      </trkpt>
      <trkpt lat="62.635243416236" lon="17.964735749413">
        <ele>59.8</ele>
        <time>2017-10-30T18:59:56Z</time>
      </trkpt>
      <trkpt lat="62.635268394298" lon="17.964726696961">
        <ele>59.8</ele>
        <time>2017-10-30T18:59:57Z</time>
      </trkpt>
      <trkpt lat="62.63529421055" lon="17.964717728328">
        <ele>59.8</ele>
        <time>2017-10-30T18:59:58Z</time>
      </trkpt>
      <trkpt lat="62.635318434241" lon="17.964707921505">
        <ele>59.6</ele>
        <time>2017-10-30T18:59:59Z</time>
      </trkpt>
      <trkpt lat="62.635343496122" lon="17.96470163508">
        <ele>59.6</ele>
        <time>2017-10-30T19:00:00Z</time>
      </trkpt>
      <trkpt lat="62.635372665134" lon="17.964693336999">
        <ele>59.4</ele>
        <time>2017-10-30T19:00:01Z</time>
      </trkpt>
      <trkpt lat="62.635398229929" lon="17.964684787461">
        <ele>59.4</ele>
        <time>2017-10-30T19:00:02Z</time>
      </trkpt>
      <trkpt lat="62.635425387285" lon="17.964675902647">
        <ele>59.2</ele>
        <time>2017-10-30T19:00:03Z</time>
      </trkpt>
      <trkpt lat="62.635450197709" lon="17.964664838539">
        <ele>59.2</ele>
        <time>2017-10-30T19:00:04Z</time>
      </trkpt>
      <trkpt lat="62.635472828839" lon="17.964653271517">
        <ele>59.2</ele>
        <time>2017-10-30T19:00:05Z</time>
      </trkpt>
      <trkpt lat="62.635501411118" lon="17.96464044721">
        <ele>59.4</ele>
        <time>2017-10-30T19:00:06Z</time>
      </trkpt>
      <trkpt lat="62.635524796619" lon="17.964627119989">
        <ele>59.4</ele>
        <time>2017-10-30T19:00:07Z</time>
      </trkpt>
      <trkpt lat="62.635548768853" lon="17.964612703121">
        <ele>59.6</ele>
        <time>2017-10-30T19:00:08Z</time>
      </trkpt>
      <trkpt lat="62.63557416601" lon="17.96460189047">
        <ele>59.6</ele>
        <time>2017-10-30T19:00:09Z</time>
      </trkpt>
      <trkpt lat="62.635594953122" lon="17.964586551593">
        <ele>59.6</ele>
        <time>2017-10-30T19:00:10Z</time>
      </trkpt>
      <trkpt lat="62.635624289772" lon="17.964572889096">
        <ele>59.4</ele>
        <time>2017-10-30T19:00:11Z</time>
      </trkpt>
      <trkpt lat="62.63564960311" lon="17.96455579002">
        <ele>59.4</ele>
        <time>2017-10-30T19:00:12Z</time>
      </trkpt>
      <trkpt lat="62.635674078258" lon="17.964542043704">
        <ele>59.4</ele>
        <time>2017-10-30T19:00:13Z</time>
      </trkpt>
      <trkpt lat="62.63570157089" lon="17.964522597696">
        <ele>59.2</ele>
        <time>2017-10-30T19:00:14Z</time>
      </trkpt>
      <trkpt lat="62.635723866744" lon="17.964508935199">
        <ele>59.2</ele>
        <time>2017-10-30T19:00:15Z</time>
      </trkpt>
      <trkpt lat="62.63575270048" lon="17.964486387888">
        <ele>59.2</ele>
        <time>2017-10-30T19:00:16Z</time>
      </trkpt>
      <trkpt lat="62.635779774017" lon="17.96446694188">
        <ele>59.2</ele>
        <time>2017-10-30T19:00:17Z</time>
      </trkpt>
      <trkpt lat="62.63580466826" lon="17.964444813664">
        <ele>59</ele>
        <time>2017-10-30T19:00:18Z</time>
      </trkpt>
      <trkpt lat="62.635830568331" lon="17.96442922333">
        <ele>59</ele>
        <time>2017-10-30T19:00:19Z</time>
      </trkpt>
      <trkpt lat="62.635854540565" lon="17.964405921648">
        <ele>59</ele>
        <time>2017-10-30T19:00:20Z</time>
      </trkpt>
      <trkpt lat="62.635881530283" lon="17.964378261378">
        <ele>58.8</ele>
        <time>2017-10-30T19:00:21Z</time>
      </trkpt>
      <trkpt lat="62.635907514173" lon="17.964358312456">
        <ele>58.8</ele>
        <time>2017-10-30T19:00:22Z</time>
      </trkpt>
      <trkpt lat="62.635931737864" lon="17.964336938611">
        <ele>58.6</ele>
        <time>2017-10-30T19:00:23Z</time>
      </trkpt>
      <trkpt lat="62.635956632107" lon="17.964314894214">
        <ele>58.6</ele>
        <time>2017-10-30T19:00:24Z</time>
      </trkpt>
      <trkpt lat="62.63598068816" lon="17.964292263084">
        <ele>58.4</ele>
        <time>2017-10-30T19:00:25Z</time>
      </trkpt>
      <trkpt lat="62.636006504412" lon="17.964270637782">
        <ele>58.4</ele>
        <time>2017-10-30T19:00:26Z</time>
      </trkpt>
      <trkpt lat="62.636030811922" lon="17.964244653892">
        <ele>58.4</ele>
        <time>2017-10-30T19:00:27Z</time>
      </trkpt>
      <trkpt lat="62.636054365061" lon="17.964219172916">
        <ele>58.4</ele>
        <time>2017-10-30T19:00:28Z</time>
      </trkpt>
      <trkpt lat="62.636075906544" lon="17.964193356664">
        <ele>58.4</ele>
        <time>2017-10-30T19:00:29Z</time>
      </trkpt>
      <trkpt lat="62.63609719657" lon="17.964171563724">
        <ele>58.4</ele>
        <time>2017-10-30T19:00:30Z</time>
      </trkpt>
      <trkpt lat="62.636123012822" lon="17.96414423873">
        <ele>58.4</ele>
        <time>2017-10-30T19:00:31Z</time>
      </trkpt>
      <trkpt lat="62.636146314504" lon="17.964117081374">
        <ele>58.4</ele>
        <time>2017-10-30T19:00:32Z</time>
      </trkpt>
      <trkpt lat="62.636169616186" lon="17.964090343113">
        <ele>58.4</ele>
        <time>2017-10-30T19:00:33Z</time>
      </trkpt>
      <trkpt lat="62.636193336963" lon="17.964064945956">
        <ele>58.4</ele>
        <time>2017-10-30T19:00:34Z</time>
      </trkpt>
      <trkpt lat="62.636186547624" lon="17.964077351168">
        <ele>58.4</ele>
        <time>2017-10-30T19:00:35Z</time>
      </trkpt>
      <trkpt lat="62.636218147387" lon="17.964054803857">
        <ele>58.4</ele>
        <time>2017-10-30T19:00:36Z</time>
      </trkpt>
      <trkpt lat="62.636260224525" lon="17.964014906013">
        <ele>58.4</ele>
        <time>2017-10-30T19:00:37Z</time>
      </trkpt>
      <trkpt lat="62.636291740469" lon="17.963989676494">
        <ele>58.4</ele>
        <time>2017-10-30T19:00:38Z</time>
      </trkpt>
      <trkpt lat="62.636314455418" lon="17.963968135011">
        <ele>58.2</ele>
        <time>2017-10-30T19:00:39Z</time>
      </trkpt>
      <trkpt lat="62.63633356615" lon="17.963940726198">
        <ele>58.2</ele>
        <time>2017-10-30T19:00:40Z</time>
      </trkpt>
      <trkpt lat="62.63635787366" lon="17.963909796987">
        <ele>58.2</ele>
        <time>2017-10-30T19:00:41Z</time>
      </trkpt>
      <trkpt lat="62.636379498962" lon="17.963883310183">
        <ele>58</ele>
        <time>2017-10-30T19:00:42Z</time>
      </trkpt>
      <trkpt lat="62.636402884463" lon="17.963852380972">
        <ele>58</ele>
        <time>2017-10-30T19:00:43Z</time>
      </trkpt>
      <trkpt lat="62.636424509765" lon="17.963818350458">
        <ele>57.8</ele>
        <time>2017-10-30T19:00:44Z</time>
      </trkpt>
      <trkpt lat="62.636442027936" lon="17.963795467871">
        <ele>57.8</ele>
        <time>2017-10-30T19:00:45Z</time>
      </trkpt>
      <trkpt lat="62.636466251627" lon="17.963762275547">
        <ele>57.6</ele>
        <time>2017-10-30T19:00:46Z</time>
      </trkpt>
      <trkpt lat="62.636488296024" lon="17.963733944725">
        <ele>57.6</ele>
        <time>2017-10-30T19:00:47Z</time>
      </trkpt>
      <trkpt lat="62.636507993489" lon="17.963709721034">
        <ele>57.6</ele>
        <time>2017-10-30T19:00:48Z</time>
      </trkpt>
      <trkpt lat="62.636532636275" lon="17.963692873415">
        <ele>57.4</ele>
        <time>2017-10-30T19:00:49Z</time>
      </trkpt>
      <trkpt lat="62.636556273233" lon="17.963692119044">
        <ele>57.4</ele>
        <time>2017-10-30T19:00:50Z</time>
      </trkpt>
      <trkpt lat="62.636580161648" lon="17.963705446265">
        <ele>57.6</ele>
        <time>2017-10-30T19:00:51Z</time>
      </trkpt>
      <trkpt lat="62.636600362027" lon="17.963737297485">
        <ele>57.6</ele>
        <time>2017-10-30T19:00:52Z</time>
      </trkpt>
      <trkpt lat="62.636617628741" lon="17.963774764578">
        <ele>57.6</ele>
        <time>2017-10-30T19:00:53Z</time>
      </trkpt>
      <trkpt lat="62.636636236559" lon="17.963807202531">
        <ele>57.6</ele>
        <time>2017-10-30T19:00:54Z</time>
      </trkpt>
      <trkpt lat="62.636655934024" lon="17.963834024611">
        <ele>57.4</ele>
        <time>2017-10-30T19:00:55Z</time>
      </trkpt>
      <trkpt lat="62.636678481335" lon="17.96385925413">
        <ele>57.4</ele>
        <time>2017-10-30T19:00:56Z</time>
      </trkpt>
      <trkpt lat="62.636699184628" lon="17.96388104707">
        <ele>57.4</ele>
        <time>2017-10-30T19:00:57Z</time>
      </trkpt>
      <trkpt lat="62.636714272048" lon="17.963900828354">
        <ele>57.2</ele>
        <time>2017-10-30T19:00:58Z</time>
      </trkpt>
      <trkpt lat="62.636738076644" lon="17.963940223284">
        <ele>57.2</ele>
        <time>2017-10-30T19:00:59Z</time>
      </trkpt>
      <trkpt lat="62.636755091901" lon="17.963969559934">
        <ele>57.2</ele>
        <time>2017-10-30T19:01:00Z</time>
      </trkpt>
      <trkpt lat="62.63677613047" lon="17.964012978176">
        <ele>57.4</ele>
        <time>2017-10-30T19:01:01Z</time>
      </trkpt>
      <trkpt lat="62.636792391356" lon="17.964048349794">
        <ele>57.4</ele>
        <time>2017-10-30T19:01:02Z</time>
      </trkpt>
      <trkpt lat="62.636808568423" lon="17.964086655077">
        <ele>57.6</ele>
        <time>2017-10-30T19:01:03Z</time>
      </trkpt>
      <trkpt lat="62.63682306911" lon="17.964123954532">
        <ele>57.6</ele>
        <time>2017-10-30T19:01:04Z</time>
      </trkpt>
      <trkpt lat="62.636839749091" lon="17.964159409969">
        <ele>57.6</ele>
        <time>2017-10-30T19:01:05Z</time>
      </trkpt>
      <trkpt lat="62.636856512891" lon="17.964201906202">
        <ele>57.8</ele>
        <time>2017-10-30T19:01:06Z</time>
      </trkpt>
      <trkpt lat="62.636869001922" lon="17.964242977512">
        <ele>57.8</ele>
        <time>2017-10-30T19:01:07Z</time>
      </trkpt>
      <trkpt lat="62.636883921704" lon="17.964272817076">
        <ele>58</ele>
        <time>2017-10-30T19:01:08Z</time>
      </trkpt>
      <trkpt lat="62.636903283893" lon="17.964294861473">
        <ele>58</ele>
        <time>2017-10-30T19:01:09Z</time>
      </trkpt>
      <trkpt lat="62.636919796236" lon="17.964316151499">
        <ele>57.8</ele>
        <time>2017-10-30T19:01:10Z</time>
      </trkpt>
      <trkpt lat="62.636939661339" lon="17.964337776801">
        <ele>57.8</ele>
        <time>2017-10-30T19:01:11Z</time>
      </trkpt>
      <trkpt lat="62.636955586949" lon="17.964358731551">
        <ele>57.6</ele>
        <time>2017-10-30T19:01:12Z</time>
      </trkpt>
      <trkpt lat="62.636971847835" lon="17.964385888907">
        <ele>57.6</ele>
        <time>2017-10-30T19:01:13Z</time>
      </trkpt>
      <trkpt lat="62.636987438169" lon="17.964408520037">
        <ele>57.4</ele>
        <time>2017-10-30T19:01:14Z</time>
      </trkpt>
      <trkpt lat="62.637002274132" lon="17.964422936905">
        <ele>57.4</ele>
        <time>2017-10-30T19:01:15Z</time>
      </trkpt>
      <trkpt lat="62.637023983253" lon="17.964441712361">
        <ele>57.2</ele>
        <time>2017-10-30T19:01:16Z</time>
      </trkpt>
      <trkpt lat="62.63703848394" lon="17.964445735673">
        <ele>57</ele>
        <time>2017-10-30T19:01:17Z</time>
      </trkpt>
      <trkpt lat="62.637055163921" lon="17.964445819492">
        <ele>57</ele>
        <time>2017-10-30T19:01:18Z</time>
      </trkpt>
      <trkpt lat="62.637070418979" lon="17.964447831148">
        <ele>57</ele>
        <time>2017-10-30T19:01:19Z</time>
      </trkpt>
      <trkpt lat="62.637082572734" lon="17.964435761212">
        <ele>57</ele>
        <time>2017-10-30T19:01:20Z</time>
      </trkpt>
      <trkpt lat="62.637096151412" lon="17.964425367656">
        <ele>57</ele>
        <time>2017-10-30T19:01:21Z</time>
      </trkpt>
    </trkseg>
  </trk>
</gpx>